[[{"header":{"parameterUnit":"m.s-1","parameterCategory":1,"la1":30.6,"la2":28.766,"lo1":-90.7593,"lo2":-88.6598,"dy":0.0162,"dx":0.0183,"nx":116,"ny":114,"refTime":"2024-07-04T12:00:00:Z","depth":0,"parameterNumber":2,"parameterNumberName":"U-component_of_WINDS"},"data":[0.0,0.0,0.0,0.0,0.0,0.0,0.0,0.0,0.0,0.0,0.0,0.0,0.0,0.0,0.0,0.0,0.0,0.0,0.0,0.0,0.0,0.0,0.0,0.0,0.0,0.0,0.0,0.0,0.0,0.0,0.0,0.0,0.0,0.0,0.0,0.0,0.0,0.0,0.0,0.0,0.0,0.0,0.0,0.0,0.0,0.0,0.0,0.0,0.0,0.0,0.0,0.0,0.0,0.0,0.0,0.0,0.0,0.0,0.0,0.0,0.0,0.0,0.0,0.0,0.0,0.0,0.0,0.0,0.0,0.0,0.0,0.0,0.0,0.0,0.0,0.0,0.0,0.0,0.0,0.0,0.0,0.0,0.0,0.0,0.0,0.0,0.0,0.0,0.0,0.0,0.0,0.0,0.0,0.0,0.0,0.0,0.0,0.0,0.0,0.0,0.0,0.0,0.0,0.0,0.0,0.0,0.0,0.0,0.0,0.0,0.0,0.0,0.0,0.0,0.0,0.0,0.0,0.0,0.0,0.0,0.0,0.0,0.0,0.0,0.0,0.0,0.0,0.0,0.0,0.0,0.0,0.0,0.0,0.0,0.0,0.0,0.0,0.0,0.0,0.0,0.0,0.0,0.0,0.0,0.0,0.0,0.0,0.0,0.0,0.0,0.0,0.0,0.0,0.0,0.0,0.0,0.0,0.0,0.0,0.0,0.0,0.0,0.0,0.0,0.0,0.0,0.0,0.0,0.0,0.0,0.0,0.0,0.0,0.0,0.0,0.0,0.0,0.0,0.0,0.0,0.0,0.0,0.0,0.0,0.0,0.0,0.0,0.0,0.0,0.0,0.0,0.0,0.0,0.0,0.0,0.0,0.0,0.0,0.0,0.0,0.0,0.0,0.0,0.0,0.0,0.0,0.0,0.0,0.0,0.0,0.0,0.0,0.0,0.0,0.0,0.0,0.0,0.0,0.0,0.0,0.0,0.0,0.0,0.0,0.0,0.0,0.0,0.0,0.0,0.0,0.0,0.0,0.0,0.0,0.0,0.0,0.0,0.0,0.0,0.0,0.0,0.0,0.0,0.0,0.0,0.0,0.0,0.0,0.0,0.0,0.0,0.0,0.0,0.0,0.0,0.0,0.0,0.0,0.0,0.0,0.0,0.0,0.0,0.0,0.0,0.0,0.0,0.0,0.0,0.0,0.0,0.0,0.0,0.0,0.0,0.0,0.0,0.0,0.0,0.0,0.0,0.0,0.0,0.0,0.0,0.0,0.0,0.0,0.0,0.0,0.0,0.0,0.0,0.0,0.0,0.0,0.0,0.0,0.0,0.0,0.0,0.0,0.0,0.0,0.0,0.0,0.0,0.0,0.0,0.0,0.0,0.0,0.0,0.0,0.0,0.0,0.0,0.0,0.0,0.0,0.0,0.0,0.0,0.0,0.0,0.0,0.0,0.0,0.0,0.0,0.0,0.0,0.0,0.0,0.0,0.0,0.0,0.0,0.0,0.0,0.0,0.0,0.0,0.0,0.0,0.0,0.0,0.0,0.0,0.0,0.0,0.0,0.0,0.0,0.0,0.0,0.0,0.0,0.0,0.0,0.0,0.0,0.0,0.0,0.0,0.0,0.0,0.0,0.0,0.0,0.0,0.0,0.0,0.0,0.0,0.0,0.0,0.0,0.0,0.0,0.0,0.0,0.0,0.0,0.0,0.0,0.0,0.0,0.0,0.0,0.0,0.0,0.0,0.0,0.0,0.0,0.0,0.0,0.0,0.0,0.0,0.0,0.0,0.0,0.0,0.0,0.0,0.0,0.0,0.0,0.0,0.0,0.0,0.0,0.0,0.0,0.0,0.0,0.0,0.0,0.0,0.0,0.0,0.0,0.0,0.0,0.0,0.0,0.0,0.0,0.0,0.0,0.0,0.0,0.0,0.0,0.0,0.0,0.0,0.0,0.0,0.0,0.0,0.0,0.0,0.0,0.0,0.0,0.0,0.0,0.0,0.0,0.0,0.0,0.0,0.0,0.0,0.0,0.0,0.0,0.0,0.0,0.0,0.0,0.0,0.0,0.0,0.0,0.0,0.0,0.0,0.0,0.0,0.0,0.0,0.0,0.0,0.0,0.0,0.0,0.0,0.0,0.0,0.0,0.0,0.0,0.0,0.0,0.0,0.0,0.0,0.0,0.0,0.0,0.0,0.0,0.0,0.0,0.0,0.0,0.0,0.0,0.0,0.0,0.0,0.0,0.0,0.0,0.0,0.0,0.0,0.0,0.0,0.0,0.0,0.0,0.0,0.0,0.0,0.0,0.0,0.0,0.0,0.0,0.0,0.0,0.0,0.0,0.0,0.0,0.0,0.0,0.0,0.0,0.0,0.0,0.0,0.0,0.0,0.0,0.0,0.0,0.0,0.0,0.0,0.0,0.0,0.0,0.0,0.0,0.0,0.0,0.0,0.0,0.0,0.0,0.0,0.0,0.0,0.0,0.0,0.0,0.0,0.0,0.0,0.0,0.0,0.0,0.0,0.0,0.0,0.0,0.0,0.0,0.0,0.0,0.0,0.0,0.0,0.0,0.0,0.0,0.0,0.0,0.0,0.0,0.0,0.0,0.0,0.0,0.0,0.0,0.0,0.0,0.0,0.0,0.0,0.0,0.0,0.0,0.0,0.0,0.0,0.0,0.0,0.0,0.0,0.0,0.0,0.0,0.0,0.0,0.0,0.0,0.0,0.0,0.0,0.0,0.0,0.0,0.0,0.0,0.0,0.0,0.0,0.0,0.0,0.0,0.0,0.0,0.0,0.0,0.0,0.0,0.0,0.0,0.0,0.0,0.0,0.0,0.0,0.0,0.0,0.0,0.0,0.0,0.0,0.0,0.0,0.0,0.0,0.0,0.0,0.0,0.0,0.0,0.0,0.0,0.0,0.0,0.0,0.0,0.0,0.0,0.0,0.0,0.0,0.0,0.0,0.0,0.0,0.0,0.0,0.0,0.0,0.0,0.0,0.0,0.0,0.0,0.0,0.0,0.0,0.0,0.0,0.0,0.0,0.0,0.0,0.0,0.0,0.0,0.0,0.0,0.0,0.0,0.0,0.0,0.0,0.0,0.0,0.0,0.0,0.0,0.0,0.0,0.0,0.0,0.0,0.0,0.0,0.0,0.0,0.0,0.0,0.0,0.0,0.0,0.0,0.0,0.0,0.0,0.0,0.0,0.0,0.0,0.0,0.0,0.0,0.0,0.0,0.0,0.0,0.0,0.0,0.0,0.0,0.0,0.0,0.0,0.0,0.0,0.0,0.0,0.0,0.0,0.0,0.0,0.0,0.0,0.0,0.0,0.0,0.0,0.0,0.0,0.0,0.0,0.0,0.0,0.0,0.0,0.0,0.0,0.0,0.0,0.0,0.0,0.0,0.0,0.0,0.0,0.0,0.0,0.0,0.0,0.0,0.0,0.0,0.0,0.0,0.0,0.0,0.0,0.0,0.0,0.0,0.0,0.0,0.0,0.0,0.0,0.0,0.0,0.0,0.0,0.0,0.0,0.0,0.0,0.0,0.0,0.0,0.0,0.0,0.0,0.0,0.0,0.0,0.0,0.0,0.0,0.0,0.0,0.0,0.0,0.0,0.0,0.0,0.0,0.0,0.0,0.0,0.0,0.0,0.0,0.0,0.0,0.0,0.0,0.0,0.0,0.0,0.0,0.0,0.0,0.0,0.0,0.0,0.0,0.0,0.0,0.0,0.0,0.0,0.0,0.0,0.0,0.0,0.0,0.0,0.0,0.0,0.0,0.0,0.0,0.0,0.0,0.0,0.0,0.0,0.0,0.0,0.0,0.0,0.0,0.0,0.0,0.0,0.0,0.0,0.0,0.0,0.0,0.0,0.0,0.0,0.0,0.0,0.0,0.0,0.0,0.0,0.0,0.0,0.0,0.0,0.0,0.0,0.0,0.0,0.0,0.0,0.0,0.0,0.0,0.0,0.0,0.0,0.0,0.0,0.0,0.0,0.0,0.0,0.0,0.0,0.0,0.0,0.0,0.0,0.0,0.0,0.0,0.0,0.0,0.0,0.0,0.0,0.0,0.0,0.0,0.0,0.0,0.0,0.0,0.0,0.0,0.0,0.0,0.0,0.0,0.0,0.0,0.0,0.0,0.0,0.0,0.0,0.0,0.0,0.0,0.0,0.0,0.0,0.0,0.0,0.0,0.0,0.0,0.0,0.0,0.0,0.0,0.0,0.0,0.0,0.0,0.0,0.0,0.0,0.0,0.0,0.0,0.0,0.0,0.0,0.0,0.0,0.0,0.0,0.0,0.0,0.0,0.0,0.0,0.0,0.0,0.0,0.0,0.0,0.0,0.0,0.0,0.0,0.0,0.0,0.0,0.0,0.0,0.0,0.0,0.0,0.0,0.0,0.0,0.0,0.0,0.0,0.0,0.0,0.0,0.0,0.0,0.0,0.0,0.0,0.0,0.0,0.0,0.0,0.0,0.0,0.0,0.0,0.0,0.0,0.0,0.0,0.0,0.0,0.0,0.0,0.0,0.0,0.0,0.0,0.0,0.0,0.0,0.0,0.0,0.0,0.0,0.0,0.0,0.0,0.0,0.0,0.0,0.0,0.0,0.0,0.0,0.0,0.0,0.0,0.0,0.0,0.0,0.0,0.0,0.0,0.0,0.0,0.0,0.0,0.0,0.0,0.0,0.0,0.0,0.0,0.0,0.0,0.0,0.0,0.0,0.0,0.0,0.0,0.0,0.0,0.0,0.0,0.0,0.0,0.0,0.0,0.0,0.0,0.0,0.0,0.0,0.0,0.0,0.0,0.0,0.0,0.0,0.0,0.0,0.0,0.0,0.0,0.0,0.0,0.0,0.0,0.0,0.0,0.0,0.0,0.0,0.0,0.0,0.0,0.0,0.0,0.0,0.0,0.0,0.0,0.0,0.0,0.0,0.0,0.0,0.0,0.0,0.0,0.0,0.0,0.0,0.0,0.0,0.0,0.0,0.0,0.0,0.0,0.0,0.0,0.0,0.0,0.0,0.0,0.0,0.0,0.0,0.0,0.0,0.0,0.0,0.0,0.0,0.0,0.0,0.0,0.0,0.0,0.0,0.0,0.0,0.0,0.0,0.0,0.0,0.0,0.0,0.0,0.0,0.0,0.0,0.0,0.0,0.0,0.0,0.0,0.0,0.0,0.0,0.0,0.0,0.0,0.0,0.0,0.0,0.0,0.0,0.0,0.0,0.0,0.0,0.0,0.0,0.0,0.0,0.0,0.0,0.0,0.0,0.0,0.0,0.0,0.0,0.0,0.0,0.0,0.0,0.0,0.0,0.0,0.0,0.0,0.0,0.0,0.0,0.0,0.0,0.0,0.0,0.0,0.0,0.0,0.0,0.0,0.0,0.0,0.0,0.0,0.0,0.0,0.0,0.0,0.0,0.0,0.0,0.0,0.0,0.0,0.0,0.0,0.0,0.0,0.0,0.0,0.0,0.0,0.0,0.0,0.0,0.0,0.0,0.0,0.0,0.0,0.0,0.0,0.0,0.0,0.0,0.0,0.0,0.0,0.0,0.0,0.0,0.0,0.0,0.0,0.0,0.0,0.0,0.0,0.0,0.0,0.0,0.0,0.0,0.0,0.0,0.0,0.0,0.0,0.0,0.0,0.0,0.0,0.0,0.0,0.0,0.0,0.0,0.0,0.0,0.0,0.0,0.0,0.0,0.0,0.0,0.0,0.0,0.0,0.0,0.0,0.0,0.0,0.0,0.0,0.0,0.0,0.0,0.0,0.0,0.0,0.0,0.0,0.0,0.0,0.0,0.0,0.0,0.0,0.0,0.0,0.0,0.0,0.0,0.0,0.0,0.0,0.0,0.0,0.0,0.0,0.0,0.0,0.0,0.0,0.0,0.0,0.0,0.0,0.0,0.0,0.0,0.0,0.0,0.0,0.0,0.0,0.0,0.0,0.0,0.0,0.0,0.0,0.0,0.0,0.0,0.0,0.0,0.0,0.0,0.0,0.0,0.0,0.0,0.0,0.0,0.0,0.0,0.0,0.0,0.0,0.0,0.0,0.0,0.0,0.0,0.0,0.0,0.0,0.0,0.0,0.0,0.0,0.0,-2.7233,0.0,0.0,0.0,0.0,0.0,0.0,0.0,0.0,0.0,0.0,0.0,0.0,0.0,0.0,0.0,0.0,0.0,0.0,0.0,0.0,0.0,0.0,0.0,0.0,-1.5927,-1.6077,-1.6466,-1.6876,-1.7109,-1.7074,0.0,0.0,0.0,0.0,0.0,-1.7035,-1.7016,-1.7451,-1.8321,-1.8329,-1.9173,-2.0821,-2.0717,-2.0068,-1.8908,0.0,0.0,0.0,0.0,0.0,0.0,0.0,0.0,0.0,0.0,0.0,0.0,0.0,0.0,0.0,0.0,0.0,0.0,0.0,0.0,0.0,0.0,0.0,0.0,0.0,0.0,0.0,0.0,0.0,0.0,0.0,0.0,0.0,0.0,0.0,0.0,0.0,0.0,0.0,0.0,0.0,0.0,0.0,0.0,0.0,0.0,0.0,0.0,0.0,0.0,0.0,0.0,0.0,0.0,0.0,0.0,0.0,0.0,0.0,0.0,0.0,0.0,0.0,0.0,0.0,0.0,0.0,0.0,0.0,0.0,0.0,-2.9576,0.0,0.0,0.0,0.0,0.0,0.0,0.0,0.0,0.0,0.0,0.0,0.0,0.0,0.0,0.0,0.0,0.0,0.0,0.0,0.0,0.0,-1.3921,-1.6342,-1.6602,-1.6993,-1.795,-1.8021,-1.8047,-1.8148,-1.8142,0.0,0.0,0.0,-1.8084,-1.7927,-1.8061,-1.855,-1.9439,-2.0034,-2.1551,-2.3933,-2.5479,-2.4702,-2.2019,-2.106,0.0,0.0,0.0,0.0,0.0,0.0,0.0,0.0,0.0,0.0,0.0,0.0,0.0,0.0,0.0,0.0,0.0,0.0,0.0,0.0,0.0,0.0,0.0,0.0,0.0,0.0,0.0,0.0,0.0,0.0,0.0,0.0,0.0,0.0,0.0,0.0,0.0,0.0,0.0,0.0,0.0,0.0,0.0,0.0,0.0,0.0,0.0,0.0,0.0,0.0,0.0,0.0,0.0,0.0,0.0,0.0,0.0,0.0,0.0,0.0,0.0,0.0,0.0,-3.6985,-3.7792,-3.9031,-3.9031,-3.9445,-3.9968,-3.6363,-3.4657,-3.4198,0.0,0.0,0.0,0.0,0.0,0.0,0.0,0.0,0.0,0.0,0.0,0.0,0.0,0.0,0.0,0.0,0.0,0.0,0.0,0.0,-1.456,-1.6399,-1.6602,-1.7228,-1.8789,-1.8873,-1.9168,-1.9915,-1.9954,0.0,0.0,-1.9542,-1.9596,-1.8842,-1.9508,-2.0307,-2.1163,-2.4144,-2.6507,-2.8288,-2.9271,-2.9494,-2.8865,-2.437,-2.2719,-2.3136,0.0,0.0,0.0,0.0,0.0,0.0,0.0,0.0,0.0,0.0,0.0,0.0,0.0,0.0,0.0,0.0,0.0,0.0,0.0,0.0,0.0,0.0,0.0,0.0,0.0,0.0,0.0,0.0,0.0,0.0,0.0,0.0,0.0,0.0,0.0,0.0,0.0,0.0,0.0,0.0,0.0,-2.4812,-2.5188,0.0,0.0,0.0,0.0,0.0,0.0,0.0,0.0,0.0,0.0,0.0,0.0,0.0,-3.5824,-3.8097,-3.9624,-4.085,-4.1768,-4.3274,-4.4091,-4.429,-4.429,-4.4382,-4.4436,-4.3453,0.0,-3.7005,-3.5774,0.0,0.0,0.0,0.0,0.0,0.0,0.0,0.0,0.0,0.0,0.0,0.0,0.0,0.0,0.0,0.0,0.0,0.0,0.0,0.0,0.0,-1.8432,-1.9409,-2.1094,-2.1211,-2.1155,-2.1039,-2.0997,-2.06,-1.9773,-2.01,-2.0327,-2.0404,-2.0746,-2.2068,-2.4375,-2.7292,-2.9348,-3.0578,-3.1404,-3.1814,-3.1692,-2.8969,-2.7171,-2.6037,-2.3554,0.0,0.0,0.0,0.0,0.0,0.0,0.0,0.0,0.0,0.0,0.0,0.0,0.0,0.0,0.0,0.0,0.0,0.0,0.0,0.0,0.0,0.0,0.0,0.0,0.0,0.0,0.0,0.0,0.0,0.0,0.0,0.0,0.0,0.0,0.0,0.0,0.0,0.0,0.0,-2.45,-2.7408,-2.7433,-2.8201,-2.8247,0.0,0.0,0.0,0.0,0.0,0.0,0.0,0.0,0.0,-3.8833,-3.9751,-4.1155,-4.3159,-4.4373,-4.5389,-4.6202,-4.6804,-4.7342,-4.7778,-4.7778,-4.7778,-4.7757,-4.7402,-4.5838,-4.3283,-3.9869,-3.7028,-3.4614,0.0,0.0,0.0,0.0,-3.2665,-3.3079,0.0,0.0,0.0,0.0,0.0,0.0,0.0,0.0,0.0,0.0,0.0,0.0,-1.9186,-2.0382,-2.1613,-2.308,-2.3219,-2.2929,-2.2284,-2.1782,-2.1235,-2.0635,-2.0615,-2.0885,-2.1485,-2.237,-2.437,-2.7577,-2.9904,-3.1481,-3.2352,-3.3179,-3.3564,-3.3545,-3.2949,-3.1365,-2.9033,-2.6867,-2.4729,-2.2619,0.0,0.0,0.0,0.0,0.0,0.0,0.0,0.0,0.0,0.0,0.0,0.0,0.0,0.0,0.0,0.0,0.0,0.0,0.0,0.0,0.0,0.0,0.0,0.0,0.0,0.0,0.0,0.0,0.0,0.0,0.0,0.0,0.0,0.0,0.0,0.0,0.0,-2.7188,-2.9786,-2.9692,-3.1275,-3.1643,0.0,0.0,0.0,0.0,0.0,0.0,-3.7623,-3.8348,-4.0165,-4.3442,-4.461,-4.5892,-4.7409,-4.8007,-4.8623,-4.918,-4.8938,-4.9113,-4.9693,-4.9693,-4.9693,-4.9688,-4.9412,-4.8996,-4.8134,-4.3546,-4.0612,-3.8856,-3.7212,-3.5978,-3.5232,-3.6542,-3.7063,-3.7518,0.0,0.0,0.0,0.0,0.0,0.0,0.0,0.0,0.0,0.0,0.0,-1.8421,-2.0153,-2.1797,-2.3118,-2.3967,-2.404,-2.4024,0.0,-2.2412,-2.1485,-2.1446,-2.1446,-2.1466,-2.1504,-2.4678,-2.7615,-3.0212,-3.1929,-3.3218,-3.409,-3.4968,-3.5365,-3.5365,-3.5327,-3.4314,-3.2436,-2.9088,-2.7115,-2.6029,-2.3522,0.0,0.0,0.0,0.0,0.0,0.0,0.0,0.0,0.0,0.0,0.0,0.0,0.0,0.0,0.0,0.0,0.0,0.0,0.0,0.0,0.0,0.0,0.0,0.0,0.0,0.0,0.0,0.0,0.0,0.0,0.0,0.0,0.0,0.0,0.0,0.0,0.0,0.0,-3.3143,-3.524,0.0,0.0,0.0,0.0,-3.6562,-3.7967,-4.0184,-4.3497,-4.4223,-4.5791,-4.8456,-4.8601,-4.9054,-4.9912,-4.9967,-5.0003,-5.0035,-4.9771,-4.9657,-4.9693,-4.9693,-4.9693,-4.9688,-4.9412,-4.9275,-4.9073,-4.6822,-4.4792,-4.2996,-4.1871,-4.0805,-3.999,-4.1084,-4.1481,-4.1643,0.0,0.0,0.0,-1.0344,-1.0975,-1.1792,-1.2663,-1.3958,-1.5265,-1.645,-1.8291,-1.9959,-2.1104,-2.3229,-2.49,-2.5702,-2.5766,-2.5532,-2.4961,-2.3826,-2.3163,-2.3163,-2.3163,-2.3932,-2.5582,-2.7865,-3.0288,-3.2852,-3.4054,-3.535,-3.6715,-3.711,-3.7302,-3.7302,-3.7214,-3.6826,-3.6023,-3.2545,-2.9958,-2.7996,-2.5962,-2.3628,0.0,0.0,0.0,0.0,0.0,0.0,0.0,0.0,0.0,0.0,0.0,0.0,0.0,0.0,0.0,0.0,0.0,0.0,0.0,0.0,0.0,0.0,0.0,0.0,0.0,0.0,0.0,0.0,0.0,0.0,0.0,0.0,0.0,0.0,0.0,0.0,0.0,-3.7142,-3.8898,0.0,-3.8085,-3.87,-3.984,-4.1452,-4.2518,-4.4288,-4.7026,-4.738,-4.8157,-4.9637,-5.0162,-5.0832,-5.1629,-5.2154,-5.2426,-5.2408,-5.1964,-5.15,-5.0974,-5.0827,-5.0727,-5.0709,-5.0627,-5.0602,-5.0462,-4.9044,-4.7462,-4.5943,-4.5553,-4.4854,-4.4059,-4.3955,-4.4059,-4.4223,-1.0291,-1.0293,0.0,-1.0263,-1.1185,-1.2138,-1.2688,-1.4462,-1.6157,-1.7296,-1.9438,-2.1391,-2.2826,-2.4981,-2.6554,-2.7054,-2.7108,-2.6738,-2.5866,-2.4735,-2.411,-2.411,-2.4644,-2.6145,-2.8698,-3.0679,-3.2666,-3.4667,-3.5834,-3.7019,-3.8179,-3.822,-3.8257,-3.8306,-3.8215,-3.8142,-3.7943,-3.5624,-3.3154,-3.0663,-2.92,-2.7092,-2.4629,0.0,0.0,0.0,0.0,0.0,0.0,0.0,0.0,0.0,0.0,0.0,0.0,0.0,0.0,0.0,0.0,0.0,0.0,0.0,0.0,0.0,0.0,0.0,0.0,0.0,0.0,0.0,0.0,0.0,0.0,0.0,0.0,0.0,0.0,0.0,-3.8572,-3.9641,-4.1886,-4.2899,-4.1832,-4.2918,-4.4275,-4.5617,-4.6214,-4.7464,-4.9601,-4.9981,-5.0488,-5.1285,-5.21,-5.2705,-5.3159,-5.3658,-5.3881,-5.3807,-5.3338,-5.2863,-5.2339,-5.2156,-5.2077,-5.2077,-5.2077,-5.1918,-5.1608,-5.0814,-4.9732,-4.8521,-4.7822,-4.722,-4.6671,-4.6012,-4.5927,-4.5973,-1.0291,-1.0292,-1.0273,-1.0217,-1.1644,-1.2772,-1.2719,-1.4936,-1.7238,-1.8877,-2.064,-2.2691,-2.5182,-2.696,-2.7923,-2.7861,-2.7861,-2.7503,-2.6659,-2.5048,-2.4168,-2.4245,-2.5851,-2.7942,-3.05,-3.2987,-3.4724,-3.5725,-3.7282,-3.815,-3.8384,-3.8257,-3.8267,-3.8388,-3.8384,-3.8307,-3.8185,-3.8185,-3.6665,-3.4172,-3.3221,-3.1347,-2.8919,0.0,0.0,0.0,0.0,0.0,0.0,0.0,0.0,0.0,0.0,0.0,0.0,0.0,0.0,0.0,0.0,0.0,0.0,0.0,0.0,0.0,0.0,0.0,0.0,0.0,0.0,0.0,0.0,0.0,0.0,0.0,0.0,0.0,-3.6057,-3.8628,-4.0637,-4.0709,-4.4148,-4.5943,-4.4421,-4.6413,-4.8094,-4.8909,-4.8999,-4.9709,-5.1285,-5.2136,-5.2933,-5.3711,-5.449,-5.4767,-5.4439,-5.4439,-5.4305,-5.4063,-5.377,-5.3617,-5.3599,-5.3599,-5.3572,-5.3572,-5.3572,-5.3148,-5.2413,-5.2132,-5.1583,-5.0714,-4.869,-4.7892,-4.7837,-4.7329,-4.7113,-4.6907,-1.0291,-1.0293,-1.029,-1.0283,-1.1676,-1.2794,-1.2782,-1.5495,-1.7922,-1.8969,-2.1126,-2.3077,-2.4409,-2.6051,-2.7054,-2.7031,-2.6993,-2.6867,-2.6621,-2.5582,-2.5793,-2.7645,-2.9371,-3.1481,-3.4038,-3.4769,-3.6162,-3.8271,-3.8775,-3.9395,-4.0116,-4.0178,-4.0225,-4.0247,-4.0166,-4.0077,-3.9978,-3.9874,-3.9083,-3.7632,-3.4873,-3.2945,-3.1493,0.0,0.0,0.0,0.0,0.0,0.0,0.0,0.0,0.0,0.0,0.0,0.0,0.0,0.0,0.0,0.0,0.0,0.0,0.0,0.0,0.0,0.0,0.0,0.0,0.0,0.0,0.0,0.0,0.0,0.0,0.0,0.0,-3.946,-3.9243,-4.147,-4.3769,-4.5506,-4.6703,-4.7645,-4.8369,-4.9039,-4.9764,-5.0578,-5.1176,-5.1955,-5.2987,-5.3802,-5.4345,-5.4562,-5.478,-5.5118,-5.5568,-5.5368,-5.5215,-5.5137,-5.4678,-5.4148,-5.3599,-5.3397,-5.3313,-5.3313,-5.3313,-5.319,-5.2923,-5.2462,-5.1854,-5.11,-5.0365,-5.0062,-4.9911,-4.8879,-4.77,-4.6583,-1.0291,-1.0293,-1.0428,-1.0775,-1.1939,-1.2926,-1.3291,-1.5938,-1.8337,-1.9527,-2.1579,-2.3544,-2.5114,-2.6122,-2.6832,-2.7166,-2.7171,-2.6987,-2.6621,-2.6467,-2.7371,-2.9544,-3.1641,-3.3603,-3.5462,-3.6546,-3.7832,-3.9339,-3.9695,-4.019,-4.081,-4.0844,-4.0894,-4.0906,-4.0833,-4.0751,-4.0694,-4.0609,-4.0287,-3.9585,-3.7176,-3.5687,-3.4644,-3.2032,-3.0753,-3.0128,-2.8561,-2.7988,-2.7727,-2.592,0.0,0.0,0.0,0.0,0.0,0.0,0.0,0.0,0.0,0.0,0.0,0.0,0.0,0.0,0.0,0.0,0.0,0.0,0.0,0.0,0.0,0.0,0.0,0.0,-4.022,-4.2755,-4.3406,-4.4729,-4.6142,-4.7536,-4.8605,-4.9582,-5.0506,-5.1194,-5.1792,-5.2263,-5.3041,-5.3711,-5.4182,-5.4943,-5.5359,-5.5359,-5.5685,-5.6016,-5.635,-5.6171,-5.6059,-5.5928,-5.5468,-5.5016,-5.4545,-5.4281,-5.4022,0.0,-5.3829,-5.352,-5.3016,-5.271,-5.2261,0.0,0.0,0.0,0.0,0.0,-4.7977,-4.7037,-1.0329,-1.0389,-1.0683,-1.1462,-1.2357,-1.3212,-1.3983,-1.6275,-1.8532,-2.0269,-2.1958,-2.3922,-2.6388,-2.6587,-2.6838,-2.7571,-2.7696,-2.7505,-2.6928,-2.7694,-2.8984,-3.075,-3.3083,-3.4834,-3.5904,-3.8142,-3.9369,-3.9515,-4.0179,-4.0603,-4.0791,-4.0729,-4.0773,-4.0927,-4.0927,-4.0942,-4.0965,-4.0868,-4.0756,-4.0566,-3.9632,-3.8767,-3.7781,-3.5346,-3.4313,-3.3842,-3.158,-3.0708,-3.0376,-2.877,0.0,0.0,0.0,0.0,0.0,0.0,0.0,0.0,0.0,0.0,0.0,0.0,0.0,0.0,0.0,0.0,0.0,0.0,0.0,0.0,0.0,0.0,0.0,0.0,-4.3118,-4.6124,-4.7753,-4.8061,-4.8116,-4.8116,-4.9999,-5.1357,-5.1538,-5.286,-5.3748,-5.3838,-5.4581,-5.5033,-5.5033,0.0,0.0,0.0,0.0,-5.7105,-5.6847,-5.6821,-5.668,-5.6401,-5.606,-5.589,-5.5833,-5.5607,-5.5252,-5.4772,-5.4772,-5.4143,-5.3098,-5.297,-5.2683,-5.211,-5.0578,-4.9485,-4.8733,-4.826,-4.8033,-4.7918,-1.0445,-1.0876,-1.1405,-1.1562,-1.2851,-1.3906,-1.4061,-1.6319,-1.8594,-2.0289,-2.1952,-2.3709,-2.5559,-2.5697,-2.5719,-2.5873,-2.6477,-2.7351,0.0,-2.9481,-3.103,-3.3359,-3.4603,-3.6295,-3.8527,-3.9053,-3.9626,-4.0292,-4.0435,-4.0574,-4.0711,-4.0706,-4.1054,-4.1698,-4.1698,-4.2047,-4.2595,-4.1902,-4.157,-4.1481,-4.0526,-3.9621,-3.8739,-3.7468,-3.6154,-3.4904,-3.4407,-3.3815,-3.3073,-3.189,-3.1607,-3.1333,-2.9015,0.0,0.0,0.0,0.0,0.0,0.0,0.0,0.0,0.0,0.0,0.0,0.0,0.0,0.0,0.0,0.0,0.0,0.0,0.0,0.0,-4.3661,-4.5888,-4.7808,-4.9401,-5.018,-5.0597,-5.0597,-5.1013,-5.181,-5.3114,-5.3512,-5.3965,-5.4617,-5.5359,-5.5776,-5.5776,-5.6536,0.0,-5.6971,-5.7116,-5.7181,-5.7112,-5.6899,-5.668,-5.6401,0.0,0.0,-5.5596,-5.5537,-5.5448,-5.5341,-5.5341,-5.5194,-5.4887,-5.4029,-5.2839,-5.1464,-5.1124,-5.0296,-4.9209,-4.8733,-4.8324,-4.7984,-1.1596,-1.195,-1.2382,-1.2773,-1.3535,-1.4258,-1.4687,-1.6229,-1.7965,-1.9682,-2.0983,-2.2395,-2.4113,-2.4202,-2.4161,-2.415,-2.5281,0.0,0.0,-3.0683,-3.2309,-3.4793,-3.6198,-3.7672,-3.9302,-3.9784,-4.0209,-4.0595,-4.0534,-4.0766,-4.1244,-4.1244,-4.1707,-4.2498,-4.2498,-4.2722,-4.3066,-4.2599,-4.2148,-4.1717,-4.1201,-4.0468,-3.9606,-3.8694,-3.7827,-3.6986,-3.6156,-3.5583,-3.504,-3.3669,-3.317,-3.2816,-3.0866,-2.9336,-2.7886,0.0,0.0,0.0,0.0,0.0,0.0,0.0,0.0,0.0,0.0,0.0,0.0,0.0,0.0,-3.7671,-3.9896,0.0,-4.4295,-4.6721,-4.8116,-4.9311,-5.0546,-5.1054,-5.1285,-5.1285,-5.2009,-5.2824,-5.3621,-5.4399,-5.5015,-5.5414,-5.6156,-5.6591,-5.6591,-5.6971,-5.7188,-5.7188,-5.7188,-5.7188,-5.7188,-5.6933,-5.6715,-5.66,-5.6116,-5.5833,-5.5695,-5.5566,-5.5341,-5.5113,-5.5113,-5.4944,-5.4648,-5.4106,-5.3026,-5.1647,-5.1647,-5.068,-4.9243,-4.9004,-4.8528,-4.8001,-1.2962,-1.3277,-1.3534,-1.4023,-1.4238,-1.459,-1.5293,-1.6133,-1.7324,-1.9062,-1.9993,-2.1153,-2.2912,-2.2989,-2.3045,0.0,0.0,0.0,0.0,-3.1643,-3.3347,-3.598,-3.7477,-3.8704,-3.9636,-4.0352,-4.0706,-4.0717,-4.0783,-4.1164,-4.1851,-4.2032,-4.2557,-4.3373,-4.3373,-4.3445,-4.3566,-4.3351,-4.2757,-4.1923,-4.1711,-4.1101,-4.0202,-3.9335,-3.8897,-3.8572,-3.7226,-3.6424,-3.5832,-3.4596,-3.3914,-3.3355,-3.1911,-3.0788,-2.9673,-2.796,-2.6772,0.0,0.0,0.0,0.0,0.0,0.0,0.0,0.0,0.0,-3.5614,-3.7703,-3.9536,-4.1523,-4.3955,-4.5794,-4.75,-4.909,-4.9908,-5.0619,-5.1411,-5.152,-5.152,-5.152,-5.2824,-5.3766,-5.3929,-5.5178,-5.6047,-5.621,-5.6826,-5.7188,-5.7188,-5.7188,-5.7188,-5.7188,-5.7188,-5.7188,-5.7188,-5.7003,-5.6847,-5.6794,-5.6255,-5.5975,-5.589,-5.5637,-5.5282,-5.4852,-5.4741,-5.4411,-5.3912,-5.3781,-5.3111,-5.2084,-5.2068,-5.1044,-4.9491,-4.921,-4.873,-4.8199,-1.38,-1.4583,-1.4898,-1.4217,-1.4745,-1.5293,-1.5391,-1.6133,-1.7324,-1.9062,-1.9993,-2.1153,-2.2912,-2.303,-2.3562,-2.5,-2.6104,0.0,-3.1443,-3.258,-3.4544,-3.7682,-3.8005,-3.8901,-4.052,-4.0655,-4.0734,-4.0791,-4.1548,-4.197,-4.2087,-4.2869,-4.3623,-4.4329,-4.4329,-4.472,-4.5267,-4.4489,-4.3656,-4.2795,-4.2005,-4.1128,-4.0202,-3.9335,-3.8514,-3.7827,-3.7636,-3.6146,-3.4326,-3.4678,-3.4263,-3.3497,-3.2962,-3.2683,-3.2212,-3.0353,0.0,-2.8865,-3.0149,-3.1741,-3.3396,-3.4903,-3.5374,-3.6749,0.0,0.0,-4.1451,-4.3821,-4.5053,-4.6013,-4.7039,-4.8001,-4.9166,-5.076,-5.1104,-5.1448,-5.2245,-5.2371,-5.2371,-5.2371,-5.315,-5.3983,-5.4707,-5.5504,-5.6283,-5.7007,-5.7152,-5.7188,-5.7188,-5.7188,-5.7188,-5.7188,-5.7188,-5.7188,-5.7188,-5.7163,-5.7054,-5.6794,-5.6492,-5.6189,-5.589,-5.5637,-5.5478,-5.5371,-5.4913,-5.4411,-5.3879,-5.3382,-5.2854,-5.2364,-5.2348,-5.1814,-5.0917,-4.9591,-4.9061,-4.8895,-1.4699,-1.5149,-1.5287,-1.4918,-1.5155,-1.539,-1.5391,-1.5703,-1.6387,-1.7637,-1.8514,-1.9527,-2.0758,-2.1283,-2.2211,-2.3855,-2.5325,-2.758,-3.0996,-3.2564,-3.4822,-3.8127,-3.8279,-3.9048,-4.0726,-4.0717,-4.0705,-4.0738,-4.1615,-4.228,-4.2759,-4.3709,-4.4563,-4.5309,-4.5309,-4.546,-4.5685,-4.5295,-4.4281,-4.2905,-4.2506,-4.1513,-4.0204,-3.9326,-3.8171,-3.6948,-3.6432,-3.5495,0.0,0.0,-3.3043,-3.2512,-3.2356,-3.1554,-3.0517,-2.9719,-2.9934,0.0,-3.466,-3.6033,-3.6952,0.0,-3.9743,-4.0797,-4.3481,-4.357,-4.3661,-4.5599,-4.6649,-4.7591,-4.8858,-4.9745,-5.0669,0.0,-5.1991,-5.2118,-5.2444,-5.2498,-5.2317,-5.1846,-5.2933,-5.4019,-5.4834,-5.5558,-5.6319,-5.7134,-5.7188,-5.7188,-5.7188,-5.7188,-5.7188,-5.7188,-5.7188,-5.7188,-5.7188,-5.7054,-5.6821,-5.6573,-5.6273,-5.5947,-5.5648,-5.5566,-5.5312,-5.5005,-5.4821,-5.4203,-5.3416,-5.3179,-5.2835,-5.2409,-5.2409,-5.2227,-5.1829,-5.075,-4.9839,-4.9061,-1.5226,-1.5402,-1.5403,-1.5404,-1.5407,-1.5409,-1.5391,-1.5391,-1.5801,-1.6914,-1.7617,-1.8418,-1.9531,-2.0189,-2.12,-2.2857,-2.4385,-2.6734,-3.0211,-3.2076,-3.4427,-3.7514,-3.8111,-3.9011,-4.0383,-4.0607,-4.0712,-4.0729,-4.1606,-4.2346,-4.2976,-4.3933,-4.4705,-4.5245,-4.5245,-4.5182,-4.5084,-4.5037,-4.406,-4.2561,-4.2516,-4.1484,-3.9851,-3.8725,-3.7273,-3.5717,-3.5034,-3.4245,0.0,0.0,-3.1362,-3.1098,-3.1051,-3.0411,-2.9739,-3.0179,-3.1953,-3.4412,-3.7484,0.0,0.0,-4.1937,-4.3251,-4.4231,-4.4717,-4.4948,-4.5417,-4.6595,-4.7482,-4.8405,-4.9546,-5.0597,-5.1556,-5.2371,-5.2679,-5.2824,-5.2824,-5.2643,-5.2281,-5.1701,-5.2462,-5.353,-5.478,-5.5558,-5.6319,-5.7134,-5.7188,-5.7188,-5.7188,-5.7188,-5.7188,-5.7188,-5.7188,-5.7188,-5.7188,-5.7003,-5.6821,-5.6626,-5.631,-5.6003,-5.5724,-5.5566,-5.5221,-5.471,-5.471,-5.4188,-5.3315,-5.3179,-5.2904,-5.257,-5.2445,-5.2409,-5.2359,-5.1812,-5.0783,-4.9641,-1.5226,-1.5402,-1.5403,-1.5404,-1.5405,-1.5407,-1.541,-1.5391,-1.6016,-1.7734,-1.7988,-1.8652,-2.0371,-2.0585,-2.1243,-2.2857,-2.3887,-2.5896,-2.9316,-3.118,-3.3226,-3.5678,-3.7398,-3.8656,-3.9429,-4.0274,-4.0734,-4.0806,-4.167,-4.2185,-4.2354,-4.3215,-4.3601,-4.3578,-4.3578,-4.3461,-4.3285,-4.3285,-4.2683,-4.175,-4.1737,-4.0696,-3.8948,-3.7233,-3.5534,-3.4055,-3.3819,0.0,0.0,0.0,-2.9446,-2.9336,-2.9152,-3.0118,0.0,-3.3201,-3.6486,0.0,0.0,0.0,-4.3334,-4.3286,-4.5002,-4.6676,-4.6632,-4.7109,-4.7609,-4.7663,-4.8294,-4.8873,-4.8927,-5.0234,-5.1556,-5.2371,-5.315,-5.3657,-5.3657,-5.2987,-5.248,-5.2462,-5.181,-5.2299,0.0,-5.5558,-5.6319,-5.7134,-5.7188,-5.7188,-5.7188,-5.7188,-5.7188,-5.7188,-5.7188,-5.7188,-5.7188,-5.7188,-5.7163,-5.7163,-5.6899,-5.6635,-5.6328,-5.5771,-5.5221,-5.471,-5.471,-5.4379,-5.3847,-5.3298,-5.3077,-5.3043,-5.257,-5.2409,-5.2409,-5.2393,-5.1895,-5.105,-1.5338,-1.54,-1.5402,-1.5403,-1.5404,-1.5406,-1.5408,-1.5898,-1.6465,-1.7051,-1.8144,0.0,0.0,0.0,0.0,0.0,-2.3874,-2.5619,-2.8455,-3.0261,-3.211,-3.4016,-3.5733,-3.7012,-3.7783,-3.9137,-3.9831,-3.9799,-4.1357,-4.212,-4.2194,-4.3203,-4.3645,-4.3624,-4.3587,-4.3486,-4.3325,-4.3247,-4.2949,-4.2469,-4.1304,-4.0447,-3.9656,-3.7366,-3.5106,-3.297,0.0,0.0,0.0,-2.8108,-2.7706,-2.7582,-2.8048,0.0,0.0,-3.2645,0.0,-3.8762,-4.0811,0.0,-4.4455,-4.5386,-4.6165,-4.6832,-4.7254,-4.7539,-4.7554,-4.7011,-4.7554,-4.7932,-4.7428,-4.8623,-4.9981,-5.0778,-5.2027,-5.3096,-5.3621,-5.3929,-5.3693,-5.2625,-5.3204,0.0,0.0,0.0,0.0,-5.7062,-5.6699,-5.6627,-5.717,-5.7188,-5.7188,-5.7188,-5.7188,-5.7188,-5.7188,-5.7188,-5.7112,-5.6925,-5.6662,-5.6383,-5.606,-5.5879,-5.5467,-5.4966,-5.4786,-5.4171,-5.3349,-5.3179,-5.2939,-5.2624,-5.248,-5.2409,-5.2409,-5.2409,-5.226,-5.1829,-1.5394,-1.5652,-1.5772,-1.5441,-1.5657,0.0,0.0,0.0,0.0,0.0,0.0,0.0,0.0,0.0,0.0,0.0,0.0,-2.5038,-2.7596,-2.9114,-3.0491,-3.1802,-3.3515,-3.4655,-3.5098,-3.6419,-3.7243,-3.7513,-3.9024,-3.9966,-4.0338,-4.1348,-4.1837,-4.1888,-4.1822,-4.175,-4.1604,-4.1507,-4.1371,-4.1116,-3.9657,-3.8862,-3.8265,-3.569,-3.3307,0.0,0.0,0.0,0.0,-2.6355,-2.6534,-2.7126,0.0,0.0,0.0,0.0,-3.7186,-4.0225,-4.3376,-4.4784,-4.5825,-4.7627,-4.782,-4.7663,-4.8109,-4.772,-4.712,-4.6613,-4.645,-4.6341,-4.6106,-4.692,-4.817,-4.984,-5.1448,-5.2878,-5.3983,-5.4581,-5.4526,-5.3476,-5.4019,-5.449,0.0,0.0,0.0,-5.7043,-5.6717,-5.6645,-5.717,-5.7188,-5.7188,-5.7188,-5.7188,-5.7188,-5.7188,-5.7188,-5.7112,-5.6951,-5.6662,-5.6383,-5.606,-5.5947,-5.5566,-5.4966,-5.4987,-5.4379,-5.3382,-5.3382,-5.3094,-5.2624,-5.248,-5.2409,-5.2409,-5.2409,-5.2409,-5.2208,-1.5452,-1.6138,-1.6435,0.0,0.0,0.0,0.0,0.0,0.0,0.0,0.0,0.0,0.0,0.0,0.0,0.0,0.0,0.0,-2.6761,-2.7756,0.0,-2.9156,-3.0917,-3.1771,-3.1588,-3.2477,-3.3332,-3.4168,-3.5046,-3.5993,-3.6991,-3.7812,-3.8295,-3.8474,-3.8453,-3.8391,-3.8254,-3.8179,-3.8083,-3.7892,-3.6906,-3.6012,-3.4978,-3.2405,0.0,0.0,0.0,0.0,0.0,0.0,0.0,0.0,0.0,0.0,0.0,0.0,0.0,-4.3634,-4.5314,-4.6372,-4.7516,-4.9812,-4.9749,-4.9083,-4.9029,-4.7728,-4.645,-4.6305,-4.5073,-4.4222,-4.482,0.0,-4.625,-4.9351,-5.1339,-5.3059,-5.4671,-5.4979,-5.5015,0.0,0.0,0.0,0.0,0.0,0.0,-5.708,0.0,-5.7152,-5.7188,-5.7188,-5.7188,-5.7188,-5.7188,-5.7188,-5.7188,-5.7188,-5.7188,-5.7181,-5.6951,-5.6662,-5.6401,-5.606,-5.5496,-5.4741,-5.5234,-5.4852,-5.3879,-5.3879,-5.355,-5.3025,-5.2553,-5.2409,-5.2409,-5.2409,-5.2409,-5.231,0.0,0.0,0.0,0.0,0.0,0.0,0.0,0.0,0.0,0.0,0.0,0.0,0.0,0.0,0.0,0.0,0.0,0.0,-2.5873,-2.681,0.0,0.0,-2.9201,-3.0064,-2.9919,-3.1356,-3.2217,-3.2443,-3.3354,-3.4299,-3.5235,-3.5513,-3.6004,-3.6656,-3.6564,-3.6498,-3.6453,-3.6333,-3.627,-3.6089,0.0,-3.3669,-3.3252,0.0,0.0,0.0,0.0,0.0,0.0,0.0,0.0,0.0,0.0,0.0,-3.7543,0.0,0.0,-4.4583,-4.6097,-4.7974,-4.9609,-5.0107,-4.9604,-4.8792,-4.8194,-4.7249,-4.5834,-4.3406,-4.3081,-4.2557,-4.0419,0.0,0.0,-4.6287,-4.989,0.0,-5.4671,-5.5884,0.0,-5.5794,0.0,-5.6228,-5.6011,-5.6373,0.0,0.0,-5.6627,-5.6573,-5.717,-5.7188,-5.7188,-5.7188,-5.7188,-5.7188,-5.7188,-5.7188,-5.7105,-5.6899,-5.7054,-5.6847,-5.6401,-5.63,-5.5797,-5.4978,-5.4909,-5.4316,-5.3298,-5.3298,-5.3042,-5.257,-5.2445,-5.2409,-5.2409,-5.2409,-5.2409,-5.2393,0.0,0.0,0.0,0.0,0.0,0.0,0.0,0.0,0.0,0.0,0.0,0.0,0.0,0.0,0.0,0.0,0.0,0.0,0.0,-2.6149,-2.6399,-2.6326,-2.7298,-2.7764,-2.7634,-2.8951,-2.9643,-2.9648,0.0,0.0,-3.2407,-3.2802,-3.3241,-3.3707,-3.3645,-3.3613,-3.3607,-3.3483,0.0,0.0,0.0,0.0,0.0,0.0,0.0,0.0,0.0,0.0,0.0,0.0,0.0,-3.5615,-3.68,-3.8664,-4.0693,-4.2006,0.0,-4.6387,-4.7875,-4.9567,-5.0856,-5.0729,-4.9789,-4.8493,-4.6993,-4.549,-4.3479,-4.0293,-3.9985,0.0,-3.6598,-3.9351,0.0,0.0,0.0,0.0,-5.411,-5.5993,-5.7025,0.0,-5.6935,0.0,-5.6573,-5.6935,-5.7188,0.0,-5.6772,-5.6717,-5.717,-5.7188,-5.7188,-5.7188,-5.7188,-5.7188,-5.7188,-5.7188,-5.7112,-5.6977,-5.713,-5.6977,-5.6573,-5.6437,-5.5911,-5.5082,0.0,-5.4074,-5.3111,-5.3111,-5.2835,-5.2409,-5.2409,-5.2409,-5.2409,-5.2409,-5.2409,-5.2409,0.0,0.0,0.0,0.0,0.0,0.0,0.0,0.0,0.0,0.0,0.0,0.0,0.0,0.0,0.0,0.0,0.0,0.0,0.0,0.0,-2.5679,-2.5611,-2.5653,-2.5639,-2.5515,-2.6298,-2.6712,0.0,0.0,0.0,0.0,0.0,0.0,0.0,0.0,0.0,0.0,0.0,0.0,0.0,0.0,0.0,0.0,0.0,0.0,0.0,0.0,0.0,0.0,0.0,-3.6522,-3.8695,-4.1089,-4.308,-4.4746,-4.5753,-4.6989,-4.8413,-4.9952,-5.0987,-5.1605,-5.1366,-5.009,-4.8242,-4.5725,-4.3261,-4.0619,-3.7357,0.0,-3.5854,-3.3647,-3.6435,-3.9695,-4.156,0.0,-5.085,-5.3494,-5.5703,-5.708,-5.7188,-5.7188,-5.7188,-5.7188,-5.7188,-5.7188,-5.7188,-5.7188,-5.7188,-5.7188,-5.7188,-5.7188,-5.7188,-5.7188,-5.7188,-5.7188,-5.7188,-5.7188,-5.7188,-5.7188,-5.7079,-5.6794,-5.6573,-5.5968,-5.5142,0.0,0.0,-5.3264,-5.3264,-5.2957,-5.2499,-5.2499,-5.2445,-5.2409,-5.2409,-5.2409,-5.2409,0.0,0.0,0.0,0.0,0.0,0.0,0.0,0.0,0.0,0.0,0.0,0.0,0.0,0.0,0.0,0.0,0.0,0.0,0.0,0.0,0.0,-2.5681,-2.5644,-2.5605,-2.5589,0.0,0.0,0.0,0.0,0.0,0.0,0.0,0.0,0.0,0.0,0.0,0.0,0.0,0.0,0.0,0.0,0.0,0.0,0.0,0.0,0.0,0.0,0.0,0.0,0.0,-3.9293,-4.2455,-4.3304,-4.4373,-4.5634,-4.7286,-4.8302,-4.9231,-5.0769,-5.1809,-5.2223,-5.1493,-5.009,-4.8098,-4.5001,-4.2448,0.0,0.0,-3.4498,-3.3683,-3.2614,-3.515,-3.8571,-4.2122,0.0,0.0,0.0,0.0,-5.6446,0.0,0.0,0.0,0.0,0.0,0.0,0.0,0.0,-5.7188,-5.7188,-5.7188,-5.7188,-5.7188,-5.7188,-5.7188,-5.7188,-5.7188,-5.7188,-5.7188,-5.7188,-5.7079,-5.6794,-5.6742,-5.6302,-5.5496,-5.5455,0.0,-5.4168,-5.4168,-5.3681,-5.2991,-5.2991,-5.2747,-5.2409,-5.2409,-5.2409,-5.2409,0.0,0.0,0.0,0.0,0.0,0.0,0.0,0.0,0.0,0.0,-2.5115,-2.498,0.0,0.0,0.0,0.0,0.0,0.0,0.0,0.0,0.0,0.0,0.0,0.0,0.0,0.0,0.0,0.0,0.0,0.0,0.0,0.0,0.0,0.0,0.0,0.0,0.0,0.0,0.0,0.0,0.0,0.0,0.0,0.0,0.0,0.0,0.0,0.0,0.0,0.0,-3.812,-4.1879,-4.3886,-4.4964,-4.5832,-4.7531,-4.8548,-4.9428,-5.0943,-5.1964,-5.2295,-5.1004,-4.9474,-4.7207,-4.3154,0.0,0.0,0.0,-3.2125,-3.151,-2.9463,0.0,0.0,0.0,0.0,0.0,0.0,0.0,0.0,0.0,0.0,0.0,0.0,0.0,0.0,0.0,0.0,-5.7188,-5.7188,-5.7188,-5.7188,-5.7188,-5.7188,-5.7188,-5.7188,-5.7188,-5.7188,-5.7188,-5.7188,-5.7112,-5.6984,-5.6873,-5.6447,-5.5794,-5.5669,0.0,-5.462,-5.462,-5.4166,-5.3516,-5.3516,-5.3179,-5.264,-5.2535,-5.2499,-5.2499,0.0,0.0,0.0,0.0,0.0,0.0,0.0,-2.2739,-2.4069,-2.6006,-2.6694,-2.6815,-2.6308,-2.6094,0.0,0.0,0.0,0.0,0.0,0.0,0.0,0.0,0.0,0.0,0.0,0.0,0.0,0.0,0.0,0.0,0.0,0.0,0.0,0.0,0.0,0.0,0.0,0.0,0.0,0.0,0.0,0.0,0.0,0.0,0.0,0.0,0.0,0.0,0.0,0.0,-3.5651,-3.8909,-4.2276,-4.4179,-4.552,-4.7155,-4.8299,-4.9404,-5.0895,-5.1937,-5.2182,-5.0532,-4.8894,-4.645,-4.1596,-3.8554,0.0,0.0,-3.0165,-2.9608,-2.7598,0.0,-3.4425,0.0,-3.9985,0.0,0.0,0.0,0.0,0.0,0.0,0.0,0.0,0.0,0.0,0.0,0.0,0.0,-5.7188,-5.7188,-5.7188,-5.7188,-5.7188,-5.7188,-5.7188,-5.7188,-5.7188,-5.7188,-5.7188,-5.7188,-5.7188,-5.6977,-5.6661,-5.624,-5.6037,0.0,0.0,-5.5089,-5.4651,-5.4025,-5.3912,-5.3483,-5.2868,-5.2729,-5.2659,-5.2624,0.0,0.0,0.0,0.0,0.0,0.0,0.0,-2.3246,-2.5181,-2.7725,-2.7435,-2.7263,-2.7988,-2.7343,0.0,0.0,0.0,0.0,0.0,0.0,0.0,0.0,0.0,0.0,0.0,0.0,0.0,0.0,0.0,0.0,0.0,0.0,0.0,0.0,0.0,0.0,0.0,0.0,0.0,0.0,0.0,0.0,0.0,0.0,0.0,0.0,0.0,0.0,0.0,0.0,0.0,-3.3808,-3.6924,-4.0831,-4.4569,-4.6301,0.0,0.0,-5.0868,-5.1905,-5.2123,-5.051,-4.8894,-4.645,-4.1596,0.0,0.0,-3.1582,-2.921,-2.8323,-3.0206,-3.0966,-3.3013,0.0,0.0,-4.3788,0.0,0.0,0.0,0.0,0.0,0.0,0.0,0.0,0.0,0.0,0.0,0.0,-5.7188,-5.7188,-5.7188,-5.7188,-5.7188,-5.7188,-5.7188,-5.7188,-5.7188,-5.7188,-5.7188,-5.7188,-5.7188,-5.7163,-5.7138,-5.7069,-5.7043,0.0,0.0,-5.6035,-5.529,-5.4482,-5.3929,-5.3366,-5.2903,-5.2868,-5.2868,-5.2834,0.0,0.0,0.0,0.0,0.0,0.0,0.0,-2.3188,-2.4556,-2.7175,-2.722,-2.7126,-2.748,-2.7207,-2.6658,0.0,0.0,0.0,0.0,0.0,0.0,0.0,0.0,0.0,0.0,0.0,0.0,0.0,0.0,0.0,0.0,0.0,0.0,0.0,0.0,0.0,0.0,0.0,0.0,0.0,0.0,0.0,0.0,0.0,0.0,0.0,0.0,0.0,0.0,0.0,0.0,0.0,-3.3214,-3.6098,0.0,0.0,-4.5129,-4.7083,-4.8695,-5.0071,-5.0778,-4.9655,-4.817,-4.5852,-4.1488,0.0,-3.4881,-3.1655,-2.9083,-2.7984,-2.9929,-2.9481,-3.0677,-3.6274,-3.6924,-3.8989,-4.5562,0.0,0.0,0.0,0.0,0.0,0.0,0.0,0.0,0.0,0.0,0.0,0.0,-5.7188,-5.7188,-5.7188,-5.7188,-5.7188,-5.7188,-5.7188,-5.7188,-5.7188,-5.7188,-5.7188,-5.7188,-5.7188,-5.7188,-5.7188,-5.7188,0.0,0.0,-5.6229,-5.5467,-5.4468,-5.4218,-5.3782,-5.3246,-5.3127,-5.3076,-5.3041,0.0,0.0,0.0,0.0,0.0,0.0,-2.2366,-2.3149,-2.4321,-2.6684,-2.7004,-2.7008,-2.7009,-2.6777,-2.6365,-2.5759,0.0,0.0,0.0,0.0,0.0,0.0,0.0,0.0,0.0,0.0,0.0,0.0,0.0,0.0,0.0,0.0,0.0,0.0,0.0,0.0,0.0,0.0,0.0,0.0,0.0,0.0,0.0,0.0,0.0,0.0,0.0,0.0,0.0,0.0,0.0,0.0,0.0,0.0,0.0,0.0,-4.2538,-4.4928,-4.6558,-4.8152,-4.9202,-4.8405,-4.6993,-4.4802,0.0,-3.7723,-3.4534,-3.1324,-2.8902,-2.7749,-2.8884,-2.854,-2.9572,-3.4009,-3.4588,-3.6635,-4.2864,0.0,0.0,0.0,0.0,0.0,0.0,0.0,0.0,0.0,0.0,0.0,0.0,-5.7188,-5.7188,-5.7188,-5.7188,-5.7188,-5.7188,-5.7188,-5.7188,-5.7188,-5.7188,-5.7188,-5.7188,-5.7188,-5.7188,-5.7188,0.0,0.0,0.0,-5.6118,-5.5396,-5.4391,-5.4203,-5.3865,-5.3467,-5.3348,-5.3298,-5.3264,0.0,0.0,0.0,0.0,0.0,0.0,0.0,-2.3284,-2.5023,-2.6762,-2.7,-2.7004,-2.7007,-2.623,-2.5703,-2.57,0.0,0.0,0.0,0.0,0.0,0.0,0.0,0.0,0.0,0.0,-2.6996,-2.6996,0.0,0.0,0.0,0.0,0.0,0.0,0.0,0.0,0.0,0.0,0.0,0.0,0.0,0.0,0.0,0.0,0.0,0.0,0.0,0.0,0.0,0.0,0.0,0.0,0.0,-2.9787,-3.2013,0.0,-4.0473,-4.3262,-4.4892,-4.6504,-4.7536,-4.6739,-4.5327,-4.3299,0.0,-3.6924,-3.3701,-3.0473,-2.8522,-2.7405,-2.7423,-2.8703,-3.0328,-3.1962,-3.4911,-3.8354,-4.2358,0.0,0.0,0.0,0.0,0.0,0.0,0.0,0.0,0.0,0.0,0.0,0.0,-5.7188,-5.7188,-5.7188,-5.7188,-5.7188,-5.7188,-5.7188,-5.7188,-5.7188,-5.7188,-5.7188,-5.7188,-5.7188,-5.7188,0.0,0.0,0.0,0.0,-5.5647,-5.5009,-5.4328,-5.375,-5.3501,-5.3501,-5.3501,-5.3501,-5.3467,0.0,0.0,0.0,0.0,0.0,0.0,0.0,-2.1771,-2.2623,-2.4925,-2.4695,-2.4798,-2.5973,-2.5878,-2.5703,-2.57,0.0,0.0,0.0,0.0,0.0,0.0,0.0,0.0,0.0,0.0,-2.7574,-2.8773,-2.9591,-2.9991,0.0,0.0,0.0,0.0,0.0,0.0,0.0,0.0,0.0,0.0,0.0,0.0,0.0,0.0,0.0,0.0,0.0,0.0,0.0,0.0,0.0,0.0,0.0,0.0,0.0,-3.2683,-3.6325,-3.9803,-4.031,-4.1596,-4.2484,-4.1144,-4.0437,-3.9224,-3.6019,-3.4081,-3.2053,-2.883,-2.6892,-2.6246,-2.793,-2.7743,-2.9119,-3.4585,-3.5874,0.0,0.0,0.0,0.0,0.0,0.0,0.0,0.0,0.0,0.0,0.0,0.0,0.0,0.0,-5.7188,-5.7188,-5.7188,-5.7188,-5.7188,-5.7188,-5.7188,-5.7188,-5.7188,-5.7188,-5.7188,-5.7188,-5.7188,0.0,0.0,0.0,0.0,0.0,-5.5473,-5.4769,-5.375,-5.3584,-5.3501,-5.3501,-5.3501,-5.3501,-5.3501,0.0,0.0,0.0,0.0,0.0,0.0,0.0,-2.1334,-2.1743,-2.3656,-2.3718,-2.3996,-2.5094,-2.5507,-2.5703,-2.57,0.0,0.0,0.0,0.0,0.0,0.0,0.0,0.0,0.0,-2.6551,-2.7836,-2.9556,-3.0393,-3.1098,-3.1643,-3.1643,-3.0728,0.0,0.0,0.0,0.0,0.0,0.0,0.0,0.0,0.0,-2.8811,0.0,0.0,0.0,0.0,0.0,0.0,0.0,0.0,0.0,0.0,0.0,0.0,0.0,-3.2198,-3.531,-3.6508,-3.7757,-3.8483,-3.7522,-3.7069,-3.6236,-3.3936,-3.2542,-3.0912,-2.8002,-2.6355,-2.5914,-2.7423,-2.7369,-2.8884,-3.4314,-3.5783,0.0,0.0,0.0,0.0,0.0,0.0,0.0,0.0,0.0,0.0,0.0,0.0,0.0,0.0,0.0,-5.7188,-5.7188,-5.7188,-5.7188,-5.7188,-5.7188,-5.7188,-5.7188,-5.7188,-5.7188,-5.7188,-5.7188,0.0,0.0,0.0,0.0,0.0,-5.5099,-5.4443,-5.3501,-5.3501,-5.3501,-5.3501,-5.3501,-5.3501,-5.3501,0.0,0.0,0.0,0.0,0.0,0.0,0.0,0.0,0.0,0.0,-2.3714,-2.4265,-2.4391,-2.5172,-2.5702,0.0,0.0,0.0,0.0,0.0,0.0,0.0,0.0,0.0,-2.5612,-2.6585,-2.792,-2.9593,-3.0587,-3.1852,-3.3372,-3.3427,-3.2462,-3.0632,0.0,0.0,0.0,0.0,0.0,0.0,0.0,-2.8798,0.0,0.0,0.0,0.0,0.0,0.0,0.0,0.0,0.0,0.0,0.0,0.0,0.0,0.0,0.0,0.0,0.0,-3.4754,-3.5424,-3.5315,-3.4769,-3.4027,-3.3176,-3.1854,0.0,-2.7785,-2.6663,-2.6204,-2.6493,-2.7713,-2.9577,-3.2343,0.0,0.0,0.0,0.0,0.0,0.0,0.0,0.0,0.0,0.0,0.0,0.0,0.0,0.0,0.0,0.0,-5.7188,-5.7188,-5.7188,-5.7188,-5.7188,-5.7188,-5.7188,-5.7188,-5.7188,-5.7188,-5.7188,-5.7188,0.0,0.0,0.0,0.0,0.0,-5.4717,-5.4091,-5.3501,-5.3501,-5.3501,-5.3501,-5.3501,-5.3501,-5.3501,0.0,0.0,0.0,0.0,0.0,0.0,0.0,0.0,0.0,0.0,0.0,-2.2977,-2.4254,-2.5172,0.0,0.0,0.0,0.0,0.0,0.0,0.0,0.0,0.0,0.0,-2.4712,-2.6823,-2.8762,-3.049,-3.2649,-3.416,-3.5049,-3.5728,-3.4734,-3.2345,-3.0815,-2.8491,0.0,0.0,0.0,0.0,-2.8745,-2.8913,0.0,0.0,0.0,0.0,-2.6255,-2.664,0.0,0.0,0.0,0.0,0.0,0.0,0.0,0.0,-2.6747,-2.7345,-2.8708,0.0,-3.1836,-3.0591,-3.0622,-3.055,0.0,-2.898,-2.8654,-2.6844,-2.5842,-2.6222,-2.93,-2.9694,-3.1492,-3.7576,0.0,0.0,0.0,0.0,0.0,0.0,0.0,0.0,0.0,0.0,0.0,0.0,0.0,0.0,0.0,-5.7188,-5.7188,-5.7188,-5.7188,-5.7188,-5.7188,-5.7188,-5.7188,-5.7188,-5.7188,-5.7188,-5.7188,-5.7188,0.0,0.0,0.0,0.0,-5.5367,-5.5219,-5.4506,-5.3501,-5.3501,-5.3501,-5.3501,-5.3501,-5.3501,-5.3501,0.0,0.0,0.0,0.0,0.0,0.0,0.0,0.0,0.0,0.0,0.0,0.0,0.0,0.0,0.0,0.0,0.0,0.0,0.0,0.0,0.0,0.0,0.0,-2.4885,-2.4407,-2.6492,-2.8634,-3.0745,-3.247,-3.4286,-3.6143,-3.6186,-3.5244,-3.339,-3.0513,-2.8029,0.0,0.0,0.0,0.0,-2.8479,0.0,0.0,0.0,0.0,0.0,-2.5324,-2.5685,0.0,-2.6271,-2.7078,-2.7955,0.0,0.0,0.0,0.0,-2.566,-2.5823,-2.6627,-2.8884,-3.0876,-3.0387,-3.0586,-3.0672,-2.9807,-2.907,-2.8256,-2.7007,-2.6699,-2.7544,-3.0459,-3.1261,0.0,0.0,0.0,0.0,0.0,0.0,0.0,0.0,0.0,0.0,0.0,0.0,0.0,0.0,0.0,0.0,0.0,-5.7188,-5.7188,-5.7188,-5.7188,-5.7188,-5.7188,-5.7188,-5.7188,-5.7188,-5.7188,-5.7188,-5.7188,-5.7188,-5.7188,0.0,0.0,0.0,-5.5762,-5.5189,-5.4534,-5.3898,-5.3618,-5.3501,-5.3501,-5.3501,-5.3501,-5.3501,0.0,0.0,0.0,0.0,0.0,0.0,0.0,0.0,0.0,0.0,0.0,0.0,0.0,0.0,0.0,0.0,0.0,0.0,0.0,0.0,0.0,0.0,0.0,-2.4528,-2.4783,-2.6289,-2.8317,-3.0874,-3.1882,-3.3879,-3.6755,-3.6234,-3.5172,-3.3541,-2.974,-2.7509,0.0,0.0,0.0,0.0,0.0,0.0,0.0,0.0,0.0,0.0,0.0,0.0,0.0,-2.5754,-2.6518,-2.7333,-2.6971,0.0,0.0,0.0,0.0,0.0,-2.6403,-2.9023,-3.1447,-3.1759,-3.2198,-3.2506,-3.2252,0.0,0.0,0.0,0.0,-2.9608,-3.1737,-3.3172,0.0,0.0,0.0,0.0,0.0,0.0,0.0,0.0,0.0,0.0,0.0,0.0,0.0,0.0,0.0,0.0,0.0,-5.7188,-5.7188,-5.7188,-5.7188,-5.7188,-5.7188,-5.7188,-5.7188,-5.7188,-5.7188,-5.7188,-5.7188,-5.7188,-5.7188,0.0,0.0,0.0,-5.6229,-5.5142,-5.4579,-5.4359,-5.3832,-5.3584,-5.3501,-5.3501,-5.3501,-5.3501,0.0,0.0,0.0,0.0,0.0,0.0,0.0,0.0,0.0,0.0,0.0,0.0,0.0,0.0,0.0,0.0,0.0,0.0,0.0,0.0,0.0,-2.3093,-2.3931,-2.5052,-2.6492,-2.7381,-2.9113,-3.1717,-3.3879,-3.5502,-3.6652,-3.7989,-3.6216,-3.1809,-2.9743,-2.7978,-2.6579,0.0,0.0,0.0,0.0,0.0,0.0,0.0,0.0,0.0,0.0,0.0,0.0,-2.4473,-2.5606,-2.7043,-2.5009,0.0,0.0,0.0,0.0,0.0,-2.8299,-3.1143,-3.2637,-3.0649,-3.2216,-3.3882,-3.2506,-3.1908,-3.1818,0.0,0.0,0.0,0.0,-3.6787,0.0,0.0,0.0,0.0,0.0,0.0,0.0,0.0,0.0,0.0,0.0,0.0,0.0,0.0,0.0,0.0,0.0,0.0,-5.7188,-5.7188,-5.7188,-5.7188,-5.7188,-5.7188,-5.7188,-5.7188,-5.7188,-5.7188,-5.7188,-5.7188,-5.7188,0.0,0.0,-5.6785,-5.6284,-5.6101,-5.5379,-5.4391,-5.4313,-5.3946,-5.3501,-5.3501,-5.3501,-5.3501,0.0,0.0,0.0,0.0,0.0,0.0,0.0,0.0,0.0,0.0,0.0,0.0,0.0,0.0,0.0,0.0,0.0,0.0,0.0,0.0,0.0,-2.5156,-2.5109,-2.5638,-2.6878,-2.8546,-3.0677,-3.3253,-3.4724,-3.6089,-3.7287,-3.6673,-3.4385,-3.0724,-2.9079,-2.7928,-2.7238,-2.7585,-2.8007,-2.8358,0.0,0.0,0.0,0.0,0.0,0.0,0.0,0.0,0.0,0.0,-2.5479,-2.6482,-2.4936,0.0,0.0,0.0,0.0,0.0,-2.7109,-2.9955,-3.2087,-3.1865,-3.4563,-3.7103,-3.6373,-3.5226,-3.4408,0.0,0.0,0.0,0.0,0.0,0.0,0.0,0.0,0.0,0.0,0.0,0.0,0.0,0.0,0.0,0.0,0.0,0.0,0.0,0.0,0.0,0.0,0.0,-5.7264,-5.7188,-5.7188,-5.7188,-5.7188,-5.7188,-5.7188,-5.7188,-5.7188,-5.7188,-5.7188,-5.7188,-5.7188,-5.7188,0.0,-5.7036,-5.6758,-5.642,-5.5943,-5.5349,-5.4655,-5.4218,-5.3946,-5.3618,-5.3501,-5.3501,0.0,0.0,0.0,0.0,0.0,0.0,0.0,0.0,0.0,0.0,0.0,0.0,0.0,0.0,0.0,0.0,0.0,0.0,0.0,0.0,-2.4607,-2.6596,-2.6355,-2.6773,-2.8045,-2.9907,-3.2106,-3.464,-3.5313,-3.6217,-3.7221,-3.5224,-3.2699,-2.9837,-2.8606,-2.7948,-2.7776,-2.7726,-2.8096,-2.8638,0.0,0.0,0.0,0.0,0.0,0.0,0.0,0.0,0.0,0.0,0.0,0.0,0.0,0.0,0.0,-2.4719,-2.423,-2.4567,-2.6741,-2.9145,-3.1561,-3.384,-3.6726,-3.9221,-4.0002,-3.8504,-3.7189,-3.8138,0.0,0.0,0.0,0.0,0.0,0.0,0.0,0.0,0.0,0.0,0.0,0.0,0.0,0.0,0.0,0.0,0.0,0.0,0.0,0.0,0.0,0.0,-5.7388,-5.7307,-5.7264,-5.7257,-5.7257,-5.7232,-5.7188,-5.7188,-5.7188,-5.7188,-5.7188,-5.7188,-5.7188,-5.7188,-5.7188,-5.7188,-5.7163,-5.6706,-5.642,-5.6184,-5.5231,-5.4747,-5.4579,-5.4126,-5.3948,-5.3948,0.0,0.0,0.0,0.0,0.0,0.0,0.0,0.0,0.0,0.0,0.0,0.0,0.0,0.0,0.0,0.0,0.0,0.0,0.0,0.0,-2.558,-2.5703,-2.7134,-2.9052,-3.1483,-3.1593,-3.2832,-3.5331,-3.6066,-3.6077,-3.539,-3.519,-3.2917,-2.8994,-2.886,-2.8408,-2.7708,-2.7701,-2.774,-2.7797,-2.774,0.0,0.0,0.0,0.0,0.0,0.0,0.0,0.0,0.0,0.0,0.0,0.0,0.0,-2.6186,-2.6059,-2.5497,-2.5762,-2.9673,-3.0924,-3.2051,-3.6017,-3.7145,-3.8083,-4.1225,-4.0603,-4.0422,-4.4236,0.0,0.0,0.0,0.0,0.0,0.0,0.0,0.0,0.0,0.0,0.0,0.0,0.0,0.0,0.0,0.0,0.0,0.0,0.0,0.0,0.0,0.0,0.0,-5.7577,-5.7437,-5.7406,-5.7406,-5.7264,-5.7188,-5.7188,-5.7188,-5.7188,-5.7188,-5.7188,-5.7188,-5.7188,-5.7188,-5.7188,-5.7206,-5.7138,-5.6811,-5.6284,-5.6201,-5.5819,-5.5325,-5.5284,-5.5266,-5.5266,0.0,0.0,0.0,0.0,0.0,0.0,0.0,0.0,0.0,0.0,0.0,0.0,0.0,0.0,0.0,0.0,0.0,0.0,0.0,-2.5182,-2.5343,-2.6361,-2.6456,-2.7669,-3.0177,-3.1644,-3.3627,-3.6154,-3.584,-3.5526,-3.5171,-3.3624,-3.1771,-2.9688,-2.9147,-2.872,-2.8421,-2.7905,-2.7701,-2.7644,-2.7109,-2.6168,0.0,0.0,0.0,0.0,0.0,0.0,0.0,0.0,-2.4614,-2.4972,-2.4773,-2.5045,-2.5461,-2.5461,-2.4882,-2.494,-2.8028,-2.9955,-3.1992,-3.5678,-3.7326,-3.8903,-4.2221,-4.3246,-4.4235,-4.6799,-4.6836,0.0,0.0,0.0,0.0,0.0,0.0,0.0,0.0,0.0,0.0,0.0,0.0,0.0,0.0,0.0,0.0,0.0,0.0,0.0,0.0,0.0,0.0,-5.7601,-5.7553,-5.751,-5.751,-5.7388,-5.7313,-5.7313,-5.7239,-5.7188,-5.7188,-5.7188,-5.7188,-5.7188,-5.7188,-5.7188,-5.7188,-5.7188,-5.7061,-5.6811,-5.6447,-5.5932,-5.5385,-5.5385,-5.5385,-5.5385,0.0,0.0,0.0,0.0,0.0,0.0,0.0,0.0,0.0,0.0,0.0,0.0,0.0,0.0,0.0,0.0,0.0,0.0,-2.5692,-2.5142,-2.5186,-2.6044,-2.594,-2.6664,-2.8342,-3.0746,-3.3091,-3.5373,-3.5001,-3.456,-3.3987,-3.2286,-3.1026,-3.0166,-2.9299,-2.9051,-2.9242,-2.8153,-2.7701,-2.7619,-2.6702,-2.5825,0.0,0.0,0.0,0.0,0.0,0.0,0.0,0.0,-2.4396,-2.461,-2.4574,-2.4755,-2.5045,-2.5298,-2.5357,-2.5771,-2.7755,-3.0048,-3.2598,-3.5502,-3.7806,-4.0223,-4.3498,-4.5112,-4.6581,-4.8967,-4.9058,-4.8765,-4.904,0.0,0.0,0.0,0.0,0.0,0.0,0.0,0.0,0.0,0.0,0.0,0.0,0.0,0.0,0.0,0.0,0.0,0.0,0.0,0.0,0.0,-5.7697,-5.7673,-5.7673,-5.7528,-5.7461,-5.748,-5.7332,-5.7239,-5.7188,-5.7188,-5.7188,-5.7188,-5.7188,-5.7188,-5.7188,-5.7188,-5.7188,-5.7163,-5.6758,-5.6321,-5.5961,-5.5961,-5.5961,-5.5961,0.0,0.0,0.0,0.0,0.0,0.0,0.0,0.0,0.0,0.0,0.0,0.0,0.0,0.0,0.0,0.0,0.0,0.0,-2.5707,-2.5687,-2.5282,-2.4354,-2.5828,-2.6656,-2.6586,-2.8932,-3.0997,-3.2699,-3.3547,-3.3108,-3.1484,-3.1484,-3.1026,-3.0147,-2.9299,-2.9395,-3.0051,-2.8408,-2.7695,-2.7593,-2.6602,-2.5593,-2.4665,0.0,0.0,0.0,0.0,0.0,0.0,0.0,-2.4508,-2.4067,-2.5679,-2.566,-2.5172,-2.5968,-2.7368,-2.8889,-2.9745,-3.1772,-3.4059,-3.5871,-3.8698,-4.1907,-4.5186,-4.592,-4.7095,-5.1169,-5.0674,-4.9793,-5.0655,0.0,0.0,0.0,0.0,0.0,0.0,0.0,0.0,0.0,0.0,0.0,0.0,0.0,0.0,0.0,0.0,0.0,0.0,0.0,0.0,0.0,-5.7862,-5.7792,-5.7792,-5.7673,-5.7601,-5.7601,-5.748,-5.7313,-5.7188,-5.7188,-5.7188,-5.7188,-5.7188,-5.7188,-5.7188,-5.7188,-5.7188,-5.7188,-5.7188,-5.7188,-5.7188,-5.7188,-5.7188,-5.7188,0.0,0.0,0.0,0.0,0.0,0.0,0.0,0.0,0.0,0.0,0.0,0.0,0.0,0.0,0.0,0.0,0.0,0.0,-2.5707,-2.5086,-2.4867,-2.5204,-2.4994,-2.5131,-2.5668,-2.6889,-2.895,-3.1866,-3.1503,-3.1071,-3.0586,-3.0586,-3.0128,-2.9338,-3.0254,-2.9754,-2.8208,-2.7853,-2.7287,-2.6628,-2.6422,-2.5728,-2.4875,0.0,0.0,0.0,0.0,0.0,0.0,0.0,0.0,0.0,-2.4357,-2.5516,-2.6512,-2.5669,-2.6957,-2.8711,-2.9107,-3.1811,0.0,-3.7701,0.0,0.0,0.0,-4.82,0.0,0.0,-5.1995,-5.1334,-5.1591,0.0,0.0,0.0,0.0,0.0,0.0,0.0,0.0,0.0,0.0,0.0,0.0,0.0,0.0,0.0,0.0,0.0,0.0,0.0,0.0,0.0,-5.7973,-5.795,-5.795,-5.7792,-5.7745,-5.7745,-5.7601,-5.7461,-5.7356,-5.7239,-5.7188,-5.7188,-5.7188,-5.7188,-5.7188,-5.7188,-5.7188,-5.7188,-5.7188,-5.7188,-5.7188,-5.7188,-5.7188,-5.7188,0.0,0.0,0.0,0.0,0.0,0.0,0.0,0.0,0.0,0.0,-2.5694,-2.5698,0.0,0.0,0.0,0.0,0.0,0.0,0.0,-2.5155,-2.4908,-2.507,-2.4775,-2.498,-2.5761,-2.6521,-2.7759,-2.9478,-2.9287,-2.9363,-2.9688,-3.0032,-3.028,-3.0438,-3.1095,-3.0524,-2.8972,-2.8089,-2.7291,-2.6645,-2.6332,-2.5799,-2.5219,0.0,0.0,0.0,0.0,0.0,0.0,0.0,0.0,0.0,-2.3827,-2.4842,-2.6021,-2.6077,-2.7791,-2.9975,-3.1417,-3.4293,0.0,-4.0405,-4.3523,-4.6636,-4.9436,0.0,0.0,0.0,0.0,-5.2087,0.0,0.0,0.0,0.0,0.0,0.0,0.0,0.0,0.0,0.0,0.0,0.0,0.0,0.0,0.0,0.0,0.0,0.0,0.0,0.0,0.0,0.0,-5.7207,-5.7042,-5.7042,-5.6974,-5.6928,-5.691,-5.6794,-5.67,-5.6624,-5.714,-5.7332,-5.7282,-5.7213,-5.7188,-5.7188,-5.7188,-5.7188,-5.7188,-5.7188,-5.7188,-5.7188,-5.7188,-5.7188,-5.7188,0.0,0.0,-2.0785,-2.0915,0.0,0.0,0.0,0.0,0.0,-2.5694,-2.5698,-2.5702,0.0,0.0,0.0,-2.5694,0.0,0.0,0.0,0.0,-2.524,-2.4433,-2.5112,-2.5856,-2.6584,-2.7255,-2.7186,-2.6402,-2.7186,-2.8001,-2.8815,-2.9688,-3.0892,-3.2317,-3.161,-3.119,-3.087,-2.8541,-2.7411,-2.7089,-2.6247,-2.5745,-2.5522,-2.5379,0.0,0.0,0.0,0.0,0.0,0.0,0.0,0.0,-2.3886,-2.4042,-2.4634,-2.677,-2.9296,-3.2059,-3.5058,-3.7863,-4.0609,-4.3351,-4.5253,0.0,-5.1327,-5.2189,-5.2351,-5.3083,0.0,0.0,0.0,0.0,0.0,0.0,0.0,0.0,0.0,0.0,0.0,0.0,0.0,0.0,0.0,0.0,0.0,0.0,0.0,0.0,0.0,0.0,0.0,0.0,-5.5978,-5.5614,-5.5614,-5.5614,-5.5614,0.0,-5.5463,-5.5418,-5.5473,-5.6779,-5.7292,-5.7194,-5.7071,-5.7014,-5.7014,-5.6996,-5.6996,-5.7014,-5.6989,-5.6989,-5.6989,-5.7062,-5.708,-5.7098,0.0,0.0,-2.2763,-2.3455,0.0,0.0,0.0,0.0,-2.5694,-2.5694,-2.5701,-2.5703,-2.5703,-2.5702,0.0,-2.5694,-2.5658,0.0,0.0,0.0,-2.5351,-2.5167,-2.5861,-2.6627,-2.7421,-2.6943,-2.6593,-2.6402,-2.6593,-2.7128,-2.7981,-2.8803,-2.9376,-2.9732,-3.0242,-2.9308,-2.7298,-2.6759,-2.6093,-2.5456,-2.5781,-2.5559,-2.5088,-2.5472,-2.506,0.0,0.0,0.0,0.0,0.0,0.0,0.0,-2.3896,-2.5205,-2.6597,-2.599,-2.8821,-3.2333,-3.3148,-3.6708,0.0,0.0,-4.7454,-5.1045,-5.3286,-5.3554,-5.3381,0.0,0.0,0.0,0.0,0.0,0.0,0.0,0.0,0.0,0.0,0.0,0.0,0.0,0.0,0.0,0.0,0.0,0.0,0.0,0.0,0.0,0.0,0.0,0.0,-5.5849,-5.5684,-5.5614,-5.5614,-5.5614,-5.5614,0.0,-5.557,-5.557,-5.5548,-5.5651,-5.57,-5.5676,-5.5653,-5.5629,-5.5629,-5.5534,-5.5468,-5.5462,-5.5402,-5.5395,-5.5468,-5.6029,-5.6247,-5.6337,0.0,0.0,0.0,0.0,0.0,0.0,0.0,0.0,-2.5698,-2.57,-2.5703,-2.5703,-2.5702,-2.57,0.0,0.0,-2.5621,-2.5598,0.0,0.0,-2.5382,-2.5355,-2.6082,-2.6316,-2.5885,-2.6217,-2.6001,-2.5199,-2.5625,-2.667,-2.8306,-2.9529,-3.0541,-3.1331,-3.0949,-2.9787,-2.8039,-2.6814,-2.5968,-2.5513,-2.5869,-2.5698,-2.5266,-2.5547,-2.5069,-2.4248,-2.42,0.0,0.0,0.0,0.0,0.0,0.0,0.0,-2.5947,-2.6344,-2.8503,-3.1327,-3.3867,0.0,0.0,-4.5143,0.0,-5.1436,-5.2613,-5.3121,0.0,0.0,0.0,0.0,0.0,0.0,0.0,0.0,0.0,0.0,0.0,0.0,0.0,0.0,0.0,0.0,0.0,0.0,0.0,0.0,0.0,0.0,0.0,-5.5023,-5.5023,-5.5023,-5.4638,-5.4454,-5.4454,-5.4454,-5.4454,-5.4454,-5.4454,-5.4454,-5.4473,-5.5048,-5.5304,-5.5304,-5.5235,-5.5212,-5.5194,-5.5125,-5.5119,-5.5078,-5.5067,-5.5014,-5.4979,-5.5384,-5.5499,-5.5577,0.0,0.0,0.0,0.0,0.0,0.0,0.0,0.0,0.0,-2.5703,-2.5702,-2.57,-2.5677,-2.5671,-2.5657,0.0,0.0,0.0,-2.5489,0.0,0.0,-2.5503,-2.6137,-2.5893,-2.4588,-2.5765,-2.574,-2.4345,-2.5052,-2.6848,-2.9593,-3.0529,-3.1962,-3.37,-3.1981,-3.0739,-2.9822,-2.7396,-2.6199,-2.5939,-2.5875,-2.5731,-2.5526,-2.5464,-2.4985,-2.4303,-2.4257,-2.42,-2.4143,-2.418,0.0,0.0,0.0,0.0,-2.4524,-2.6658,-2.801,-2.9779,-3.4334,0.0,-4.078,-4.688,-4.9309,0.0,-5.1276,0.0,0.0,0.0,0.0,0.0,0.0,0.0,0.0,0.0,0.0,0.0,0.0,0.0,0.0,0.0,0.0,0.0,0.0,0.0,0.0,0.0,0.0,0.0,-5.4197,-5.4197,-5.4197,-5.4197,-5.3555,-5.3185,-5.3185,-5.3185,-5.3185,-5.3185,-5.3185,-5.3185,-5.324,-5.4455,-5.5015,-5.5015,-5.4884,-5.4839,-5.4839,-5.4839,-5.4816,-5.4816,-5.4793,-5.4724,-5.4649,-5.4776,-5.4796,-5.484,0.0,0.0,0.0,0.0,0.0,0.0,0.0,0.0,0.0,0.0,-2.5697,-2.568,-2.5626,-2.5603,-2.5593,-2.5521,-2.5457,-2.5417,0.0,0.0,0.0,-2.6318,-2.6441,-2.6718,-2.7185,-2.6663,-2.6319,-2.6157,-2.621,-2.8313,-3.2235,-3.0187,-3.0529,-3.2795,-3.1102,-2.9886,-2.8943,-2.7048,-2.5888,-2.5291,-2.5,-2.5029,-2.5216,-2.4926,-2.4802,-2.4763,-2.4474,-2.4373,-2.4338,-2.4163,-2.4094,0.0,0.0,0.0,0.0,-2.5391,-2.6778,-2.8422,0.0,0.0,-4.174,0.0,-4.9287,-4.9577,0.0,0.0,0.0,0.0,0.0,0.0,0.0,0.0,0.0,0.0,0.0,0.0,0.0,0.0,0.0,0.0,0.0,0.0,0.0,0.0,0.0,0.0,0.0,0.0,-5.3371,-5.3371,-5.3371,-5.3371,-5.3259,-5.3185,-5.3185,-5.3185,-5.3185,-5.3185,-5.3185,-5.3185,-5.3203,-5.3405,-5.3476,-5.3476,-5.3476,-5.3454,-5.3454,-5.335,-5.3288,-5.3266,-5.3178,-5.3111,-5.3162,-5.3873,-5.4059,-5.4166,0.0,0.0,0.0,0.0,0.0,0.0,0.0,0.0,0.0,0.0,0.0,-2.5626,-2.5595,-2.5564,-2.5526,-2.5441,-2.5425,0.0,0.0,0.0,0.0,0.0,-2.5787,-2.5715,-2.5558,-2.5667,-2.5501,-2.5048,-2.5501,-2.8122,-3.2721,-3.1611,-3.3192,-3.681,-3.3716,-3.1869,-3.0877,-2.7675,-2.5876,-2.518,-2.5044,-2.6147,-2.7667,-2.5594,-2.5985,-2.738,-2.5303,-2.4578,-2.4545,-2.4347,-2.4275,-2.4257,-2.4181,0.0,0.0,0.0,-2.5558,-2.7437,-3.194,-3.6345,-4.0929,0.0,-4.7829,-4.8397,0.0,0.0,0.0,0.0,0.0,0.0,0.0,0.0,0.0,0.0,0.0,0.0,0.0,0.0,0.0,0.0,0.0,0.0,0.0,0.0,0.0,0.0,0.0,-5.3185,-5.3185,-5.3185,-5.3185,-5.3185,-5.3185,-5.3185,-5.3185,-5.3185,-5.3185,-5.3185,-5.3185,-5.3185,-5.3185,-5.3185,-5.3185,-5.3185,-5.3185,-5.3185,-5.3185,-5.3143,-5.3103,-5.3103,-5.3039,-5.2977,-5.2948,-5.3314,-5.3312,-5.3281,0.0,0.0,0.0,0.0,0.0,0.0,0.0,0.0,0.0,0.0,0.0,-2.5572,-2.5543,0.0,0.0,0.0,-2.5251,0.0,0.0,0.0,0.0,0.0,0.0,-2.4908,-2.4235,-2.4862,-2.4881,-2.4235,-2.4881,-2.7905,-3.3061,-3.308,-3.6036,-4.1129,-3.7086,-3.4359,-3.2584,-2.9148,-2.723,-2.6502,-2.6502,-2.7937,-2.9887,-2.8205,-2.9083,-3.0758,-2.7281,-2.6057,-2.5894,-2.4831,-2.4432,-2.4372,0.0,0.0,0.0,0.0,0.0,0.0,0.0,0.0,-3.8265,-4.2876,-4.5165,-4.6374,0.0,0.0,0.0,0.0,0.0,0.0,0.0,0.0,0.0,0.0,0.0,0.0,0.0,0.0,0.0,0.0,0.0,0.0,0.0,0.0,0.0,0.0,0.0,-5.2986,-5.3185,-5.3185,-5.3185,-5.3185,-5.3185,-5.3185,-5.3185,-5.3185,-5.3185,-5.3185,-5.3185,-5.3185,-5.3185,-5.3185,-5.3185,-5.3185,-5.3185,-5.3185,-5.3185,-5.3185,-5.3185,-5.3185,-5.3185,-5.3143,-5.3042,-5.3042,-5.2893,-5.2808,0.0,0.0,0.0,0.0,0.0,0.0,0.0,0.0,0.0,0.0,0.0,-2.5489,-2.5426,-2.5408,-2.5071,-2.4235,-2.488,0.0,0.0,0.0,0.0,0.0,0.0,0.0,-2.513,-2.5181,-2.5181,-2.513,-2.5181,-2.823,-3.4031,-3.3975,-3.7537,-4.3838,-4.0372,-3.6588,-3.2734,-3.1682,-3.077,-3.0037,-3.0037,-3.0126,-3.0625,-3.3681,-3.4966,-3.4637,-3.1024,-2.9718,-2.9205,0.0,-2.4551,-2.4398,-2.4389,-2.4293,-2.419,0.0,0.0,0.0,0.0,-3.0795,0.0,-3.8167,0.0,0.0,0.0,0.0,0.0,0.0,0.0,0.0,0.0,0.0,0.0,0.0,0.0,0.0,0.0,0.0,0.0,0.0,0.0,0.0,0.0,0.0,0.0,0.0,0.0,-5.2399,-5.317,-5.3185,-5.3185,-5.3185,-5.3185,-5.3185,-5.3185,-5.3185,-5.3185,-5.3185,-5.3185,-5.3185,-5.3185,-5.3185,-5.3185,-5.3185,-5.3185,-5.3185,-5.3185,-5.3185,-5.3185,-5.3185,-5.3185,-5.3185,-5.3185,-5.3185,-5.3103,-5.3087,0.0,0.0,0.0,0.0,0.0,0.0,0.0,0.0,0.0,0.0,0.0,0.0,0.0,-2.5467,-2.5321,-2.4968,-2.5153,0.0,0.0,0.0,0.0,0.0,0.0,0.0,-2.5192,-2.525,-2.525,-2.5192,-2.525,-2.7449,-3.1659,-3.2215,-3.4069,-3.6968,-3.7321,-3.7244,-3.6539,-3.1877,-3.0363,-3.1117,-3.1117,-3.2787,-3.524,-3.536,-3.6761,-3.8209,-3.4718,-3.2754,0.0,0.0,0.0,-2.6253,-2.5478,-2.4827,-2.4302,-2.4228,-2.419,0.0,0.0,0.0,0.0,-3.4721,0.0,0.0,0.0,0.0,0.0,0.0,0.0,0.0,0.0,0.0,0.0,0.0,0.0,0.0,0.0,0.0,0.0,0.0,0.0,0.0,0.0,0.0,0.0,0.0,0.0,0.0,-5.1646,-5.1665,-5.1665,-5.1665,-5.1665,-5.1665,-5.1665,-5.1665,-5.1922,-5.2435,-5.2435,-5.2711,-5.3185,-5.3185,-5.3185,-5.3185,-5.3185,-5.3185,-5.3185,-5.3185,-5.3185,-5.3185,-5.3185,-5.3185,-5.3185,-5.3185,-5.3103,-5.3035,0.0,0.0,0.0,-2.5547,0.0,-2.5351,-2.5658,-2.5692,-2.5653,-2.5547,0.0,0.0,0.0,0.0,-2.5476,-2.5418,-2.5099,-2.5,-2.5288,-2.5298,0.0,0.0,0.0,0.0,-2.5228,-2.5252,-2.5252,-2.5222,-2.5252,-2.6858,-2.9909,-3.0497,-3.1661,-3.3337,-3.4162,-3.5775,-3.7625,-3.3676,-3.2493,-3.3358,-3.396,-3.5895,-3.8504,-3.9058,-4.0487,-4.1802,-3.8658,0.0,0.0,0.0,0.0,0.0,-2.7587,-2.5928,-2.4476,-2.4393,-2.433,-2.4736,-2.6872,0.0,0.0,0.0,0.0,0.0,0.0,0.0,0.0,0.0,0.0,0.0,0.0,0.0,0.0,0.0,0.0,0.0,0.0,0.0,0.0,0.0,0.0,0.0,0.0,0.0,0.0,0.0,0.0,0.0,-5.0784,-5.0802,-5.0802,-5.0802,-5.0802,-5.0802,-5.0802,-5.0802,-5.1077,-5.1591,-5.1591,-5.1885,-5.2417,-5.2674,-5.2803,-5.2821,-5.3096,-5.3185,-5.3185,-5.3185,-5.3185,-5.3185,-5.3185,-5.3185,-5.3185,-5.3185,-5.3124,-5.3082,-2.5664,-2.498,-2.4668,-2.5547,-2.5,-2.4727,-2.5566,-2.5698,-2.5683,-2.5612,0.0,0.0,0.0,0.0,0.0,-2.5403,-2.4626,-2.4471,-2.525,-2.5302,0.0,0.0,0.0,0.0,-2.5292,-2.5247,-2.5228,-2.5311,-2.5228,-2.6494,-2.8998,-2.9017,-3.0778,-3.3805,-3.1443,-3.225,-3.5462,-3.6956,-3.7271,-3.6885,-3.8488,-3.9265,-3.9977,-4.4913,-4.6317,-4.5355,-4.2849,-4.1391,0.0,-3.6761,0.0,0.0,-3.0548,-2.7562,-2.4726,-2.47,-2.4569,-2.4444,0.0,0.0,0.0,0.0,0.0,0.0,0.0,0.0,0.0,0.0,0.0,0.0,0.0,0.0,0.0,0.0,0.0,0.0,0.0,0.0,0.0,0.0,0.0,0.0,0.0,0.0,0.0,0.0,0.0,-4.9904,-5.0692,-5.0729,-5.0729,-5.0729,-5.0729,-5.0729,-5.0729,-5.0729,-5.0747,-5.0765,-5.0765,-5.0784,-5.0839,-5.161,-5.1977,-5.2032,-5.2839,-5.3167,-5.3185,-5.3185,-5.3185,-5.3185,-5.3185,-5.3185,-5.3185,-5.3185,-5.3185,-5.3185,-2.4766,-2.457,-2.4668,-2.5547,-2.5508,-2.5429,-2.5657,-2.5708,-2.5672,0.0,0.0,0.0,-2.5643,-2.5529,-2.5495,-2.5476,-2.5157,-2.5058,-2.5288,-2.5298,-2.5298,-2.5298,-2.5288,-2.5288,-2.5298,-2.5288,-2.5283,-2.5311,-2.5283,-2.5648,-2.6367,-2.6952,-2.8082,-2.9642,-3.0111,-3.0886,-3.1769,-3.0994,-3.3359,-3.7526,-3.6161,-3.8553,-4.3008,-4.3835,0.0,0.0,0.0,-4.4923,-4.3838,0.0,-3.893,-3.5641,0.0,-2.7487,-2.5455,-2.4876,-2.5078,-2.5354,-2.4776,0.0,0.0,0.0,0.0,0.0,0.0,0.0,0.0,0.0,0.0,0.0,0.0,0.0,0.0,0.0,0.0,0.0,0.0,0.0,0.0,0.0,0.0,0.0,0.0,0.0,0.0,0.0,-4.8655,-4.8765,-4.8985,-4.9003,-4.9003,-4.9003,-4.9003,-4.9003,-4.9003,-4.9003,-4.9315,-4.9941,-4.9941,-5.0233,-5.082,-5.1041,-5.1444,-5.1995,-5.2234,-5.2656,-5.3185,-5.3185,-5.3185,-5.3185,-5.3185,-5.3185,-5.3185,-5.3185,-5.3185,-5.3185,-2.4941,-2.4648,-2.4785,-2.6035,-2.5937,-2.5957,-2.6676,-2.6477,-2.6352,0.0,0.0,0.0,-2.6731,-2.6989,-2.685,-2.6101,-2.5615,-2.5331,-2.5308,-2.5308,-2.5308,-2.5308,-2.5308,-2.5308,-2.5308,-2.5308,-2.5298,-2.5307,-2.5298,-2.5298,-2.5307,-2.5777,-2.6287,-2.6871,-2.7791,-2.8445,-2.8731,-2.739,-3.0525,-3.6469,-3.7103,-3.995,0.0,-4.4836,-4.6394,0.0,0.0,0.0,-4.6432,-4.5079,-4.1899,0.0,0.0,-2.9984,-2.8419,-2.6517,-2.6711,-2.739,-2.659,-2.6583,-2.7035,0.0,0.0,0.0,0.0,0.0,0.0,0.0,0.0,0.0,0.0,0.0,0.0,0.0,0.0,0.0,0.0,0.0,0.0,0.0,0.0,0.0,0.0,0.0,0.0,-4.8269,-4.8306,-4.8364,-4.8495,-4.8514,-4.8568,-4.8711,-4.8729,-4.8729,-4.8729,-4.8729,-4.897,-4.947,-4.947,-4.973,-5.0194,-5.0527,-5.0917,-5.138,-5.1713,-5.2343,-5.3122,-5.2982,-5.3021,-5.3185,-5.3185,-5.3185,-5.3185,-5.3185,-5.3185,-5.3185,0.0,-2.5019,-2.5059,-2.6719,-2.6367,-2.6426,-2.8184,-2.7695,-2.7499,0.0,-2.7987,-2.7946,-2.8903,-2.9393,-2.9026,-2.7515,-2.6265,-2.5564,-2.5606,-2.5423,-2.5317,-2.5308,-2.5308,-2.5308,-2.5308,-2.5308,-2.5308,-2.5308,-2.5308,-2.5308,-2.5308,-2.5308,-2.5308,-2.5308,-2.5308,-2.5731,-2.6428,-2.6038,-2.9036,-3.4482,-3.9114,-4.1944,0.0,0.0,-4.8092,-4.8515,-4.9191,-4.8989,-4.8268,-4.724,-4.3665,0.0,0.0,-3.3935,-3.257,-2.9231,-2.9325,-3.0299,-2.938,-2.9136,-2.9736,-3.2295,0.0,0.0,-3.4517,-3.3636,0.0,0.0,0.0,0.0,0.0,0.0,0.0,0.0,0.0,0.0,0.0,0.0,0.0,0.0,0.0,0.0,0.0,-4.6966,-4.7259,-4.7994,-4.8069,-4.8219,-4.8521,-4.8647,-4.887,-4.9171,-4.9261,-4.9299,-4.9299,-4.9299,-4.9299,-4.9299,-4.9299,-4.9299,-4.9317,-5.0037,-5.0416,-5.0547,-5.1244,-5.2067,-5.2838,-5.264,-5.2822,-5.3251,-5.3206,-5.3185,-5.3185,-5.3185,-5.3185,-5.3185,-2.4785,-2.5078,-2.5762,-2.6816,-2.6855,-2.7324,-2.9082,-2.8613,-2.8613,-3.0195,-3.0819,-3.1696,-3.3278,-3.1718,-3.0657,-3.0962,-2.8251,-2.6808,-2.743,-2.6152,-2.5352,-2.5308,-2.5308,-2.5308,-2.5308,-2.5308,-2.5308,-2.5308,-2.5308,-2.5308,-2.5308,-2.5308,-2.5308,-2.5308,-2.5308,-2.5385,-2.5712,-2.8308,-3.0912,-3.3461,-3.5169,-3.9636,-4.536,-4.6125,-4.8075,-5.0351,-4.9772,-4.99,-4.9992,-4.7679,-4.4829,-4.1671,0.0,0.0,-3.5315,-3.2608,-3.2962,-3.3907,-3.2333,-3.2801,-3.321,-3.1082,0.0,0.0,0.0,-2.9146,0.0,0.0,0.0,0.0,0.0,0.0,0.0,0.0,0.0,0.0,0.0,0.0,0.0,0.0,0.0,0.0,0.0,-4.614,-4.6195,-4.6361,-4.663,-4.6802,-4.6869,-4.7743,-4.8272,-4.8333,-4.8964,-4.9299,-4.9299,-4.9299,-4.9299,-4.9299,-4.9299,-4.9299,-4.9317,-4.9452,-4.9887,-5.0509,-5.0678,-5.1204,-5.1994,-5.264,-5.3179,-5.3564,-5.3314,-5.3185,-5.3185,-5.3185,-5.3185,-5.3185,-2.5137,-2.5391,-2.6113,-2.7422,-2.7656,-2.8379,-3.0566,-3.0156,-3.0527,-3.3105,-3.4921,-3.5663,-3.4784,-3.3918,-3.2869,-3.1526,-2.9403,-2.7929,-2.7436,-2.6588,-2.5885,-2.541,-2.5365,-2.5344,-2.5344,-2.5313,-2.5308,-2.5308,-2.5308,-2.5308,-2.5308,-2.5308,-2.6006,-2.7232,-2.59,-2.6275,-2.7923,-2.8326,-3.0018,-3.2703,-3.6156,0.0,-4.5993,-4.6904,-4.8805,-5.0938,-5.0468,-5.0284,-4.9919,-4.7727,-4.5789,0.0,0.0,-3.9511,-3.9114,0.0,-3.5875,-3.6826,-3.5105,-3.5182,-3.5437,-3.4126,0.0,0.0,0.0,0.0,0.0,0.0,0.0,0.0,0.0,0.0,0.0,0.0,0.0,0.0,0.0,0.0,0.0,0.0,0.0,0.0,0.0,-4.5296,-4.5533,-4.6115,-4.6305,-4.6533,-4.6836,-4.7391,-4.7772,-4.7958,-4.8761,-4.9197,-4.9197,-4.9595,-4.9803,-4.9803,-4.9803,-4.9803,-4.9803,-4.9803,-5.0031,-5.0415,-5.0415,-5.0875,-5.1675,-5.1911,-5.2645,-5.3646,-5.3513,-5.3442,-5.3422,-5.3251,-5.3185,-5.3185,-2.5703,-2.5703,-2.6191,-2.7773,-2.832,-2.9316,-3.1601,-3.1484,-3.2383,-3.5801,-3.8379,-3.9004,-3.6699,-3.6776,-3.6009,-3.3496,-3.1724,-3.0137,-2.8643,-2.7779,-2.7007,-2.6287,-2.5721,-2.5573,-2.5905,-2.5543,-2.5345,-2.5345,-2.5327,-2.5317,-2.5317,-2.5317,-2.653,-2.87,-2.6881,-2.7812,-3.0607,-2.8671,-3.0034,-3.3911,0.0,-4.2347,-4.5011,-4.7388,-4.9123,-5.0367,-5.0867,-5.0539,-4.9604,-4.7891,-4.6789,-4.5541,-4.2261,-4.2275,0.0,0.0,0.0,0.0,0.0,0.0,0.0,0.0,0.0,-3.5665,0.0,0.0,0.0,-3.5654,0.0,0.0,0.0,0.0,0.0,0.0,0.0,0.0,0.0,0.0,0.0,0.0,0.0,0.0,0.0,-4.3883,-4.4353,-4.5732,-4.5463,-4.5667,-4.6692,-4.696,-4.7225,-4.754,-4.8391,-4.885,-4.885,-4.9652,-5.0073,-5.0073,-5.0225,-5.0302,-5.0302,-5.0302,-5.0302,-5.0302,-5.0302,-5.0703,-5.1329,-5.1184,-5.1944,-5.3229,-5.3399,-5.3552,-5.3662,-5.3316,-5.3185,-5.3185,-2.5703,-2.5703,-2.6016,-2.6973,-2.8437,-2.9805,-3.0879,-3.1621,-3.3281,-3.6699,-3.8769,-4.0605,-4.2461,-4.1445,-4.1053,-4.2146,-3.7964,-3.5142,-3.4878,-3.1319,-2.9128,-2.8951,-2.6728,-2.6214,-2.776,-2.6266,-2.548,-2.548,-2.5414,-2.5394,-2.5394,-2.5331,-2.5875,-2.6959,-2.8268,-2.9854,-3.16,0.0,-3.5267,0.0,-4.0604,-4.0621,0.0,-4.5656,-4.7648,-4.8093,-5.0377,-5.1026,-5.0558,0.0,-4.8082,-4.7503,0.0,-4.4528,-4.4904,0.0,0.0,0.0,0.0,0.0,0.0,0.0,-3.9809,0.0,0.0,0.0,-3.4031,-3.135,0.0,0.0,0.0,0.0,0.0,0.0,0.0,0.0,0.0,0.0,0.0,0.0,0.0,0.0,0.0,0.0,-4.1385,-4.3658,-4.2069,-4.208,-4.4594,-4.569,-4.6357,-4.6642,-4.7494,-4.7941,-4.7941,-4.8793,-4.9243,-4.9232,-4.9958,-5.0302,-5.0302,-5.0302,-5.0302,-5.0302,-5.0302,-5.0359,-5.0512,-5.124,-5.1648,-5.1885,-5.242,-5.3069,-5.3662,-5.3316,-5.3185,-5.3185,-2.5703,-2.5703,-2.5977,-2.6855,-2.7617,-2.8906,-3.1289,-3.5332,-3.8281,-3.875,-4.1601,-4.3633,-4.3691,-4.3066,-4.2538,-4.2264,-4.0232,-3.7884,0.0,-3.3517,-3.1849,-3.0347,-2.8697,-2.7936,-2.815,-2.691,-2.6012,-2.5501,-2.5473,-2.546,-2.5457,-2.5398,-2.6898,-2.9689,-2.9943,0.0,-3.55,0.0,-3.5842,0.0,0.0,0.0,0.0,-4.6365,-4.9284,-4.9869,-5.0935,-5.1238,-5.0846,0.0,-4.8437,0.0,0.0,0.0,0.0,0.0,0.0,0.0,0.0,0.0,0.0,0.0,0.0,0.0,-3.6004,0.0,-3.4499,0.0,0.0,0.0,0.0,0.0,0.0,0.0,0.0,0.0,0.0,0.0,0.0,0.0,0.0,0.0,0.0,0.0,0.0,0.0,0.0,-4.1155,-4.4002,-4.5099,-4.5676,-4.5793,-4.6615,-4.7043,-4.7043,-4.7914,-4.8602,-4.911,-4.9442,-4.9843,-5.0302,-5.0302,-5.0302,-5.0302,-5.0302,-5.0302,-5.034,-5.0684,-5.1142,-5.1598,-5.1628,-5.2036,-5.2616,-5.2751,-5.2677,-5.2564,-2.6055,-2.5859,-2.5977,-2.6855,-2.7402,-2.8965,-3.2676,-3.7656,-4.0898,-4.0625,-4.3516,-4.5469,-4.5156,-4.5136,-4.4824,-4.4062,-4.3534,-4.1619,0.0,-3.6421,-3.5052,-3.3449,-3.1128,-2.9904,-2.9982,-2.816,-2.6773,-2.5907,-2.5656,-2.5648,-2.5879,-2.5576,-2.738,-3.0888,-3.1456,-3.4022,-3.7918,0.0,-3.7642,-3.8696,-4.0323,-4.1342,-4.2437,-4.7455,-5.0204,-5.1402,-5.1402,-5.134,-5.1028,-4.9556,-4.8934,0.0,-4.7017,0.0,0.0,0.0,0.0,0.0,-4.3932,0.0,0.0,0.0,0.0,0.0,0.0,0.0,0.0,0.0,0.0,0.0,0.0,0.0,0.0,0.0,0.0,0.0,0.0,0.0,0.0,0.0,0.0,0.0,0.0,0.0,0.0,0.0,0.0,0.0,-4.3692,-4.4494,-4.4985,-4.5277,-4.587,-4.6175,-4.6175,-4.7016,-4.7761,-4.8425,-4.8884,-4.9419,-5.0004,-5.0241,-5.0325,-5.0325,-5.0302,-5.0302,-5.0302,-5.0302,-5.0665,-5.1214,-5.0925,-5.0989,-5.1334,-5.202,-5.2122,-5.2022,-2.6953,-2.6289,-2.5977,-2.6855,-2.8398,-3.0957,-3.5234,-3.6777,-3.8633,-4.1894,-4.3164,-4.5058,-4.8379,-4.873,-4.9355,-5.0937,-4.959,-4.7519,-4.4843,0.0,-3.8807,-3.9585,-3.398,-3.2008,0.0,-3.0386,-2.7826,-2.6942,-2.604,-2.6038,-2.6831,-2.5921,-2.6469,-2.8398,-3.2608,-3.5434,-3.7217,-3.9754,-4.2749,-4.5715,-4.5011,-4.7233,-5.0712,0.0,-4.9116,-5.1397,-5.1397,0.0,0.0,-5.0285,-4.9958,0.0,0.0,0.0,0.0,0.0,0.0,0.0,0.0,0.0,0.0,-4.1404,0.0,0.0,0.0,0.0,-3.7455,0.0,0.0,0.0,0.0,0.0,-3.4936,-3.1718,0.0,0.0,0.0,0.0,0.0,0.0,0.0,0.0,0.0,0.0,0.0,0.0,0.0,0.0,-4.3291,-4.3644,-4.4171,-4.5277,-4.5326,-4.5345,-4.5345,-4.6137,-4.6579,-4.6689,-4.8326,-4.9152,-4.9262,-5.0041,-5.0401,-5.0401,-5.0325,-5.0302,-5.0302,-5.0302,-5.0321,-5.034,-5.0328,-5.0133,-5.0014,-5.1262,-5.1715,-5.178,-2.8711,-2.8476,-2.8184,-2.791,-2.8359,-3.0371,-3.5254,-3.9648,-4.3027,-4.4746,-4.6738,-4.8867,-5.1172,-5.1406,-5.1641,0.0,0.0,-5.0078,-4.6933,-4.4824,0.0,-4.1619,-3.8532,-3.6715,0.0,-3.3864,-3.1559,-2.9585,-2.8698,-2.8106,-2.7811,-2.6874,-2.7642,-2.9953,0.0,-3.6163,0.0,0.0,0.0,0.0,0.0,-4.806,-5.1305,0.0,0.0,-5.1398,-5.1398,-5.1397,0.0,-5.1034,-5.0501,-4.9936,-4.9609,-4.8446,-4.7198,-4.7192,-4.6585,0.0,0.0,0.0,-4.5291,-4.2897,0.0,0.0,0.0,0.0,0.0,0.0,0.0,0.0,0.0,0.0,-3.481,-3.2561,-3.132,0.0,0.0,0.0,0.0,0.0,0.0,0.0,0.0,0.0,0.0,0.0,0.0,0.0,0.0,-4.3577,-4.4315,-4.5258,-4.5307,-4.5307,-4.5307,-4.5564,-4.5976,-4.6541,-4.7157,-4.805,-4.9133,-4.9417,-4.9857,-5.0401,-5.0325,-5.0302,-5.0302,-5.0302,-5.0302,-5.0302,-5.0302,-5.0224,-5.0209,-5.0965,-5.1095,-5.1094,-3.0527,-3.0039,-2.9512,-2.9277,-3.0234,-3.2578,-3.7148,-4.2187,-4.5898,-4.707,-4.9219,0.0,-5.2988,0.0,-5.3281,0.0,-5.3613,-5.2168,-4.875,-4.7715,0.0,-4.4335,-4.2323,0.0,0.0,0.0,-3.4822,-3.1326,-3.0758,-2.974,-2.8271,-2.7357,-2.814,-3.0433,0.0,-3.6194,-3.9082,-4.26,-4.4473,0.0,0.0,-4.9179,0.0,0.0,-5.1403,-5.1403,0.0,-5.1402,-5.1401,-5.1401,-5.0999,-5.0508,-5.0501,-4.9457,-4.8187,-4.7895,-4.7182,-4.643,-4.6065,-4.5978,0.0,-4.3713,-4.2468,0.0,-3.8575,0.0,0.0,0.0,0.0,0.0,0.0,0.0,0.0,-3.3895,-3.1596,0.0,0.0,0.0,0.0,0.0,0.0,0.0,0.0,0.0,-2.965,-3.4674,0.0,0.0,0.0,0.0,-4.3959,-4.4819,-4.5144,-4.5307,-4.5307,-4.5307,-4.5575,-4.6112,-4.647,-4.7392,-4.8754,-4.9009,-4.9611,-5.0435,-5.0337,-5.0302,-5.0302,-5.0302,-5.0302,-5.0302,-5.0302,-5.0302,-5.0336,-5.0647,-5.0733,-5.0888,-3.2324,-3.1094,-3.0312,-3.1191,-3.4023,-3.7344,0.0,0.0,-4.6992,0.0,-5.0488,-5.2187,-5.3945,-5.4121,-5.4453,-5.5293,-5.5351,-5.3965,-5.0664,-4.9648,0.0,0.0,-4.5371,-4.3965,-4.3828,0.0,0.0,0.0,-3.2206,-3.0837,-2.8407,-2.7491,0.0,0.0,-3.3126,0.0,-3.7685,-4.274,-4.5949,-4.7811,-4.9551,-5.0723,-5.1406,-5.1406,-5.1406,-5.1406,-5.1406,-5.1406,-5.1405,-5.1405,-5.1402,-5.1399,-5.1398,-5.0809,-4.9945,-4.9124,-4.8278,-4.7385,-4.6378,-4.6105,-4.5702,-4.3966,0.0,0.0,0.0,0.0,-4.0462,0.0,0.0,0.0,0.0,0.0,0.0,-3.5595,-3.2476,-2.9032,0.0,0.0,0.0,0.0,0.0,0.0,0.0,0.0,-2.7063,-3.3042,-3.2155,0.0,0.0,0.0,-4.308,-4.3968,-4.4857,-4.5307,-4.5307,-4.5307,-4.5338,-4.5408,-4.6243,-4.7136,-4.8068,-4.8795,-4.9618,-5.0442,-5.034,-5.0302,-5.0302,-5.0302,-5.0302,-5.0302,-5.0302,-5.0302,-5.0302,-5.0302,-5.059,-5.1097,-3.4062,-3.5254,-3.6562,0.0,-3.832,-3.9844,0.0,0.0,0.0,0.0,-5.2266,-5.4004,-5.5742,-5.5937,-5.6015,-5.625,-5.6269,0.0,0.0,0.0,0.0,-5.0488,-4.9219,-4.7617,-4.5664,-4.3086,0.0,-3.6933,0.0,0.0,-3.0192,0.0,0.0,0.0,0.0,0.0,-3.8474,-4.1696,-4.5193,-4.8711,-5.041,-5.1211,0.0,0.0,-5.1406,-5.1406,-5.1406,-5.1406,-5.1406,-5.1406,-5.1406,-5.1405,-5.1404,-5.0837,-4.9995,-4.9087,-4.8244,-4.74,-4.6485,-4.6245,-4.6116,-4.5549,-4.4463,-4.328,0.0,0.0,0.0,0.0,0.0,0.0,0.0,0.0,0.0,0.0,0.0,0.0,0.0,0.0,0.0,0.0,0.0,0.0,0.0,-2.6171,-2.831,-3.0551,-3.2308,0.0,0.0,0.0,0.0,-4.393,-4.4857,-4.5307,-4.5307,-4.5348,-4.5369,-4.5408,-4.5688,-4.6273,-4.7165,-4.7952,-4.8768,-4.9651,-5.0147,-5.0359,-5.0379,-5.0314,-5.0302,-5.0302,-5.0302,-5.0302,-5.0302,-5.0302,-5.0388,-5.069,-3.6816,-3.9355,0.0,-4.1543,0.0,0.0,-4.5293,-4.6973,0.0,-5.1113,-5.293,0.0,-5.5351,-5.6133,-5.6601,-5.6601,-5.6601,0.0,-5.4805,0.0,0.0,-5.2031,-5.1523,-5.0254,-4.8047,-4.6191,0.0,-3.8594,0.0,0.0,-3.0291,0.0,0.0,0.0,0.0,-3.4918,0.0,-4.2226,-4.5957,-4.9023,-5.0332,0.0,0.0,-5.1406,-5.1406,-5.1406,-5.1406,-5.1406,-5.1406,-5.1406,-5.1406,-5.1406,-5.1406,-5.1093,-5.0486,-4.9212,-4.8523,-4.7894,-4.664,-4.6303,-4.6275,-4.6209,-4.5484,-4.4557,-4.3689,-4.3494,-4.3194,0.0,0.0,0.0,0.0,0.0,0.0,0.0,0.0,0.0,0.0,0.0,0.0,0.0,0.0,0.0,0.0,-2.5432,-2.7562,-2.9219,-3.1219,0.0,0.0,0.0,0.0,-4.2881,-4.4103,-4.4935,-4.533,-4.5379,-4.5399,-4.54,-4.5467,-4.5956,-4.6839,-4.7626,-4.849,-4.9335,-5.0106,-5.0446,-5.0446,-5.0393,-5.0382,-5.0382,-5.0367,-5.0325,-5.0302,-5.0302,-5.0302,-5.0493,-3.9766,-4.3008,0.0,0.0,0.0,0.0,0.0,-4.918,0.0,-5.1875,0.0,-5.4687,-5.4687,-5.6035,-5.6894,-5.6777,0.0,-5.6074,-5.4453,-5.5058,-5.4746,-5.3105,-5.3047,-5.2207,-5.0391,-4.9297,0.0,0.0,0.0,-3.4433,-2.9589,0.0,0.0,0.0,0.0,0.0,0.0,-4.3672,-4.7402,0.0,-4.9961,-5.0781,-5.1406,-5.1406,-5.1406,-5.1406,-5.1406,-5.1406,-5.1406,-5.1406,-5.1406,-5.1406,-5.1406,-5.1406,-5.1073,-4.9393,-4.89,-4.8521,-4.6763,-4.6309,-4.6303,-4.6303,-4.6302,-4.5884,-4.4306,-4.3944,-4.3926,-4.3797,-4.3182,-4.3251,0.0,0.0,0.0,0.0,0.0,0.0,0.0,0.0,0.0,0.0,0.0,0.0,0.0,-2.4955,-2.6386,-2.8406,0.0,0.0,0.0,0.0,0.0,-4.156,-4.3177,0.0,-4.5381,0.0,-4.5409,-4.5419,-4.5485,-4.5907,-4.6675,-4.7482,-4.8327,-4.9201,-4.9995,-5.0415,-5.0511,-5.0511,-5.05,-5.05,-5.0435,-5.039,-5.0325,-5.0314,-5.0314,-5.0447,-4.0918,0.0,0.0,0.0,0.0,-5.1562,-5.2715,-5.3613,-5.4531,-5.5566,-5.7207,-5.8281,-5.8281,-5.8555,-5.8457,-5.7734,-5.7676,0.0,0.0,0.0,0.0,-5.4883,-5.4844,-5.3691,-5.123,-4.8984,-4.5508,0.0,-3.6992,-3.3242,-2.957,-2.8711,0.0,0.0,0.0,0.0,-4.0605,-4.5351,0.0,-4.9023,-5.0566,-5.1269,-5.1406,-5.1406,-5.1406,-5.1406,-5.1406,-5.1406,-5.1406,-5.1406,-5.1406,-5.1406,-5.1406,-5.1406,-5.1074,-4.9393,-4.8904,-4.8512,-4.677,-4.63,-4.6297,-4.6293,-4.6291,-4.621,-4.5906,-4.5824,-4.5822,-4.5794,-4.5675,-4.5236,-4.4196,0.0,0.0,0.0,0.0,0.0,0.0,0.0,0.0,0.0,0.0,0.0,0.0,0.0,0.0,0.0,0.0,0.0,0.0,0.0,0.0,0.0,-4.3273,0.0,0.0,0.0,-4.5476,-4.5485,-4.5559,-4.5654,-4.5846,-4.6702,-4.7548,-4.8356,-4.9163,-4.993,-5.0582,-5.0521,-5.05,-5.05,-5.0489,-5.0478,-5.0468,-5.0412,-5.039,-5.0493,-4.6406,0.0,0.0,0.0,0.0,0.0,0.0,-5.7477,0.0,-5.6777,-5.7324,-5.7851,-5.7851,-5.8652,-5.9023,-5.8613,-5.8164,-5.7715,-5.7305,-5.6855,-5.6406,-5.5996,-5.5547,0.0,-5.2129,-5.0019,-4.6836,-4.25,-3.8164,-3.4512,-3.1523,-2.9785,-2.8965,-2.9141,0.0,-3.7441,0.0,0.0,0.0,-4.9004,-5.0273,-5.1035,-5.1406,-5.1406,-5.1406,-5.1406,-5.1406,-5.1406,-5.1406,-5.1406,-5.1406,-5.1406,-5.1406,-5.1406,-5.1152,-4.9921,-4.9257,-4.8611,-4.7321,-4.6635,-4.6301,-4.6299,-4.6297,-4.6296,-4.6309,-4.6306,-4.6306,-4.6302,-4.63,-4.5744,-4.3925,-4.2081,0.0,0.0,0.0,0.0,0.0,0.0,0.0,0.0,0.0,0.0,0.0,0.0,0.0,0.0,0.0,0.0,0.0,0.0,0.0,0.0,0.0,0.0,0.0,0.0,0.0,-4.5559,-4.5586,-4.5594,-4.5633,-4.6509,-4.7336,-4.8163,-4.9,-4.9855,-5.0643,-5.0623,-5.0573,-5.0542,-5.0542,-5.0532,-5.05,-5.0468,-5.0457,-5.0503,0.0,-5.2109,0.0,0.0,-5.5835,0.0,-5.8001,-6.0069,-6.0629,-5.8004,-5.7632,-5.7629,-5.7629,-5.8841,-5.9583,-5.9407,-5.8763,-5.8216,-5.7864,-5.7203,-5.6756,-5.658,-5.5937,-5.4844,-5.3281,-5.1601,-4.8594,0.0,0.0,0.0,0.0,-3.1621,-3.0879,-3.1445,0.0,0.0,0.0,0.0,-4.7578,-4.9258,-5.0117,-5.082,-5.1406,-5.1406,-5.1406,-5.1406,-5.1406,-5.1406,-5.1406,-5.1406,-5.1406,-5.1406,-5.1406,-5.1406,-5.123,-5.0449,-4.9589,-4.871,-4.7831,-4.6951,-4.6304,-4.6303,-4.6303,-4.6301,-4.6296,-4.6295,-4.6294,-4.6308,-4.6305,-4.5746,-4.3925,-4.2757,0.0,0.0,0.0,0.0,0.0,0.0,0.0,0.0,0.0,0.0,0.0,0.0,0.0,0.0,0.0,0.0,0.0,0.0,0.0,0.0,0.0,-4.2778,-4.5019,0.0,-4.5559,0.0,-4.5594,-4.5594,-4.5614,-4.6317,-4.7163,-4.8144,-4.8836,-4.9721,-5.0712,-5.0712,-5.0663,-5.0623,-5.0623,-5.0593,-5.0542,-5.0521,-5.0521,-5.05,0.0,0.0,0.0,0.0,0.0,0.0,-5.8795,-6.0296,-6.1343,-6.1156,-6.1036,-6.0948,-6.0948,-6.1108,-6.087,-6.009,-5.993,-5.9252,-5.7732,-5.7618,-5.7274,-5.6534,-5.648,-5.6035,-5.5078,-5.3359,-5.0351,0.0,0.0,0.0,0.0,-3.4336,-3.5078,-3.6699,0.0,0.0,0.0,-4.6699,-4.8476,-5.0156,-5.0957,-5.1328,-5.1406,-5.1406,-5.1406,-5.1406,-5.1406,-5.1406,-5.1406,-5.1406,-5.1406,-5.1406,-5.1406,-5.1406,-5.123,-5.0449,-4.957,-4.8711,-4.7832,-4.6953,-4.6308,-4.6307,-4.6306,-4.6306,-4.6302,-4.6301,-4.6301,-4.6301,-4.6296,-4.5755,-4.3927,-4.4807,-4.4726,0.0,0.0,0.0,0.0,0.0,0.0,0.0,0.0,0.0,0.0,0.0,0.0,0.0,0.0,0.0,0.0,0.0,0.0,-3.9079,0.0,-4.2253,-4.3227,-4.4799,0.0,-4.5594,-4.5594,-4.5594,-4.5594,-4.5691,-4.6586,-4.8105,-4.8202,-4.9163,-5.0712,-5.0712,-5.0702,-5.0683,-5.0683,-5.0702,-5.0663,-5.0613,-5.0593,-5.0582,0.0,0.0,0.0,0.0,0.0,0.0,0.0,-6.0948,-6.1367,-6.1417,-6.1403,-6.1393,-6.1393,-6.1393,-6.1257,-6.0901,-6.0395,-5.983,-5.9148,-5.8188,-5.7505,-5.7173,-5.6676,-5.6006,-5.5145,-5.3913,-5.172,0.0,0.0,0.0,0.0,0.0,0.0,0.0,0.0,-4.5117,-4.668,-4.8418,-4.9551,-5.0273,-5.1074,-5.1406,-5.1406,-5.1406,-5.1406,-5.1406,-5.1406,-5.1406,-5.1406,-5.1406,-5.1406,-5.1406,-5.1406,-5.1406,-5.1348,-5.1016,-5.0332,-4.9492,-4.8613,-4.7734,-4.6953,-4.6425,-4.6308,-4.6308,-4.6306,-4.6305,-4.6305,-4.6302,-4.63,-4.6079,-4.5357,-4.4918,-4.4556,0.0,0.0,0.0,0.0,0.0,0.0,0.0,0.0,0.0,0.0,0.0,0.0,0.0,0.0,-2.6609,-2.9883,0.0,0.0,-3.754,0.0,-4.2212,-4.3041,-4.4759,-4.5646,-4.5712,-4.5712,-4.5745,-4.579,-4.579,-4.6663,-4.8274,-4.9229,-5.0048,-5.0712,-5.0712,-5.0712,-5.0712,-5.0712,-5.0712,-5.0702,-5.0663,-5.0653,-5.0653,-5.9172,0.0,-5.802,0.0,-5.9429,-5.923,-6.1038,-6.1264,-6.1237,-6.1237,-6.1272,-6.131,-6.131,-6.131,-6.131,-6.131,-6.074,-6.0293,-6.0059,-5.8946,-5.8086,-5.7561,-5.6991,0.0,-5.5411,-5.453,-5.3089,-5.1088,-4.8173,0.0,0.0,-4.1816,0.0,0.0,-4.6133,-4.7558,-4.8457,-4.9687,-5.0332,-5.0605,-5.1172,-5.1406,-5.1406,-5.1406,-5.1406,-5.1406,-5.1406,-5.1406,-5.1406,-5.1406,-5.1406,-5.1406,-5.1406,-5.1406,-5.1406,-5.1406,-5.082,-5.0078,-4.9453,-4.8457,-4.7441,-4.6836,-4.6484,-4.6308,-4.6308,-4.6307,-4.6307,-4.6305,-4.6303,-4.6302,-4.6297,-4.5267,-4.4647,-4.5373,0.0,0.0,0.0,0.0,0.0,0.0,0.0,-3.3382,0.0,0.0,0.0,0.0,0.0,-2.8291,-3.0862,0.0,0.0,0.0,0.0,0.0,0.0,-4.4835,-4.5745,-4.5829,-4.5829,-4.5859,-4.5919,-4.6424,-4.7286,-4.8442,-5.0077,-5.078,-5.0799,-5.0766,-5.0758,-5.0758,-5.0712,-5.0712,-5.0712,-5.0712,-5.0712,-5.0712,-5.9812,-5.9911,-6.0142,-6.1031,-6.112,-6.1069,-6.1108,-6.1099,-6.1099,-6.1099,-6.1099,-6.1108,-6.1108,-6.1108,-6.1108,-6.1108,-6.1089,-6.076,-5.9947,-5.9952,-5.9198,0.0,0.0,-5.718,-5.6292,-5.5431,-5.455,-5.3669,0.0,0.0,-4.7322,-4.6558,-4.668,-4.7578,-4.8476,-4.9355,-5.0176,-5.0195,-5.0664,-5.1387,-5.1406,-5.1406,-5.1406,-5.1406,-5.1406,-5.1406,-5.1406,-5.1406,-5.1406,-5.1406,-5.1406,-5.1406,-5.1406,-5.1406,-5.1406,-5.1406,-5.082,-5.0195,-5.0195,-4.8926,-4.7598,-4.7598,-4.6933,-4.6308,-4.6308,-4.6308,-4.6308,-4.6307,-4.6307,-4.6306,-4.6302,-4.6282,-4.5689,-4.3929,0.0,0.0,0.0,0.0,0.0,0.0,-3.402,-3.2186,-3.3091,0.0,0.0,0.0,0.0,0.0,0.0,0.0,0.0,-4.0558,-4.1626,0.0,-4.3296,-4.504,-4.5899,-4.5899,-4.5899,-4.5899,-4.5958,-4.7686,-4.8483,-4.8594,-5.0264,-5.1002,-5.099,-5.0916,-5.0894,-5.0871,-5.0749,-5.0712,-5.0712,-5.0712,-5.0712,-5.0712,-6.0643,-6.0664,-6.0742,-6.1022,-6.1041,-6.1021,-6.1022,-6.1032,-6.1041,-6.1089,-6.1099,-6.1099,-6.1099,-6.1099,-6.1099,0.0,-6.1099,-6.0983,0.0,-6.0224,-5.9678,-5.9135,-5.8002,-5.7276,-5.6985,-5.6132,-5.53,-5.4513,0.0,0.0,0.0,-5.041,-5.0743,-5.1057,-5.1971,-5.2539,-5.2754,-5.2168,-5.2051,-5.2226,-5.1641,-5.1406,-5.1406,-5.1406,-5.1406,-5.1406,-5.1406,-5.1406,-5.1406,-5.1406,-5.1406,-5.1406,-5.1406,-5.1406,-5.1406,-5.1406,-5.1211,-5.0898,-5.0351,-4.9805,-4.9082,-4.7891,-4.7383,-4.7031,-4.6445,-4.6308,-4.6308,-4.6308,-4.6308,-4.6308,-4.6306,-4.6306,-4.6108,-4.553,-4.5182,0.0,0.0,0.0,0.0,0.0,0.0,-3.5675,0.0,-3.4639,0.0,0.0,0.0,0.0,0.0,0.0,0.0,0.0,-4.2204,0.0,-4.336,-4.505,-4.5959,-4.6041,-4.6041,-4.6072,-4.6234,-4.7876,-4.8645,-4.8719,-5.0317,-5.1002,-5.1002,-5.0979,-5.0966,-5.0959,-5.0912,-5.0891,-5.0903,-5.0855,-5.0833,-5.0816,-6.0933,-6.0944,-6.0965,-6.0965,-6.0976,-6.1008,-6.1,-6.0991,-6.1021,-6.1051,-6.106,-6.106,-6.106,-6.1061,0.0,-6.1099,-6.1099,-6.1099,-6.1099,-6.0634,-6.0209,-5.9899,-5.8855,-5.812,-5.7811,0.0,0.0,-5.5807,-5.4653,-5.3571,-5.2611,-5.2882,-5.3016,-5.3039,-5.3674,-5.3959,-5.3921,-5.3417,-5.3183,-5.3144,-5.2598,-5.2383,-5.2344,-5.2012,-5.1894,-5.1855,-5.1523,-5.1406,-5.1406,-5.1406,-5.1406,-5.1406,-5.1406,-5.1406,-5.1406,-5.1406,-5.1406,-5.1289,-5.0781,-5.043,-4.9863,-4.8437,-4.7832,-4.7363,-4.6504,-4.6308,-4.6308,-4.6308,-4.6308,-4.6308,-4.6308,-4.6308,-4.6307,-4.6305,-4.5288,-4.4213,-4.3329,0.0,0.0,0.0,0.0,0.0,0.0,-3.7115,0.0,0.0,0.0,0.0,0.0,0.0,0.0,-4.0266,-4.3237,0.0,-4.4483,-4.5527,-4.6095,-4.6176,-4.6176,-4.6389,-4.6825,-4.814,-4.8922,-4.9309,-5.0587,-5.115,-5.1146,-5.1108,-5.1069,-5.1069,-5.102,-5.1002,-5.0996,-5.0952,-5.092,-5.0898,-6.08,-6.0846,0.0,0.0,-6.0944,0.0,-6.0987,-6.0987,-6.0987,-6.0987,-6.0987,-6.0987,-6.0987,-6.1,-6.1041,-6.108,0.0,0.0,0.0,-6.1099,-6.077,-6.0016,-5.9919,-5.9513,-5.8709,-5.7849,-5.7357,-5.7299,-5.5748,-5.4984,-5.4964,-5.4212,-5.387,-5.3875,-5.4014,-5.4079,-5.4062,-5.4077,-5.4082,-5.4082,-5.4023,-5.4004,-5.3906,-5.3086,-5.2773,-5.2655,-5.1855,-5.1562,-5.1542,-5.1503,-5.1484,-5.1465,-5.1406,-5.1406,-5.1406,-5.1406,-5.1406,-5.1406,-5.1406,-5.0859,-5.0078,-4.9219,-4.8281,-4.7363,-4.6504,-4.6308,-4.6308,-4.6308,-4.6308,-4.6308,-4.6308,-4.6308,-4.6289,-4.6229,-4.4803,-4.3396,-4.2513,0.0,0.0,0.0,0.0,0.0,0.0,-3.8551,-3.9614,0.0,0.0,0.0,0.0,0.0,-3.9396,-4.3665,-4.4641,-4.548,-4.628,-4.63,-4.63,-4.63,-4.63,-4.6768,-4.7625,-4.8427,-4.9286,-5.0143,-5.1023,-5.1394,-5.139,-5.1278,-5.1211,-5.1203,-5.1074,-5.1031,-5.1031,-5.102,-5.0966,-5.0925,0.0,0.0,-6.0823,-6.0823,-6.0835,-6.0858,-6.0922,-6.0933,-6.0944,-6.0987,-6.0987,-6.0987,-6.0987,-6.1008,-6.1018,-6.1009,-6.107,-6.1099,-6.1099,-6.1099,-6.1021,-6.0828,-6.0228,-5.9803,-5.959,-5.8739,-5.7965,-5.7299,-5.6239,-5.5741,-5.5741,-5.565,-5.5616,-5.5602,-5.5695,-5.5732,-5.57,-5.5157,-5.4921,-5.4864,-5.4256,-5.3962,-5.3904,-5.3689,-5.3552,-5.3433,-5.3238,-5.316,-5.3062,-5.2458,-5.2274,-5.2205,-5.1524,-5.1362,-5.1406,-5.1406,-5.1406,-5.1406,-5.1406,-5.1269,-5.0918,-5.0098,-4.873,-4.7363,-4.6504,-4.6308,-4.6308,-4.6308,-4.6308,-4.6308,-4.6308,-4.6308,-4.6074,-4.5429,-4.4394,-4.3398,-4.2517,-4.1482,0.0,0.0,-4.1355,-4.1315,-4.0905,-4.2017,-4.1836,0.0,0.0,0.0,0.0,-4.1783,-4.2858,-4.4639,-4.5539,-4.6085,-4.63,-4.63,-4.63,-4.63,-4.63,-4.6768,-4.7625,-4.8427,-4.9286,-5.0143,-5.1023,-5.1394,-5.1394,-5.1362,-5.1357,-5.1357,-5.1325,-5.1319,-5.1294,-5.1195,-5.1137,-5.1103,-6.08,-6.08,-6.08,-6.08,-6.08,-6.0812,-6.0846,-6.0846,-6.0858,-6.0891,-6.0911,-6.0911,-6.0911,-6.0944,-6.0955,-6.0955,-6.102,-6.1051,-6.1041,-6.1041,-6.107,-6.1099,-6.0673,-6.0441,-6.0441,-5.9609,-5.8565,-5.7299,-5.6835,-5.639,-5.5993,-5.6071,-5.6109,-5.6117,-5.6205,-5.626,-5.6227,-5.5853,-5.5708,-5.5652,-5.5235,-5.5033,-5.4944,-5.4554,-5.4351,-5.4234,-5.3844,-5.3708,-5.363,-5.3202,-5.3073,-5.2951,-5.2116,-5.1865,-5.1826,-5.1437,-5.1341,-5.1406,-5.1406,-5.1406,-5.1211,-5.0391,-4.8887,-4.748,-4.6992,-4.6582,-4.6308,-4.6308,-4.6308,-4.6308,-4.6308,-4.6308,-4.6016,-4.5137,-4.4277,-4.3262,-4.2031,-4.1757,0.0,-4.1834,-4.2888,-4.3434,-4.3024,-4.4135,-4.3956,-4.1701,0.0,0.0,-4.2871,-4.4099,-4.4881,-4.5003,-4.5842,-4.6293,-4.6293,-4.6293,-4.6293,-4.6293,-4.6308,-4.697,-4.8218,-4.8605,-4.9481,-5.0709,-5.1199,-5.1394,-5.1394,-5.1394,-5.1394,-5.1394,-5.1394,-5.1394,-5.139,-5.1325,-5.1252,-5.1195,-6.08,-6.08,-6.08,-6.08,-6.08,-6.08,-6.08,-6.08,-6.08,-6.08,-6.08,-6.08,-6.08,-6.0846,-6.088,-6.088,-6.0944,-6.0978,-6.1001,-6.0992,-6.1031,-6.107,-6.107,-6.107,-6.107,-6.0287,-5.9137,-5.7668,-5.7406,-5.6903,-5.6169,-5.6061,-5.6012,-5.5993,-5.6124,-5.6161,-5.6175,-5.6241,-5.629,-5.629,-5.6303,-5.6284,-5.6193,-5.5467,-5.5161,-5.505,-5.4305,-5.4052,-5.4032,-5.3916,-5.3867,-5.3745,-5.2927,-5.2585,-5.2344,-5.1608,-5.1379,-5.1364,-5.1364,-5.1385,-5.1191,-5.039,-4.9082,-4.793,-4.7656,-4.7031,-4.6465,-4.6328,-4.6308,-4.6308,-4.6308,-4.6308,-4.5976,-4.4961,-4.4297,-4.3301,-4.1621,0.0,-4.2539,-4.1855,-4.3808,-4.4901,-4.4159,-4.5426,-4.5698,-4.4195,-4.5464,-4.5971,0.0,-4.5893,-4.5952,-4.5229,-4.5912,-4.6301,-4.6301,-4.6301,-4.6301,-4.6301,-4.6297,-4.7212,-4.8891,-4.8825,-4.9757,-5.1396,-5.1394,-5.1394,-5.1394,-5.1394,-5.1394,-5.1394,-5.1394,-5.1394,-5.1394,-5.1394,-5.1327,-5.1241,-6.08,-6.08,-6.08,-6.08,-6.08,-6.08,-6.08,-6.08,-6.08,-6.08,-6.08,-6.08,-6.08,-6.0812,-6.0823,-6.0823,-6.0823,-6.088,-6.0997,-6.1008,-6.1008,-6.1018,-6.1018,-6.1018,-6.1018,-6.0169,-5.961,-5.9339,-5.7912,-5.7139,-5.7013,-5.6314,-5.6012,-5.6012,-5.6018,-5.6035,-5.6043,-5.6168,-5.6226,-5.6218,-5.6276,-5.6281,-5.6206,-5.607,-5.5934,-5.5835,-5.5699,-5.5641,-5.5544,-5.4866,-5.4664,-5.4562,-5.3707,-5.3001,-5.2461,-5.2344,-5.178,-5.1239,-5.1239,-5.1277,-5.1136,-5.039,-5.0,-4.9414,-4.7949,-4.75,-4.7187,-4.6445,-4.6308,-4.6308,-4.6308,-4.6308,-4.5762,-4.416,-4.4414,-4.4199,-4.2461,0.0,-4.4551,-4.4433,-4.541,-4.6055,-4.5918,-4.6133,-4.6191,-4.5918,-4.6152,-4.623,-4.6113,-4.623,-4.623,-4.6094,-4.6227,-4.6301,-4.6301,-4.6301,-4.6301,-4.6301,-4.6301,-4.7218,-4.8897,-4.8832,-4.9747,-5.1407,-5.1398,-5.1394,-5.1394,-5.1394,-5.1394,-5.1394,-5.1394,-5.1394,-5.1394,-5.1394,-5.139,-5.1364,-6.08,-6.08,-6.08,-6.08,-6.08,-6.08,-6.08,-6.08,-6.08,-6.08,-6.08,-6.08,-6.08,-6.08,-6.08,-6.08,-6.08,-6.0823,-6.09,-6.0933,-6.0965,-6.1006,-6.0987,-6.0987,-6.0987,-6.0601,-6.0157,-5.9694,-5.8934,-5.8307,-5.7825,-5.7014,-5.6656,-5.6625,-5.6181,-5.6005,-5.5993,-5.6075,-5.6094,-5.6094,-5.6128,-5.6121,-5.6094,-5.6094,-5.604,-5.6012,-5.6012,-5.6012,-5.5935,-5.5567,-5.5462,-5.5343,-5.4517,-5.4017,-5.3644,-5.3178,-5.2168,-5.1203,-5.1203,-5.1229,-5.1171,-5.0863,-5.0439,-4.9896,-4.9179,-4.8262,-4.748,-4.707,-4.6621,-4.6308,-4.6308,-4.6308,-4.5879,-4.4609,-4.4746,0.0,0.0,-4.4199,-4.5,-4.5,-4.5762,-4.6308,-4.6308,-4.6308,-4.6308,-4.6308,-4.6308,-4.6308,-4.6308,-4.6308,-4.6308,-4.6308,-4.6308,-4.6307,-4.6307,-4.6307,-4.6307,-4.6307,-4.6774,-4.7672,-4.8902,-4.9326,-5.0203,-5.1395,-5.1391,-5.1407,-5.1403,-5.1403,-5.14,-5.1394,-5.1394,-5.1394,-5.1394,-5.1394,-5.1394,-5.1394,-6.08,-6.08,-6.08,-6.08,-6.08,-6.08,-6.08,-6.08,-6.08,-6.08,-6.08,-6.08,-6.08,-6.08,-6.08,-6.08,-6.08,-6.08,-6.08,-6.0846,-6.0911,-6.0955,-6.0955,-6.0955,-6.0955,-6.0955,-6.0627,-5.9971,-5.977,-5.9327,-5.8652,-5.7862,-5.7381,-5.7168,-5.656,-5.6173,-5.5977,-5.5986,-5.5995,-5.5995,-5.6003,-5.6012,-5.6012,-5.6012,-5.6012,-5.6003,-5.5995,-5.5995,-5.5995,-5.5995,-5.5995,-5.5898,-5.5268,-5.4948,-5.4677,-5.4,-5.268,-5.1395,-5.1224,-5.117,-5.1191,-5.1266,-5.0772,-5.0254,-5.0145,-4.9117,-4.8045,-4.7654,-4.705,-4.6543,-4.6348,-4.6308,-4.6016,-4.5137,0.0,0.0,0.0,-4.4746,-4.5293,-4.5293,-4.5898,-4.6308,-4.6308,-4.6308,-4.6308,-4.6308,-4.6308,-4.6308,-4.6308,-4.6308,-4.6308,-4.6308,-4.6308,-4.6308,-4.6308,-4.6308,-4.6308,-4.6308,-4.7187,-4.8065,-4.8925,-4.9742,-5.0599,-5.14,-5.1399,-5.1396,-5.1391,-5.139,-5.1405,-5.1398,-5.1394,-5.1394,-5.1394,-5.1394,-5.1394,-5.1394,-6.08,-6.08,-6.08,-6.08,-6.08,-6.08,-6.08,-6.08,-6.08,-6.08,-6.08,-6.08,-6.08,-6.08,-6.08,-6.08,-6.08,-6.08,-6.08,-6.0812,-6.0812,-6.0812,-6.0812,-6.0812,-6.0812,-6.0812,-6.0773,-6.0716,-5.9964,-5.9562,-5.9485,-5.869,-5.7901,-5.7197,-5.7139,-5.6657,-5.5914,-5.5961,-5.5999,-5.6008,-5.5995,-5.6012,-5.6012,-5.6012,-5.6012,-5.6003,-5.5998,-5.5999,-5.5999,-5.5999,-5.5999,-5.5989,-5.5937,-5.5393,-5.4793,-5.4716,-5.3475,-5.1981,-5.1301,-5.1117,-5.1125,-5.1191,-5.1152,-5.0899,-5.0104,-4.9862,-4.9386,-4.7822,-4.7513,-4.7266,-4.6445,-4.6308,-4.6016,-4.5137,0.0,0.0,-4.5039,-4.5644,-4.6191,-4.6191,-4.6269,-4.6308,-4.6308,-4.6308,-4.6308,-4.6308,-4.6308,-4.6308,-4.6308,-4.6308,-4.6308,-4.6308,-4.6308,-4.6308,-4.6308,-4.6308,-4.6308,-4.6308,-4.7187,-4.8066,-4.8926,-4.9804,-5.0623,-5.1404,-5.14,-5.1398,-5.1397,-5.1393,-5.1409,-5.1408,-5.1398,-5.1394,-5.1394,-5.1394,-5.1394,-5.1394,-6.08,-6.08,-6.08,-6.08,-6.08,-6.08,-6.08,-6.08,-6.08,-6.08,-6.08,-6.08,-6.08,-6.08,-6.08,-6.08,-6.08,-6.08,-6.08,-6.08,-6.08,-6.08,-6.08,-6.08,-6.08,-6.08,-6.08,-6.08,-6.0496,-6.0335,-6.0335,-5.9491,-5.8935,-5.8659,-5.8119,-5.7446,-5.6705,-5.6734,-5.6425,-5.5953,-5.5952,-5.5933,-5.5942,-5.5969,-5.6007,-5.5998,-5.5999,-5.5999,-5.599,-5.5962,-5.5943,-5.5933,-5.5933,-5.5767,-5.5446,-5.4959,-5.4329,-5.3514,-5.2143,-5.1383,-5.101,-5.11,-5.1132,-5.105,-5.0778,-5.0306,-4.9757,-4.9114,-4.8586,-4.7957,-4.7082,-4.6985,-4.6765,-4.5887,0.0,-4.6172,-4.5859,-4.6094,-4.6308,-4.6308,-4.6308,-4.6308,-4.6308,-4.6308,-4.6308,-4.6308,-4.6308,-4.6308,-4.6308,-4.6308,-4.6308,-4.6308,-4.6308,-4.6308,-4.6308,-4.6308,-4.6308,-4.6328,-4.7734,-4.8574,-4.8945,-5.0312,-5.1113,-5.1406,-5.1405,-5.1404,-5.1402,-5.1402,-5.1399,-5.1395,-5.1393,-5.1391,-5.1391,-5.1391,-5.1391,-5.1391,-6.08,-6.08,-6.08,-6.08,-6.08,-6.08,-6.08,-6.08,-6.08,-6.08,-6.08,-6.08,-6.08,-6.08,-6.08,-6.08,-6.08,-6.08,-6.08,-6.08,-6.08,-6.08,-6.08,-6.08,-6.08,-6.08,-6.08,-6.08,-6.08,-6.08,-6.0781,-6.0185,-5.9784,-5.9529,-5.8932,-5.8261,-5.7541,-5.7543,-5.7051,-5.628,-5.6281,-5.6126,-5.5905,-5.5953,-5.5971,-5.5971,-5.5933,-5.5933,-5.5924,-5.5885,-5.5875,-5.5875,-5.5895,-5.5924,-5.5865,-5.5322,-5.4944,-5.448,-5.3299,-5.2139,-5.1242,-5.1088,-5.1037,-5.1043,-5.1092,-5.0685,-5.0198,-4.9925,-4.9417,-4.8737,-4.786,-4.7554,-4.7231,-4.6648,-4.6362,-4.6239,-4.6239,-4.6264,-4.6267,-4.6267,-4.6289,-4.6308,-4.6308,-4.6308,-4.6308,-4.6308,-4.6308,-4.6308,-4.6308,-4.6308,-4.6308,-4.6308,-4.6308,-4.6308,-4.6308,-4.6308,-4.6308,-4.6328,-4.7793,-4.8633,-4.8945,-5.0371,-5.1152,-5.1406,-5.1406,-5.1406,-5.1405,-5.1405,-5.1403,-5.1401,-5.1399,-5.1398,-5.1398,-5.1398,-5.1398,-5.1398,-6.08,-6.08,-6.08,-6.08,-6.08,-6.08,-6.08,-6.08,-6.08,-6.08,-6.08,-6.08,-6.08,-6.08,-6.08,-6.08,-6.08,-6.08,-6.08,-6.08,-6.08,-6.08,-6.08,-6.08,-6.08,-6.08,-6.08,-6.08,-6.08,-6.08,-6.08,-6.08,-6.0339,-5.9511,-5.9511,-5.9069,-5.8319,-5.8316,-5.7856,-5.7116,-5.7109,-5.6628,-5.5914,-5.5914,-5.5914,-5.5895,-5.5826,-5.5797,-5.5797,-5.5797,-5.5797,-5.5816,-5.5885,-5.5895,-5.5895,-5.5895,-5.5297,-5.4612,-5.4687,-5.3449,-5.1912,-5.1103,-5.0917,-5.0898,-5.0898,-5.1004,-5.0847,-4.998,-4.9858,-4.9633,-4.8772,-4.7899,-4.7318,-4.7299,-4.6621,-4.6118,-4.6098,-4.6155,-4.6202,-4.6202,-4.6265,-4.6308,-4.6308,-4.6308,-4.6308,-4.6308,-4.6308,-4.6308,-4.6308,-4.6308,-4.6308,-4.6308,-4.6308,-4.6308,-4.6308,-4.6308,-4.6308,-4.6308,-4.7187,-4.8066,-4.8926,-4.9805,-5.0644,-5.1406,-5.1406,-5.1406,-5.1406,-5.1405,-5.1405,-5.1404,-5.14,-5.1398,-5.1398,-5.1398,-5.1398,-5.1398,-6.08,-6.08,-6.08,-6.08,-6.08,-6.08,-6.08,-6.08,-6.08,-6.08,-6.08,-6.08,-6.08,-6.08,-6.08,-6.08,-6.08,-6.08,-6.08,-6.08,-6.08,-6.08,-6.08,-6.08,-6.08,-6.08,-6.08,-6.08,-6.08,-6.08,-6.08,-6.08,-6.0666,-6.0416,-6.0416,-5.9935,-5.9146,-5.9138,-5.8688,-5.7937,-5.794,-5.7805,-5.7527,-5.6962,-5.6751,-5.6674,-5.6028,-5.5797,-5.5787,-5.5745,-5.5735,-5.5745,-5.5816,-5.5836,-5.5836,-5.5885,-5.5721,-5.5384,-5.4795,-5.4245,-5.353,-5.2147,-5.1351,-5.0898,-5.0898,-5.0937,-5.0896,-5.0637,-5.0595,-5.0358,-4.9517,-4.9204,-4.8656,-4.7437,-4.7068,-4.6738,-4.6176,-4.6118,-4.6131,-4.6131,-4.6147,-4.6189,-4.6234,-4.6237,-4.6243,-4.6308,-4.6308,-4.6308,-4.6308,-4.6308,-4.6308,-4.6308,-4.6308,-4.6308,-4.6308,-4.6308,-4.6308,-4.6328,-4.7793,-4.8652,-4.8945,-5.0391,-5.1172,-5.1406,-5.1406,-5.1406,-5.1406,-5.1406,-5.1406,-5.1406,-5.1406,-5.1405,-5.1405,-5.1405,-5.1405,-5.1405,-6.08,-6.08,-6.08,-6.08,-6.08,-6.08,-6.08,-6.08,-6.08,-6.08,-6.08,-6.08,-6.08,-6.08,-6.08,-6.08,-6.08,-6.08,-6.08,-6.08,-6.08,-6.08,-6.08,-6.08,-6.08,-6.08,-6.08,-6.08,-6.08,-6.08,-6.08,-6.08,-6.08,-6.08,-6.08,-6.0512,-6.0012,-6.0012,-5.9531,-5.8781,-5.8781,-5.8588,-5.8242,-5.7756,-5.7574,-5.7497,-5.6988,-5.6795,-5.6738,-5.634,-5.5992,-5.5714,-5.5745,-5.5756,-5.5766,-5.5816,-5.5816,-5.5711,-5.521,-5.4824,-5.4323,-5.3383,-5.2258,-5.1288,-5.0975,-5.0898,-5.0898,-5.0898,-5.0898,-5.0743,-5.026,-4.9947,-4.9427,-4.8361,-4.7922,-4.7577,-4.7077,-4.6746,-4.6534,-4.6534,-4.6275,-4.6118,-4.6153,-4.6158,-4.6189,-4.6212,-4.6213,-4.6238,-4.6265,-4.6265,-4.6267,-4.6308,-4.6621,-4.6641,-4.6308,-4.6973,-4.7168,-4.6836,-4.7871,-4.875,-4.9453,-5.0469,-5.1094,-5.1406,-5.1406,-5.1406,-5.1406,-5.1406,-5.1406,-5.1406,-5.1406,-5.1406,-5.1406,-5.1406,-5.1406,-5.1406,-6.08,-6.08,-6.08,-6.08,-6.08,-6.08,-6.08,-6.08,-6.08,-6.08,-6.08,-6.08,-6.08,-6.08,-6.08,-6.08,-6.08,-6.08,-6.08,-6.08,-6.08,-6.08,-6.08,-6.08,-6.08,-6.08,-6.08,-6.08,-6.08,-6.08,-6.08,-6.08,-6.08,-6.08,-6.08,-6.08,-6.08,-6.08,-6.0339,-5.9627,-5.9627,-5.9184,-5.8511,-5.8434,-5.8415,-5.8396,-5.8338,-5.83,-5.8184,-5.7376,-5.6541,-5.5818,-5.5818,-5.5761,-5.5703,-5.5703,-5.5703,-5.5714,-5.5766,-5.5218,-5.4602,-5.4583,-5.3434,-5.2069,-5.1211,-5.1006,-5.0995,-5.0917,-5.0898,-5.0898,-5.0898,-5.0299,-4.9784,-4.9707,-4.903,-4.8488,-4.8411,-4.7766,-4.7315,-4.7315,-4.6649,-4.6197,-4.6204,-4.6134,-4.6098,-4.6098,-4.6098,-4.6128,-4.6195,-4.6255,-4.6329,-4.6385,-4.7225,-4.7304,-4.6523,-4.8086,-4.8457,-4.7598,-4.7754,-4.8652,-5.0195,-5.0273,-5.0703,-5.1406,-5.1406,-5.1406,-5.1406,-5.1406,-5.1406,-5.1406,-5.1406,-5.1406,-5.1406,-5.1406,-5.1406,-5.1406,-6.08,-6.08,-6.08,-6.08,-6.08,-6.08,-6.08,-6.08,-6.08,-6.08,-6.08,-6.08,-6.08,-6.08,-6.08,-6.08,-6.08,-6.08,-6.08,-6.08,-6.08,-6.08,-6.08,-6.08,-6.08,-6.08,-6.08,-6.08,-6.08,-6.08,-6.08,-6.08,-6.08,-6.08,-6.08,-6.08,-6.08,-6.08,-6.0685,-6.0512,-6.0512,-6.0416,-6.0185,-5.9492,-5.9242,-5.9165,-5.8531,-5.83,-5.828,-5.8088,-5.7434,-5.6714,-5.6714,-5.6252,-5.5703,-5.5703,-5.5703,-5.5714,-5.5724,-5.559,-5.5292,-5.4679,-5.4255,-5.361,-5.2171,-5.1848,-5.1661,-5.1032,-5.0901,-5.0898,-5.0898,-5.0763,-5.0434,-4.9803,-4.9533,-4.9184,-4.8508,-4.8247,-4.8152,-4.8152,-4.7404,-4.6899,-4.6955,-4.643,-4.6098,-4.6098,-4.6098,-4.6109,-4.6122,-4.6723,-4.708,-4.7072,-4.7927,-4.8321,-4.8182,-4.8553,-4.835,-4.7617,-4.8984,-4.9824,-5.0215,-5.0859,-5.123,-5.1406,-5.1406,-5.1406,-5.1406,-5.1406,-5.1406,-5.1406,-5.1406,-5.1406,-5.1406,-5.1406,-5.1406,-5.1406,-6.08,-6.08,-6.08,-6.08,-6.08,-6.08,-6.08,-6.08,-6.08,-6.08,-6.08,-6.08,-6.08,-6.08,-6.08,-6.08,-6.08,-6.08,-6.08,-6.08,-6.08,-6.08,-6.08,-6.08,-6.08,-6.08,-6.08,-6.08,-6.08,-6.08,-6.08,-6.08,-6.08,-6.08,-6.08,-6.08,-6.08,-6.08,-6.08,-6.08,-6.08,-6.08,-6.0742,-6.0281,-6.0127,-6.0069,-5.9646,-5.9223,-5.8877,-5.8877,-5.8319,-5.755,-5.7137,-5.6695,-5.6252,-5.5818,-5.5703,-5.5703,-5.5703,-5.5703,-5.5598,-5.5177,-5.5072,-5.4649,-5.3041,-5.2383,-5.1985,-5.1561,-5.1134,-5.0869,-5.0885,-5.0893,-5.0766,-5.0337,-5.026,-5.0105,-4.9668,-4.9262,-4.903,-4.903,-4.8256,-4.7724,-4.776,-4.742,-4.7206,-4.7206,-4.7206,-4.7208,-4.7237,-4.7645,-4.7897,-4.7918,-4.8776,-4.9048,-4.8658,-4.948,-4.9496,-4.8701,-4.9723,-5.0391,-5.0781,-5.1211,-5.1406,-5.1406,-5.1406,-5.1406,-5.1406,-5.1406,-5.1406,-5.1406,-5.1406,-5.1406,-5.1406,-5.1406,-5.1406,-5.1406,-6.08,-6.08,-6.08,-6.08,-6.08,-6.08,-6.08,-6.08,-6.08,-6.08,-6.08,-6.08,-6.08,-6.08,-6.08,-6.08,-6.08,-6.08,-6.08,-6.08,-6.08,-6.08,-6.08,-6.08,-6.08,-6.08,-6.08,-6.08,-6.08,-6.08,-6.08,-6.08,-6.08,-6.08,-6.08,-6.08,-6.08,-6.08,-6.08,-6.08,-6.08,-6.08,-6.08,-6.08,-6.08,-6.08,-6.08,-6.0339,-5.9723,-5.9723,-5.9184,-5.8377,-5.7646,-5.7234,-5.6868,-5.6126,-5.5818,-5.5703,-5.5703,-5.5703,-5.5703,-5.5703,-5.5703,-5.534,-5.3995,-5.3099,-5.2433,-5.2144,-5.1517,-5.0984,-5.0902,-5.0872,-5.088,-5.0874,-5.0882,-5.0882,-5.0882,-5.0302,-4.9877,-4.9904,-4.9138,-4.8566,-4.8411,-4.8392,-4.8392,-4.8392,-4.8392,-4.8423,-4.8475,-4.8617,-4.8735,-4.8783,-4.9629,-4.9731,-4.9024,-5.0454,-5.0836,-5.0128,-5.0287,-5.0719,-5.1363,-5.1385,-5.1386,-5.1386,-5.1406,-5.1406,-5.1406,-5.1406,-5.1406,-5.1406,-5.1406,-5.1406,-5.1406,-5.1406,-5.1406,-5.1406,-6.08,-6.08,-6.08,-6.08,-6.08,-6.08,-6.08,-6.08,-6.08,-6.08,-6.08,-6.08,-6.08,-6.08,-6.08,-6.08,-6.08,-6.08,-6.08,-6.08,-6.08,-6.08,-6.08,-6.08,-6.08,-6.08,-6.08,-6.08,-6.08,-6.08,-6.08,-6.08,-6.08,-6.08,-6.08,-6.08,-6.08,-6.08,-6.08,-6.08,-6.08,-6.08,-6.08,-6.08,-6.08,-6.08,-6.08,-6.0723,-6.0608,-6.0608,-6.005,-5.9319,-5.9204,-5.8165,-5.6983,-5.6868,-5.6291,-5.5703,-5.5703,-5.5703,-5.5703,-5.5703,-5.5703,-5.5637,-5.5436,-5.4755,-5.3764,-5.2309,-5.1971,-5.1699,-5.0936,-5.081,-5.081,-5.0819,-5.0819,-5.0819,-5.0819,-5.0722,-5.0673,-5.0734,-5.0012,-4.9223,-4.8469,-4.8392,-4.8392,-4.8392,-4.8392,-4.8399,-4.8401,-4.9137,-4.9531,-4.9553,-5.0347,-5.0752,-5.0753,-5.1011,-5.1079,-5.1024,-5.1046,-5.1115,-5.1236,-5.1288,-5.1304,-5.1325,-5.1365,-5.1406,-5.1406,-5.1406,-5.1406,-5.1406,-5.1406,-5.1406,-5.1406,-5.1406,-5.1406,-5.1406,-6.0279,-6.0395,-6.0462,-6.0279,-6.0395,-6.0449,-6.0265,-6.0409,-6.052,-6.052,-6.052,-6.0585,-6.0788,-6.08,-6.08,-6.08,-6.08,-6.08,-6.08,-6.08,-6.08,-6.08,-6.08,-6.08,-6.08,-6.08,-6.08,-6.08,-6.08,-6.08,-6.08,-6.08,-6.08,-6.08,-6.08,-6.08,-6.08,-6.08,-6.08,-6.08,-6.08,-6.08,-6.08,-6.08,-6.08,-6.08,-6.08,-6.08,-6.08,-6.08,-6.0531,-6.0146,-5.9646,-5.8992,-5.8204,-5.7272,-5.6733,-5.6329,-5.5818,-5.5703,-5.5703,-5.5703,-5.5703,-5.5703,-5.5703,-5.5436,-5.483,-5.3637,-5.3022,-5.2473,-5.1615,-5.147,-5.1325,-5.087,-5.0801,-5.0801,-5.0801,-5.0801,-5.081,-5.0846,-5.0535,-5.0157,-4.9771,-4.9732,-4.9732,-4.9732,-4.9776,-4.9811,-4.9811,-5.0155,-5.0376,-5.0376,-5.0705,-5.0937,-5.0983,-5.0983,-5.0998,-5.1023,-5.1023,-5.1092,-5.1203,-5.1239,-5.1232,-5.1252,-5.1279,-5.1288,-5.1288,-5.1288,-5.0998,-5.0573,-5.0591,-5.0367,-5.0058,-5.0547,-5.043,-5.0]},{"header":{"parameterUnit":"m.s-1","parameterCategory":1,"la1":30.6,"la2":28.766,"lo1":-90.7593,"lo2":-88.6598,"dy":0.0162,"dx":0.0183,"nx":116,"ny":114,"refTime":"2024-07-04T12:00:00:Z","depth":0,"parameterNumber":3,"parameterNumberName":"V-component_of_WINDS"},"data":[0.0,0.0,0.0,0.0,0.0,0.0,0.0,0.0,0.0,0.0,0.0,0.0,0.0,0.0,0.0,0.0,0.0,0.0,0.0,0.0,0.0,0.0,0.0,0.0,0.0,0.0,0.0,0.0,0.0,0.0,0.0,0.0,0.0,0.0,0.0,0.0,0.0,0.0,0.0,0.0,0.0,0.0,0.0,0.0,0.0,0.0,0.0,0.0,0.0,0.0,0.0,0.0,0.0,0.0,0.0,0.0,0.0,0.0,0.0,0.0,0.0,0.0,0.0,0.0,0.0,0.0,0.0,0.0,0.0,0.0,0.0,0.0,0.0,0.0,0.0,0.0,0.0,0.0,0.0,0.0,0.0,0.0,0.0,0.0,0.0,0.0,0.0,0.0,0.0,0.0,0.0,0.0,0.0,0.0,0.0,0.0,0.0,0.0,0.0,0.0,0.0,0.0,0.0,0.0,0.0,0.0,0.0,0.0,0.0,0.0,0.0,0.0,0.0,0.0,0.0,0.0,0.0,0.0,0.0,0.0,0.0,0.0,0.0,0.0,0.0,0.0,0.0,0.0,0.0,0.0,0.0,0.0,0.0,0.0,0.0,0.0,0.0,0.0,0.0,0.0,0.0,0.0,0.0,0.0,0.0,0.0,0.0,0.0,0.0,0.0,0.0,0.0,0.0,0.0,0.0,0.0,0.0,0.0,0.0,0.0,0.0,0.0,0.0,0.0,0.0,0.0,0.0,0.0,0.0,0.0,0.0,0.0,0.0,0.0,0.0,0.0,0.0,0.0,0.0,0.0,0.0,0.0,0.0,0.0,0.0,0.0,0.0,0.0,0.0,0.0,0.0,0.0,0.0,0.0,0.0,0.0,0.0,0.0,0.0,0.0,0.0,0.0,0.0,0.0,0.0,0.0,0.0,0.0,0.0,0.0,0.0,0.0,0.0,0.0,0.0,0.0,0.0,0.0,0.0,0.0,0.0,0.0,0.0,0.0,0.0,0.0,0.0,0.0,0.0,0.0,0.0,0.0,0.0,0.0,0.0,0.0,0.0,0.0,0.0,0.0,0.0,0.0,0.0,0.0,0.0,0.0,0.0,0.0,0.0,0.0,0.0,0.0,0.0,0.0,0.0,0.0,0.0,0.0,0.0,0.0,0.0,0.0,0.0,0.0,0.0,0.0,0.0,0.0,0.0,0.0,0.0,0.0,0.0,0.0,0.0,0.0,0.0,0.0,0.0,0.0,0.0,0.0,0.0,0.0,0.0,0.0,0.0,0.0,0.0,0.0,0.0,0.0,0.0,0.0,0.0,0.0,0.0,0.0,0.0,0.0,0.0,0.0,0.0,0.0,0.0,0.0,0.0,0.0,0.0,0.0,0.0,0.0,0.0,0.0,0.0,0.0,0.0,0.0,0.0,0.0,0.0,0.0,0.0,0.0,0.0,0.0,0.0,0.0,0.0,0.0,0.0,0.0,0.0,0.0,0.0,0.0,0.0,0.0,0.0,0.0,0.0,0.0,0.0,0.0,0.0,0.0,0.0,0.0,0.0,0.0,0.0,0.0,0.0,0.0,0.0,0.0,0.0,0.0,0.0,0.0,0.0,0.0,0.0,0.0,0.0,0.0,0.0,0.0,0.0,0.0,0.0,0.0,0.0,0.0,0.0,0.0,0.0,0.0,0.0,0.0,0.0,0.0,0.0,0.0,0.0,0.0,0.0,0.0,0.0,0.0,0.0,0.0,0.0,0.0,0.0,0.0,0.0,0.0,0.0,0.0,0.0,0.0,0.0,0.0,0.0,0.0,0.0,0.0,0.0,0.0,0.0,0.0,0.0,0.0,0.0,0.0,0.0,0.0,0.0,0.0,0.0,0.0,0.0,0.0,0.0,0.0,0.0,0.0,0.0,0.0,0.0,0.0,0.0,0.0,0.0,0.0,0.0,0.0,0.0,0.0,0.0,0.0,0.0,0.0,0.0,0.0,0.0,0.0,0.0,0.0,0.0,0.0,0.0,0.0,0.0,0.0,0.0,0.0,0.0,0.0,0.0,0.0,0.0,0.0,0.0,0.0,0.0,0.0,0.0,0.0,0.0,0.0,0.0,0.0,0.0,0.0,0.0,0.0,0.0,0.0,0.0,0.0,0.0,0.0,0.0,0.0,0.0,0.0,0.0,0.0,0.0,0.0,0.0,0.0,0.0,0.0,0.0,0.0,0.0,0.0,0.0,0.0,0.0,0.0,0.0,0.0,0.0,0.0,0.0,0.0,0.0,0.0,0.0,0.0,0.0,0.0,0.0,0.0,0.0,0.0,0.0,0.0,0.0,0.0,0.0,0.0,0.0,0.0,0.0,0.0,0.0,0.0,0.0,0.0,0.0,0.0,0.0,0.0,0.0,0.0,0.0,0.0,0.0,0.0,0.0,0.0,0.0,0.0,0.0,0.0,0.0,0.0,0.0,0.0,0.0,0.0,0.0,0.0,0.0,0.0,0.0,0.0,0.0,0.0,0.0,0.0,0.0,0.0,0.0,0.0,0.0,0.0,0.0,0.0,0.0,0.0,0.0,0.0,0.0,0.0,0.0,0.0,0.0,0.0,0.0,0.0,0.0,0.0,0.0,0.0,0.0,0.0,0.0,0.0,0.0,0.0,0.0,0.0,0.0,0.0,0.0,0.0,0.0,0.0,0.0,0.0,0.0,0.0,0.0,0.0,0.0,0.0,0.0,0.0,0.0,0.0,0.0,0.0,0.0,0.0,0.0,0.0,0.0,0.0,0.0,0.0,0.0,0.0,0.0,0.0,0.0,0.0,0.0,0.0,0.0,0.0,0.0,0.0,0.0,0.0,0.0,0.0,0.0,0.0,0.0,0.0,0.0,0.0,0.0,0.0,0.0,0.0,0.0,0.0,0.0,0.0,0.0,0.0,0.0,0.0,0.0,0.0,0.0,0.0,0.0,0.0,0.0,0.0,0.0,0.0,0.0,0.0,0.0,0.0,0.0,0.0,0.0,0.0,0.0,0.0,0.0,0.0,0.0,0.0,0.0,0.0,0.0,0.0,0.0,0.0,0.0,0.0,0.0,0.0,0.0,0.0,0.0,0.0,0.0,0.0,0.0,0.0,0.0,0.0,0.0,0.0,0.0,0.0,0.0,0.0,0.0,0.0,0.0,0.0,0.0,0.0,0.0,0.0,0.0,0.0,0.0,0.0,0.0,0.0,0.0,0.0,0.0,0.0,0.0,0.0,0.0,0.0,0.0,0.0,0.0,0.0,0.0,0.0,0.0,0.0,0.0,0.0,0.0,0.0,0.0,0.0,0.0,0.0,0.0,0.0,0.0,0.0,0.0,0.0,0.0,0.0,0.0,0.0,0.0,0.0,0.0,0.0,0.0,0.0,0.0,0.0,0.0,0.0,0.0,0.0,0.0,0.0,0.0,0.0,0.0,0.0,0.0,0.0,0.0,0.0,0.0,0.0,0.0,0.0,0.0,0.0,0.0,0.0,0.0,0.0,0.0,0.0,0.0,0.0,0.0,0.0,0.0,0.0,0.0,0.0,0.0,0.0,0.0,0.0,0.0,0.0,0.0,0.0,0.0,0.0,0.0,0.0,0.0,0.0,0.0,0.0,0.0,0.0,0.0,0.0,0.0,0.0,0.0,0.0,0.0,0.0,0.0,0.0,0.0,0.0,0.0,0.0,0.0,0.0,0.0,0.0,0.0,0.0,0.0,0.0,0.0,0.0,0.0,0.0,0.0,0.0,0.0,0.0,0.0,0.0,0.0,0.0,0.0,0.0,0.0,0.0,0.0,0.0,0.0,0.0,0.0,0.0,0.0,0.0,0.0,0.0,0.0,0.0,0.0,0.0,0.0,0.0,0.0,0.0,0.0,0.0,0.0,0.0,0.0,0.0,0.0,0.0,0.0,0.0,0.0,0.0,0.0,0.0,0.0,0.0,0.0,0.0,0.0,0.0,0.0,0.0,0.0,0.0,0.0,0.0,0.0,0.0,0.0,0.0,0.0,0.0,0.0,0.0,0.0,0.0,0.0,0.0,0.0,0.0,0.0,0.0,0.0,0.0,0.0,0.0,0.0,0.0,0.0,0.0,0.0,0.0,0.0,0.0,0.0,0.0,0.0,0.0,0.0,0.0,0.0,0.0,0.0,0.0,0.0,0.0,0.0,0.0,0.0,0.0,0.0,0.0,0.0,0.0,0.0,0.0,0.0,0.0,0.0,0.0,0.0,0.0,0.0,0.0,0.0,0.0,0.0,0.0,0.0,0.0,0.0,0.0,0.0,0.0,0.0,0.0,0.0,0.0,0.0,0.0,0.0,0.0,0.0,0.0,0.0,0.0,0.0,0.0,0.0,0.0,0.0,0.0,0.0,0.0,0.0,0.0,0.0,0.0,0.0,0.0,0.0,0.0,0.0,0.0,0.0,0.0,0.0,0.0,0.0,0.0,0.0,0.0,0.0,0.0,0.0,0.0,0.0,0.0,0.0,0.0,0.0,0.0,0.0,0.0,0.0,0.0,0.0,0.0,0.0,0.0,0.0,0.0,0.0,0.0,0.0,0.0,0.0,0.0,0.0,0.0,0.0,0.0,0.0,0.0,0.0,0.0,0.0,0.0,0.0,0.0,0.0,0.0,0.0,0.0,0.0,0.0,0.0,0.0,0.0,0.0,0.0,0.0,0.0,0.0,0.0,0.0,0.0,0.0,0.0,0.0,0.0,0.0,0.0,0.0,0.0,0.0,0.0,0.0,0.0,0.0,0.0,0.0,0.0,0.0,0.0,0.0,0.0,0.0,0.0,0.0,0.0,0.0,0.0,0.0,0.0,0.0,0.0,0.0,0.0,0.0,0.0,0.0,0.0,0.0,0.0,0.0,0.0,0.0,0.0,0.0,0.0,0.0,0.0,0.0,0.0,0.0,0.0,0.0,0.0,0.0,0.0,0.0,0.0,0.0,0.0,0.0,0.0,0.0,0.0,0.0,0.0,0.0,0.0,0.0,0.0,0.0,0.0,0.0,0.0,0.0,0.0,0.0,0.0,0.0,0.0,0.0,0.0,0.0,0.0,0.0,0.0,0.0,0.0,0.0,0.0,0.0,0.0,0.0,0.0,0.0,0.0,0.0,0.0,0.0,0.0,0.0,0.0,0.0,0.0,0.0,0.0,0.0,0.0,0.0,0.0,0.0,0.0,0.0,0.0,0.0,0.0,0.0,0.0,0.0,0.0,0.0,0.0,0.0,0.0,0.0,0.0,0.0,0.0,0.0,0.0,0.0,0.0,0.0,0.0,0.0,0.0,0.0,0.0,0.0,0.0,0.0,0.0,0.0,0.0,0.0,0.0,0.0,0.0,0.0,0.0,0.0,0.0,0.0,0.0,0.0,0.0,0.0,0.0,0.0,0.0,0.0,0.0,0.0,0.0,0.0,0.0,0.0,0.0,0.0,0.0,0.0,0.0,0.0,0.0,0.0,0.0,0.0,0.0,0.0,0.0,0.0,0.0,0.0,0.0,0.0,0.0,0.0,0.0,0.0,0.0,0.0,0.0,0.0,0.0,0.0,0.0,0.0,0.0,0.0,0.0,0.0,0.0,0.0,0.0,0.0,0.0,0.0,0.0,0.0,0.0,0.0,0.0,0.0,0.0,0.0,0.0,0.0,0.0,0.0,0.0,0.0,0.0,0.0,0.0,0.0,0.0,0.0,0.0,0.0,0.0,0.0,0.0,0.0,0.0,0.0,0.0,0.0,0.0,0.0,0.0,0.0,0.0,0.0,0.0,0.0,0.0,0.0,0.0,0.0,0.0,0.0,0.0,0.0,0.0,0.0,0.0,0.0,0.0,0.0,0.0,0.0,0.0,0.0,0.0,0.0,0.0,0.0,0.0,0.0,0.0,0.0,0.0,0.0,0.0,0.0,0.0,0.0,0.0,0.0,0.0,0.0,0.0,0.0,0.0,0.0,0.0,0.0,0.0,0.0,0.0,0.0,0.0,0.0,0.0,0.0,0.0,0.0,0.0,0.0,0.0,0.0,0.0,0.0,0.0,0.0,0.0,0.0,0.0,0.0,0.0,0.0,0.0,0.0,0.0,0.0,0.0,0.0,0.0,0.0,0.0,0.0,-1.2953,0.0,0.0,0.0,0.0,0.0,0.0,0.0,0.0,0.0,0.0,0.0,0.0,0.0,0.0,0.0,0.0,0.0,0.0,0.0,0.0,0.0,0.0,0.0,0.0,-0.2168,-0.2367,-0.2534,-0.2692,-0.2844,-0.2934,0.0,0.0,0.0,0.0,0.0,-0.3042,-0.3039,-0.3156,-0.3396,-0.3459,-0.3618,-0.3836,-0.3863,-0.3719,-0.344,0.0,0.0,0.0,0.0,0.0,0.0,0.0,0.0,0.0,0.0,0.0,0.0,0.0,0.0,0.0,0.0,0.0,0.0,0.0,0.0,0.0,0.0,0.0,0.0,0.0,0.0,0.0,0.0,0.0,0.0,0.0,0.0,0.0,0.0,0.0,0.0,0.0,0.0,0.0,0.0,0.0,0.0,0.0,0.0,0.0,0.0,0.0,0.0,0.0,0.0,0.0,0.0,0.0,0.0,0.0,0.0,0.0,0.0,0.0,0.0,0.0,0.0,0.0,0.0,0.0,0.0,0.0,0.0,0.0,0.0,0.0,-1.4345,0.0,0.0,0.0,0.0,0.0,0.0,0.0,0.0,0.0,0.0,0.0,0.0,0.0,0.0,0.0,0.0,0.0,0.0,0.0,0.0,0.0,-0.1525,-0.1844,-0.213,-0.2445,-0.2783,-0.2834,-0.2919,-0.3139,-0.3178,0.0,0.0,0.0,-0.3168,-0.3161,-0.3185,-0.3334,-0.3581,-0.369,-0.397,-0.4409,-0.4751,-0.455,-0.3907,-0.3832,0.0,0.0,0.0,0.0,0.0,0.0,0.0,0.0,0.0,0.0,0.0,0.0,0.0,0.0,0.0,0.0,0.0,0.0,0.0,0.0,0.0,0.0,0.0,0.0,0.0,0.0,0.0,0.0,0.0,0.0,0.0,0.0,0.0,0.0,0.0,0.0,0.0,0.0,0.0,0.0,0.0,0.0,0.0,0.0,0.0,0.0,0.0,0.0,0.0,0.0,0.0,0.0,0.0,0.0,0.0,0.0,0.0,0.0,0.0,0.0,0.0,0.0,0.0,-1.589,-1.6188,-1.6719,-1.6719,-1.6743,-1.6709,-1.6095,-1.584,-1.5811,0.0,0.0,0.0,0.0,0.0,0.0,0.0,0.0,0.0,0.0,0.0,0.0,0.0,0.0,0.0,0.0,0.0,0.0,0.0,0.0,-0.1611,-0.2177,-0.2278,-0.246,-0.285,-0.2947,-0.3079,-0.3355,-0.3474,0.0,0.0,-0.3446,-0.3477,-0.3365,-0.3528,-0.3718,-0.3922,-0.4448,-0.4883,-0.5243,-0.5293,-0.5267,-0.5122,-0.4517,-0.4313,-0.4419,0.0,0.0,0.0,0.0,0.0,0.0,0.0,0.0,0.0,0.0,0.0,0.0,0.0,0.0,0.0,0.0,0.0,0.0,0.0,0.0,0.0,0.0,0.0,0.0,0.0,0.0,0.0,0.0,0.0,0.0,0.0,0.0,0.0,0.0,0.0,0.0,0.0,0.0,0.0,0.0,0.0,-1.0628,-1.0337,0.0,0.0,0.0,0.0,0.0,0.0,0.0,0.0,0.0,0.0,0.0,0.0,0.0,-1.567,-1.6615,-1.6871,-1.7182,-1.7568,-1.7814,-1.7982,-1.8063,-1.8063,-1.8044,-1.8066,-1.8894,0.0,-1.6573,-1.7982,0.0,0.0,0.0,0.0,0.0,0.0,0.0,0.0,0.0,0.0,0.0,0.0,0.0,0.0,0.0,0.0,0.0,0.0,0.0,0.0,0.0,-0.259,-0.2793,-0.3152,-0.3288,-0.3398,-0.3497,-0.3631,-0.3632,-0.3487,-0.3544,-0.3607,-0.3621,-0.3705,-0.3966,-0.438,-0.4935,-0.5307,-0.5529,-0.5573,-0.561,-0.5624,-0.5206,-0.4944,-0.4738,-0.4419,0.0,0.0,0.0,0.0,0.0,0.0,0.0,0.0,0.0,0.0,0.0,0.0,0.0,0.0,0.0,0.0,0.0,0.0,0.0,0.0,0.0,0.0,0.0,0.0,0.0,0.0,0.0,0.0,0.0,0.0,0.0,0.0,0.0,0.0,0.0,0.0,0.0,0.0,0.0,-1.0211,-1.1458,-1.1398,-1.179,-1.1881,0.0,0.0,0.0,0.0,0.0,0.0,0.0,0.0,0.0,-1.6234,-1.6771,-1.7363,-1.7988,-1.8323,-1.8627,-1.8961,-1.9447,-1.9731,-1.9851,-1.9851,-1.9851,-1.9904,-2.0734,-2.0408,-1.9327,-1.9661,-1.943,-1.8892,0.0,0.0,0.0,0.0,-1.9773,-1.9729,0.0,0.0,0.0,0.0,0.0,0.0,0.0,0.0,0.0,0.0,0.0,0.0,-0.2696,-0.2887,-0.311,-0.3475,-0.36,-0.3683,-0.3754,-0.3792,-0.3744,-0.3662,-0.3658,-0.3706,-0.3788,-0.3944,-0.4297,-0.4894,-0.5306,-0.5586,-0.5705,-0.585,-0.5918,-0.5915,-0.581,-0.5566,-0.5185,-0.4979,-0.4723,-0.4422,0.0,0.0,0.0,0.0,0.0,0.0,0.0,0.0,0.0,0.0,0.0,0.0,0.0,0.0,0.0,0.0,0.0,0.0,0.0,0.0,0.0,0.0,0.0,0.0,0.0,0.0,0.0,0.0,0.0,0.0,0.0,0.0,0.0,0.0,0.0,0.0,0.0,-1.1019,-1.2148,-1.2375,-1.2995,-1.3228,0.0,0.0,0.0,0.0,0.0,0.0,-1.5584,-1.6327,-1.6997,-1.7607,-1.8364,-1.8892,-1.9155,-1.9396,-1.9645,-1.9933,-2.0521,-2.091,-2.1093,-2.1093,-2.1093,-2.1155,-2.1742,-2.1814,-2.1494,-2.1121,-2.0749,-2.0443,-2.0205,-2.0097,-2.0188,-2.0886,-2.1076,-2.1065,0.0,0.0,0.0,0.0,0.0,0.0,0.0,0.0,0.0,0.0,0.0,-0.2221,-0.2832,-0.3063,-0.3352,-0.3742,-0.3781,-0.3886,0.0,-0.3927,-0.3788,-0.3782,-0.3782,-0.3785,-0.3792,-0.4351,-0.49,-0.5361,-0.563,-0.5857,-0.5973,-0.6166,-0.6276,-0.6276,-0.6269,-0.6166,-0.6012,-0.5424,-0.524,-0.5296,-0.4786,0.0,0.0,0.0,0.0,0.0,0.0,0.0,0.0,0.0,0.0,0.0,0.0,0.0,0.0,0.0,0.0,0.0,0.0,0.0,0.0,0.0,0.0,0.0,0.0,0.0,0.0,0.0,0.0,0.0,0.0,0.0,0.0,0.0,0.0,0.0,0.0,0.0,0.0,-1.3433,-1.4238,0.0,0.0,0.0,0.0,-1.4772,-1.5824,-1.6799,-1.7629,-1.8431,-1.9085,-1.9639,-1.9698,-1.9881,-2.0103,-2.0124,-2.0139,-2.0216,-2.0807,-2.1078,-2.1093,-2.1093,-2.1093,-2.1155,-2.1742,-2.2003,-2.1977,-2.2333,-2.2394,-2.2263,-2.2263,-2.2387,-2.2567,-2.2365,-2.2288,-2.2317,0.0,0.0,0.0,-0.0384,-0.0683,-0.1019,-0.1345,-0.1544,-0.1807,-0.2239,-0.2469,-0.2672,-0.2943,-0.3265,-0.3583,-0.3899,-0.3995,-0.4101,-0.4205,-0.4121,-0.4058,-0.4058,-0.4058,-0.4193,-0.4511,-0.4945,-0.5375,-0.5793,-0.5356,-0.5283,-0.5528,-0.4968,-0.4704,-0.4704,-0.5354,-0.5709,-0.5786,-0.5739,-0.5552,-0.5315,-0.5135,-0.4754,0.0,0.0,0.0,0.0,0.0,0.0,0.0,0.0,0.0,0.0,0.0,0.0,0.0,0.0,0.0,0.0,0.0,0.0,0.0,0.0,0.0,0.0,0.0,0.0,0.0,0.0,0.0,0.0,0.0,0.0,0.0,0.0,0.0,0.0,0.0,0.0,0.0,-1.5006,-1.5716,0.0,-1.5436,-1.5685,-1.6096,-1.6695,-1.734,-1.8119,-1.906,-1.9384,-1.9702,-2.0055,-2.0267,-2.0537,-2.0859,-2.1072,-2.1181,-2.1174,-2.2191,-2.2526,-2.2363,-2.2696,-2.2918,-2.291,-2.3139,-2.3194,-2.3263,-2.3524,-2.3341,-2.2844,-2.2836,-2.2792,-2.2631,-2.2276,-2.2631,-2.3205,0.0202,-0.0034,0.0,-0.0471,-0.0758,-0.1102,-0.1474,-0.1776,-0.2073,-0.2392,-0.2732,-0.3006,-0.3183,-0.3566,-0.388,-0.4104,-0.4263,-0.4354,-0.4357,-0.425,-0.4197,-0.4197,-0.4318,-0.4581,-0.506,-0.541,-0.5613,-0.5607,-0.5475,-0.5203,-0.4772,-0.4439,-0.4105,-0.3815,-0.4481,-0.5064,-0.5501,-0.5682,-0.5771,-0.5718,-0.5676,-0.5358,-0.4927,0.0,0.0,0.0,0.0,0.0,0.0,0.0,0.0,0.0,0.0,0.0,0.0,0.0,0.0,0.0,0.0,0.0,0.0,0.0,0.0,0.0,0.0,0.0,0.0,0.0,0.0,0.0,0.0,0.0,0.0,0.0,0.0,0.0,0.0,0.0,-1.5584,-1.6016,-1.6923,-1.7387,-1.6901,-1.7394,-1.7945,-1.843,-1.8672,-1.9177,-2.004,-2.0194,-2.0398,-2.072,-2.105,-2.1428,-2.1815,-2.2089,-2.2318,-2.2494,-2.3539,-2.3883,-2.3714,-2.4113,-2.4284,-2.4284,-2.4284,-2.421,-2.4134,-2.4441,-2.4256,-2.3665,-2.3713,-2.3608,-2.3396,-2.3444,-2.3908,-2.4573,0.0213,0.0135,-0.0078,-0.0603,-0.0916,-0.1244,-0.1703,-0.2066,-0.2384,-0.2653,-0.2878,-0.3164,-0.3539,-0.3939,-0.4235,-0.4382,-0.4506,-0.4633,-0.4701,-0.4388,-0.4207,-0.422,-0.4558,-0.4958,-0.5412,-0.5817,-0.5616,-0.4862,-0.6072,-0.5702,-0.3823,-0.4782,-0.4699,-0.3781,-0.3823,-0.4365,-0.5324,-0.5324,-0.5848,-0.6604,-0.6382,-0.6093,-0.5785,0.0,0.0,0.0,0.0,0.0,0.0,0.0,0.0,0.0,0.0,0.0,0.0,0.0,0.0,0.0,0.0,0.0,0.0,0.0,0.0,0.0,0.0,0.0,0.0,0.0,0.0,0.0,0.0,0.0,0.0,0.0,0.0,0.0,-1.4614,-1.5656,-1.647,-1.6499,-1.7893,-1.8562,-1.7947,-1.8752,-1.9492,-1.9823,-1.9859,-2.0084,-2.072,-2.1064,-2.1386,-2.1701,-2.2015,-2.2475,-2.3108,-2.3108,-2.3472,-2.407,-2.4717,-2.5002,-2.4994,-2.4994,-2.5052,-2.5052,-2.5052,-2.4854,-2.458,-2.5216,-2.5228,-2.4872,-2.4943,-2.4997,-2.5102,-2.5966,-2.6317,-2.6404,0.0213,-0.0011,-0.0247,-0.0449,-0.074,-0.0993,-0.1132,-0.168,-0.2121,-0.2245,-0.2781,-0.3218,-0.343,-0.3806,-0.4104,-0.4251,-0.4366,-0.4526,-0.4694,-0.4511,-0.4548,-0.4844,-0.5179,-0.5586,-0.604,-0.617,-0.6254,-0.6319,-0.6011,-0.5274,-0.4172,-0.3736,-0.3431,-0.3167,-0.3868,-0.4699,-0.5619,-0.6315,-0.6672,-0.6805,-0.6581,-0.6367,-0.6157,0.0,0.0,0.0,0.0,0.0,0.0,0.0,0.0,0.0,0.0,0.0,0.0,0.0,0.0,0.0,0.0,0.0,0.0,0.0,0.0,0.0,0.0,0.0,0.0,0.0,0.0,0.0,0.0,0.0,0.0,0.0,0.0,-1.5943,-1.5905,-1.6755,-1.7684,-1.8443,-1.8869,-1.925,-1.9542,-1.9813,-2.0106,-2.0435,-2.0676,-2.0991,-2.1408,-2.1737,-2.1957,-2.2045,-2.2132,-2.2339,-2.2734,-2.3218,-2.358,-2.376,-2.4846,-2.525,-2.4994,-2.5469,-2.5644,-2.5644,-2.5644,-2.5584,-2.5598,-2.6443,-2.6563,-2.6107,-2.518,-2.4824,-2.4953,-2.5513,-2.6305,-2.7166,0.0213,0.0045,-0.0159,-0.0365,-0.0587,-0.0776,-0.0886,-0.1359,-0.1725,-0.1794,-0.2459,-0.2969,-0.3167,-0.3729,-0.413,-0.4272,-0.4486,-0.4637,-0.4694,-0.4667,-0.4826,-0.5209,-0.5579,-0.5925,-0.6293,-0.6444,-0.6458,-0.6319,-0.6198,-0.5514,-0.4289,-0.4158,-0.3848,-0.3489,-0.4067,-0.4823,-0.5719,-0.6296,-0.6697,-0.698,-0.7016,-0.6897,-0.6734,-0.6553,-0.6467,-0.6404,-0.6071,-0.5949,-0.5957,-0.5984,0.0,0.0,0.0,0.0,0.0,0.0,0.0,0.0,0.0,0.0,0.0,0.0,0.0,0.0,0.0,0.0,0.0,0.0,0.0,0.0,0.0,0.0,0.0,0.0,-1.625,-1.7274,-1.7592,-1.8072,-1.8642,-1.9206,-1.9638,-2.0033,-2.0406,-2.0684,-2.0925,-2.1115,-2.143,-2.1701,-2.1891,-2.2198,-2.2367,-2.2367,-2.2498,-2.2774,-2.3197,-2.3626,-2.394,-2.4246,-2.5278,-2.5654,-2.5507,-2.6109,-2.6641,0.0,-2.6985,-2.7123,-2.7378,-2.7879,-2.7642,0.0,0.0,0.0,0.0,0.0,-2.7839,-2.8543,0.0237,0.0204,0.0082,-0.0275,-0.0405,-0.0519,-0.0763,-0.1049,-0.1255,-0.1328,-0.2018,-0.2594,-0.2861,-0.3648,-0.4221,-0.4336,-0.4666,-0.485,-0.4748,-0.479,-0.5013,-0.5457,-0.5833,-0.6142,-0.6371,-0.6725,-0.65,-0.5685,-0.6634,-0.6204,-0.4467,-0.5317,-0.5277,-0.4482,-0.4482,-0.5027,-0.5894,-0.588,-0.6364,-0.7153,-0.748,-0.7535,-0.7387,-0.7111,-0.7098,-0.7155,-0.6712,-0.6492,-0.6457,-0.6214,0.0,0.0,0.0,0.0,0.0,0.0,0.0,0.0,0.0,0.0,0.0,0.0,0.0,0.0,0.0,0.0,0.0,0.0,0.0,0.0,0.0,0.0,0.0,0.0,-1.7421,-1.8635,-1.9294,-1.9418,-1.944,-1.944,-2.0201,-2.075,-2.0823,-2.1357,-2.1715,-2.1752,-2.2052,-2.2235,-2.2235,0.0,0.0,0.0,0.0,-2.3362,-2.3984,-2.4046,-2.4425,-2.5111,-2.577,-2.6136,-2.6258,-2.6822,-2.7547,-2.8361,-2.8361,-2.8637,-2.9055,-2.9286,-2.8754,-2.7926,-2.8761,-2.8859,-2.8635,-2.9501,-2.9942,-2.9942,0.0296,0.0237,0.0162,0.0025,-0.0056,-0.0121,-0.0169,-0.0534,-0.0852,-0.0975,-0.1872,-0.257,-0.2715,-0.3526,-0.4045,-0.4069,-0.449,-0.4823,0.0,-0.4636,-0.4845,-0.5845,-0.6101,-0.64,-0.6793,-0.6842,-0.6854,-0.6788,-0.6993,-0.6517,-0.545,-0.563,-0.5679,-0.5582,-0.5582,-0.619,-0.7224,-0.7106,-0.719,-0.7361,-0.7694,-0.7746,-0.7574,-0.7751,-0.7644,-0.7419,-0.7313,-0.7188,-0.7105,-0.7472,-0.7224,-0.7018,-0.8217,0.0,0.0,0.0,0.0,0.0,0.0,0.0,0.0,0.0,0.0,0.0,0.0,0.0,0.0,0.0,0.0,0.0,0.0,0.0,0.0,-1.764,-1.854,-1.9316,-1.9959,-2.0274,-2.0442,-2.0442,-2.0611,-2.0933,-2.1459,-2.162,-2.1803,-2.2067,-2.2367,-2.2535,-2.2535,-2.2842,0.0,-2.3018,-2.3076,-2.3175,-2.3293,-2.386,-2.4425,-2.5111,0.0,0.0,-2.6891,-2.7012,-2.7194,-2.7366,-2.7366,-2.7444,-2.7665,-2.9183,-3.0276,-3.0846,-2.8266,-2.738,-2.777,-2.8635,-2.9396,-2.9984,0.0354,0.0274,0.0176,0.0111,0.0044,0.0,0.0,-0.0195,-0.0372,-0.0451,-0.1169,-0.1713,-0.1792,-0.2731,-0.3369,-0.3448,-0.3807,0.0,0.0,-0.4108,-0.4325,-0.5433,-0.5289,-0.5462,-0.6181,-0.6257,-0.6323,-0.6384,-0.6874,-0.6913,-0.6532,-0.6532,-0.6606,-0.6731,-0.6731,-0.7053,-0.7594,-0.7655,-0.7622,-0.7591,-0.8009,-0.8095,-0.7923,-0.8092,-0.804,-0.7862,-0.7726,-0.7604,-0.7528,-0.758,-0.7658,-0.7803,-0.8415,-0.8585,-0.8592,0.0,0.0,0.0,0.0,0.0,0.0,0.0,0.0,0.0,0.0,0.0,0.0,0.0,0.0,-1.5364,-1.6679,0.0,-1.7896,-1.8877,-1.944,-1.9923,-2.0358,-2.0562,-2.072,-2.072,-2.1013,-2.1342,-2.1664,-2.1979,-2.2228,-2.2389,-2.2689,-2.2864,-2.2864,-2.3018,-2.3106,-2.3106,-2.3106,-2.3106,-2.3106,-2.3728,-2.4293,-2.461,-2.5647,-2.6258,-2.664,-2.6952,-2.7366,-2.7779,-2.7779,-2.8071,-2.86,-2.953,-3.046,-3.1186,-2.937,-2.8819,-2.9079,-2.9517,-2.9811,-2.9994,0.041,0.0319,0.0207,0.0138,0.0062,0.0016,0.0,0.0,0.0,0.0,-0.0524,-0.09,-0.09,-0.1885,-0.2702,0.0,0.0,0.0,0.0,-0.35,-0.3726,-0.5017,-0.456,-0.4667,-0.5526,-0.5626,-0.563,-0.5406,-0.6186,-0.6658,-0.6816,-0.6798,-0.6978,-0.7307,-0.7307,-0.7465,-0.7682,-0.7888,-0.7876,-0.777,-0.825,-0.8315,-0.8225,-0.8271,-0.8268,-0.8199,-0.7955,-0.7784,-0.7657,-0.7551,-0.7908,-0.8394,-0.8439,-0.9047,-0.9677,-0.9321,-0.9415,0.0,0.0,0.0,0.0,0.0,0.0,0.0,0.0,0.0,-1.4615,-1.6198,-1.6477,-1.6987,-1.8714,-1.9027,-1.9191,-1.9896,-2.0164,-2.0387,-2.0772,-2.0815,-2.0815,-2.0815,-2.1342,-2.1723,-2.1789,-2.2293,-2.2645,-2.271,-2.2959,-2.3106,-2.3106,-2.3106,-2.3106,-2.3106,-2.3106,-2.3106,-2.3106,-2.3611,-2.3984,-2.4108,-2.5341,-2.5953,-2.6136,-2.6761,-2.7487,-2.825,-2.8421,-2.9007,-2.9884,-3.0119,-3.0509,-3.1064,-3.1054,-3.0974,-3.0926,-3.075,-3.045,-3.0118,0.0482,0.043,0.0341,0.0217,0.0129,0.0067,0.0017,0.0,0.0,0.0,-0.0524,-0.09,-0.09,-0.161,-0.2476,-0.343,-0.2571,0.0,-0.4174,-0.3173,-0.3364,-0.5254,-0.5341,-0.5424,-0.5695,-0.5714,-0.5272,-0.4467,-0.455,-0.4643,-0.4656,-0.4695,-0.5308,-0.6378,-0.6378,-0.6933,-0.7931,-0.7845,-0.7845,-0.7883,-0.807,-0.8181,-0.8225,-0.8271,-0.8187,-0.804,-0.8,-0.7683,-0.7414,-0.8245,-0.8463,-0.8624,-0.996,-1.0462,-1.0583,-1.0711,0.0,-1.0577,-1.116,-1.1867,-1.2736,-1.3925,-1.4113,-1.4568,0.0,0.0,-1.68,-1.7816,-1.826,-1.8649,-1.9184,-1.9515,-1.9864,-2.0508,-2.0647,-2.0786,-2.1108,-2.1159,-2.1159,-2.1159,-2.1474,-2.1811,-2.2103,-2.2425,-2.274,-2.3032,-2.3091,-2.3106,-2.3106,-2.3106,-2.3106,-2.3106,-2.3106,-2.3106,-2.3106,-2.3168,-2.3487,-2.4108,-2.4857,-2.5533,-2.6136,-2.6761,-2.7133,-2.7306,-2.8131,-2.9007,-2.9943,-3.082,-3.168,-3.2483,-3.2473,-3.222,-3.174,-3.0988,-3.0657,-3.0553,0.0497,0.0479,0.0434,0.0326,0.0198,0.0084,0.0017,0.0,0.0,0.0,-0.0222,-0.0383,-0.0385,-0.1046,-0.1821,-0.2665,-0.2077,-0.205,-0.2916,-0.217,-0.2359,-0.3839,-0.3897,-0.4233,-0.4865,-0.5406,-0.5494,-0.5092,-0.5156,-0.5191,-0.5297,-0.4739,-0.4831,-0.5363,-0.5363,-0.6035,-0.7083,-0.7174,-0.7559,-0.8146,-0.8359,-0.8446,-0.8408,-0.8314,-0.8113,-0.7854,-0.7744,-0.7828,0.0,0.0,-0.8815,-0.9553,-1.0202,-1.052,-1.0657,-1.0744,-1.0895,0.0,-1.2701,-1.3382,-1.4046,0.0,-1.5655,-1.6122,-1.7512,-1.7604,-1.764,-1.8423,-1.8847,-1.9228,-1.974,-2.0098,-2.0472,0.0,-2.1006,-2.1057,-2.1189,-2.1211,-2.1137,-2.0947,-2.1386,-2.1825,-2.2154,-2.2447,-2.2754,-2.3084,-2.3106,-2.3106,-2.3106,-2.3106,-2.3106,-2.3106,-2.3106,-2.3106,-2.3106,-2.3487,-2.4046,-2.4672,-2.5349,-2.6014,-2.6692,-2.6952,-2.7427,-2.7951,-2.831,-2.9353,-3.0762,-3.1169,-3.1825,-3.2669,-3.2669,-3.2556,-3.2308,-3.1712,-3.1143,-3.0657,0.0515,0.0504,0.0471,0.042,0.0286,0.0151,0.005,0.0017,0.0,0.0,0.0,0.0,0.0,-0.0507,-0.1134,-0.1824,-0.1545,-0.1518,-0.1947,-0.1471,-0.1767,-0.3035,-0.3167,-0.3628,-0.4601,-0.5346,-0.5586,-0.5317,-0.5385,-0.5293,-0.5134,-0.4472,-0.4206,-0.4307,-0.4307,-0.5098,-0.6336,-0.653,-0.7225,-0.8177,-0.8409,-0.8487,-0.838,-0.8231,-0.7923,-0.7633,-0.7647,-0.7867,0.0,0.0,-0.9104,-1.003,-1.0239,-1.0546,-1.0861,-1.1022,-1.163,-1.2525,-1.3736,0.0,0.0,-1.6046,-1.6765,-1.7423,-1.784,-1.8103,-1.835,-1.8825,-1.9184,-1.9557,-2.0018,-2.0442,-2.083,-2.1159,-2.1284,-2.1342,-2.1342,-2.1269,-2.1123,-2.0889,-2.1196,-2.1628,-2.2132,-2.2447,-2.2754,-2.3084,-2.3106,-2.3106,-2.3106,-2.3106,-2.3106,-2.3106,-2.3106,-2.3106,-2.3106,-2.3611,-2.4046,-2.4548,-2.5218,-2.5892,-2.6579,-2.6952,-2.7608,-2.848,-2.848,-2.9422,-3.0937,-3.1169,-3.171,-3.2373,-3.2612,-3.2669,-3.2638,-3.2297,-3.1733,-3.1019,0.0515,0.0504,0.0471,0.042,0.0403,0.0319,0.0134,0.0034,0.0,0.0,0.0,0.0,0.0,-0.0135,-0.0533,-0.1248,-0.0965,-0.1074,-0.1857,-0.1395,-0.1923,-0.3789,-0.4054,-0.4575,-0.5454,-0.5615,-0.5272,-0.4334,-0.4334,-0.3876,-0.3008,-0.3022,-0.3097,-0.3143,-0.3143,-0.4281,-0.6228,-0.6228,-0.6808,-0.7738,-0.8018,-0.8049,-0.7924,-0.7829,-0.7553,-0.7277,-0.7886,0.0,0.0,0.0,-0.9426,-0.9638,-1.0359,-1.0962,0.0,-1.2084,-1.328,0.0,0.0,0.0,-1.588,-1.6346,-1.7218,-1.8034,-1.831,-1.8854,-1.9235,-1.9257,-1.9573,-1.9808,-1.983,-2.0296,-2.083,-2.1159,-2.1474,-2.1679,-2.1679,-2.1408,-2.1203,-2.1196,-2.0933,-2.113,0.0,-2.2447,-2.2754,-2.3084,-2.3106,-2.3106,-2.3106,-2.3106,-2.3106,-2.3106,-2.3106,-2.3106,-2.3106,-2.3106,-2.3168,-2.3168,-2.386,-2.4479,-2.5226,-2.6527,-2.7608,-2.848,-2.848,-2.9066,-3.0001,-3.0927,-3.1343,-3.1401,-3.2373,-3.2669,-3.2669,-3.2659,-3.2349,-3.1822,0.0653,0.0555,0.0487,0.0471,0.0437,0.037,0.0252,0.0139,0.0054,0.0,0.0,0.0,0.0,0.0,0.0,0.0,-0.0782,-0.1147,-0.1865,-0.1387,-0.1577,-0.2677,-0.3008,-0.3605,-0.4472,-0.5283,-0.582,-0.6037,-0.4849,-0.4148,-0.3784,-0.2595,-0.2001,-0.2048,-0.2714,-0.3805,-0.5176,-0.579,-0.6754,-0.7823,-0.7889,-0.8,-0.8068,-0.7857,-0.7502,-0.7121,0.0,0.0,0.0,-0.8193,-0.8902,-0.97,-1.0139,0.0,0.0,-1.2124,0.0,-1.4108,-1.5157,0.0,-1.6566,-1.7308,-1.7895,-1.8388,-1.8912,-1.9147,-1.9213,-1.8994,-1.9213,-1.9426,-1.9162,-1.9645,-2.0194,-2.0516,-2.102,-2.1452,-2.1664,-2.1789,-2.1693,-2.1262,-2.1496,0.0,0.0,0.0,0.0,-2.3054,-2.2908,-2.2879,-2.3098,-2.3106,-2.3106,-2.3106,-2.3106,-2.3106,-2.3106,-2.3106,-2.3293,-2.3798,-2.4417,-2.5103,-2.577,-2.6205,-2.6978,-2.7855,-2.8292,-2.9412,-3.0878,-3.1169,-3.1652,-3.2248,-3.2555,-3.2669,-3.2669,-3.2669,-3.2576,-3.2308,0.0706,0.0615,0.0534,0.0505,0.0478,0.0,0.0,0.0,0.0,0.0,0.0,0.0,0.0,0.0,0.0,0.0,0.0,-0.1011,-0.1507,-0.1239,-0.1498,-0.2433,-0.2564,-0.3222,-0.4543,-0.5118,-0.5691,-0.6235,-0.5094,-0.4289,-0.3707,-0.2529,-0.1781,-0.1463,-0.21,-0.2965,-0.4006,-0.4913,-0.5952,-0.7065,-0.735,-0.7554,-0.7655,-0.7383,-0.7042,0.0,0.0,0.0,0.0,-0.7713,-0.8718,-0.9873,0.0,0.0,0.0,0.0,-1.3811,-1.494,-1.6218,-1.6856,-1.7362,-1.8282,-1.8596,-1.8835,-1.9194,-1.922,-1.9038,-1.8833,-1.8767,-1.8723,-1.8628,-1.8957,-1.9462,-2.0073,-2.0786,-2.1364,-2.1811,-2.2052,-2.203,-2.1606,-2.1825,-2.2015,0.0,0.0,0.0,-2.3047,-2.2915,-2.2886,-2.3098,-2.3106,-2.3106,-2.3106,-2.3106,-2.3106,-2.3106,-2.3106,-2.3293,-2.3736,-2.4417,-2.5103,-2.577,-2.6014,-2.6727,-2.7855,-2.7942,-2.9066,-3.082,-3.082,-3.1353,-3.2248,-3.2555,-3.2669,-3.2669,-3.2669,-3.2669,-3.2623,0.0725,0.0669,0.0592,0.0,0.0,0.0,0.0,0.0,0.0,0.0,0.0,0.0,0.0,0.0,0.0,0.0,0.0,0.0,-0.0935,-0.0969,0.0,-0.3064,-0.2705,-0.3409,-0.5428,-0.5071,-0.4907,-0.4992,-0.4925,-0.4141,-0.2708,-0.2727,-0.2216,-0.1302,-0.1343,-0.1886,-0.2843,-0.3718,-0.4592,-0.5579,-0.6425,-0.6756,-0.6759,-0.6482,0.0,0.0,0.0,0.0,0.0,0.0,0.0,0.0,0.0,0.0,0.0,0.0,0.0,-1.6695,-1.7112,-1.7627,-1.8299,-1.9184,-1.9347,-1.9334,-1.9313,-1.9042,-1.8767,-1.8708,-1.8211,-1.7867,-1.8108,0.0,-1.8686,-1.9876,-2.0742,-2.1437,-2.2089,-2.2213,-2.2228,0.0,0.0,0.0,0.0,0.0,0.0,-2.3062,0.0,-2.3091,-2.3106,-2.3106,-2.3106,-2.3106,-2.3106,-2.3106,-2.3106,-2.3106,-2.3106,-2.3175,-2.3736,-2.4417,-2.5111,-2.577,-2.6918,-2.8421,-2.7539,-2.825,-2.9943,-2.9943,-3.0529,-3.1469,-3.2363,-3.2669,-3.2669,-3.2669,-3.2669,-3.2607,0.0,0.0,0.0,0.0,0.0,0.0,0.0,0.0,0.0,0.0,0.0,0.0,0.0,0.0,0.0,0.0,0.0,0.0,-0.1526,-0.1171,0.0,0.0,-0.2106,-0.2597,-0.3773,-0.4233,-0.4564,-0.4776,-0.4169,-0.3454,-0.2618,-0.1939,-0.1493,-0.132,-0.2036,-0.2472,-0.2829,-0.426,-0.5057,-0.5353,0.0,-0.643,-0.6426,0.0,0.0,0.0,0.0,0.0,0.0,0.0,0.0,0.0,0.0,0.0,-1.4083,0.0,0.0,-1.6836,-1.758,-1.8415,-1.9168,-1.9612,-1.9664,-1.959,-1.935,-1.903,-1.8518,-1.7592,-1.7406,-1.714,-1.6279,0.0,0.0,-1.8701,-2.0157,0.0,-2.2089,-2.2579,0.0,-2.2542,0.0,-2.2718,-2.263,-2.2776,0.0,0.0,-2.2879,-2.2857,-2.3098,-2.3106,-2.3106,-2.3106,-2.3106,-2.3106,-2.3106,-2.3106,-2.3362,-2.386,-2.3487,-2.3984,-2.5111,-2.5288,-2.6241,-2.7787,-2.8053,-2.9185,-3.0927,-3.0927,-3.1478,-3.2373,-3.2612,-3.2669,-3.2669,-3.2669,-3.2669,-3.2659,0.0,0.0,0.0,0.0,0.0,0.0,0.0,0.0,0.0,0.0,0.0,0.0,0.0,0.0,0.0,0.0,0.0,0.0,0.0,-0.1085,-0.1181,-0.1783,-0.158,-0.1941,-0.2965,-0.3139,-0.3279,-0.3411,0.0,0.0,-0.1876,-0.1396,-0.1161,-0.1251,-0.1763,-0.1982,-0.2092,-0.3372,0.0,0.0,0.0,0.0,0.0,0.0,0.0,0.0,0.0,0.0,0.0,0.0,0.0,-1.2875,-1.2806,-1.3977,-1.5417,-1.581,0.0,-1.7806,-1.8617,-1.9276,-1.9841,-2.0111,-1.999,-1.9654,-1.8986,-1.8379,-1.7622,-1.6279,-1.6155,0.0,-1.4787,-1.5899,0.0,0.0,0.0,0.0,-2.1862,-2.2623,-2.304,0.0,-2.3003,0.0,-2.2857,-2.3003,-2.3106,0.0,-2.2937,-2.2915,-2.3098,-2.3106,-2.3106,-2.3106,-2.3106,-2.3106,-2.3106,-2.3106,-2.3293,-2.3673,-2.33,-2.3673,-2.4672,-2.498,-2.5998,-2.7538,0.0,-2.9589,-3.1285,-3.1285,-3.1825,-3.2669,-3.2669,-3.2669,-3.2669,-3.2669,-3.2669,-3.2669,0.0,0.0,0.0,0.0,0.0,0.0,0.0,0.0,0.0,0.0,0.0,0.0,0.0,0.0,0.0,0.0,0.0,0.0,0.0,0.0,-0.1121,-0.1651,-0.126,-0.1512,-0.2569,-0.2156,-0.1868,0.0,0.0,0.0,0.0,0.0,0.0,0.0,0.0,0.0,0.0,0.0,0.0,0.0,0.0,0.0,0.0,0.0,0.0,0.0,0.0,0.0,0.0,0.0,-1.1209,-1.3893,-1.3599,-1.5202,-1.7232,-1.7277,-1.8037,-1.901,-1.974,-2.0149,-2.0393,-2.0623,-2.0237,-1.9491,-1.8474,-1.7534,-1.6463,-1.5046,0.0,-1.444,-1.3594,-1.4721,-1.6038,-1.6844,0.0,-2.0545,-2.1613,-2.2506,-2.3062,-2.3106,-2.3106,-2.3106,-2.3106,-2.3106,-2.3106,-2.3106,-2.3106,-2.3106,-2.3106,-2.3106,-2.3106,-2.3106,-2.3106,-2.3106,-2.3106,-2.3106,-2.3106,-2.3106,-2.3106,-2.3425,-2.4108,-2.4672,-2.5876,-2.7418,0.0,0.0,-3.0985,-3.0985,-3.1584,-3.2487,-3.2487,-3.2612,-3.2669,-3.2669,-3.2669,-3.2669,0.0,0.0,0.0,0.0,0.0,0.0,0.0,0.0,0.0,0.0,0.0,0.0,0.0,0.0,0.0,0.0,0.0,0.0,0.0,0.0,0.0,-0.1065,-0.1428,-0.1734,-0.1958,0.0,0.0,0.0,0.0,0.0,0.0,0.0,0.0,0.0,0.0,0.0,0.0,0.0,0.0,0.0,0.0,0.0,0.0,0.0,0.0,0.0,0.0,0.0,0.0,0.0,-1.2295,-1.561,-1.4489,-1.5822,-1.7804,-1.7915,-1.8541,-1.9331,-2.0063,-2.0408,-2.0637,-2.0674,-2.0237,-1.9433,-1.8182,-1.715,0.0,0.0,-1.3938,-1.3609,-1.3177,-1.4201,-1.5535,-1.7018,0.0,0.0,0.0,0.0,-2.2806,0.0,0.0,0.0,0.0,0.0,0.0,0.0,0.0,-2.3106,-2.3106,-2.3106,-2.3106,-2.3106,-2.3106,-2.3106,-2.3106,-2.3106,-2.3106,-2.3106,-2.3106,-2.3425,-2.4108,-2.4232,-2.5141,-2.6693,-2.6823,0.0,-2.9335,-2.9335,-3.0217,-3.1526,-3.1526,-3.2008,-3.2669,-3.2669,-3.2669,-3.2669,0.0,0.0,0.0,0.0,0.0,0.0,0.0,0.0,0.0,0.0,0.0356,0.0191,0.0,0.0,0.0,0.0,0.0,0.0,0.0,0.0,0.0,0.0,0.0,0.0,0.0,0.0,0.0,0.0,0.0,0.0,0.0,0.0,0.0,0.0,0.0,0.0,0.0,0.0,0.0,0.0,0.0,0.0,0.0,0.0,0.0,0.0,0.0,0.0,0.0,0.0,-1.1791,-1.5139,-1.4844,-1.6199,-1.7996,-1.8424,-1.8879,-1.947,-2.026,-2.06,-2.0666,-2.0477,-1.9989,-1.9133,-1.7435,0.0,0.0,0.0,-1.298,-1.2731,-1.1904,0.0,0.0,0.0,0.0,0.0,0.0,0.0,0.0,0.0,0.0,0.0,0.0,0.0,0.0,0.0,0.0,-2.3106,-2.3106,-2.3106,-2.3106,-2.3106,-2.3106,-2.3106,-2.3106,-2.3106,-2.3106,-2.3106,-2.3106,-2.3293,-2.3604,-2.3922,-2.4764,-2.6017,-2.633,0.0,-2.8358,-2.8358,-2.9257,-3.0587,-3.0587,-3.1247,-3.2258,-3.243,-3.2487,-3.2487,0.0,0.0,0.0,0.0,0.0,0.0,0.0,0.0819,0.0788,0.0709,0.0524,0.0263,-0.0115,-0.0085,0.0,0.0,0.0,0.0,0.0,0.0,0.0,0.0,0.0,0.0,0.0,0.0,0.0,0.0,0.0,0.0,0.0,0.0,0.0,0.0,0.0,0.0,0.0,0.0,0.0,0.0,0.0,0.0,0.0,0.0,0.0,0.0,0.0,0.0,0.0,0.0,-1.0985,-1.3874,-1.466,-1.6299,-1.7988,-1.8634,-1.9086,-1.9585,-2.0434,-2.0721,-2.0687,-2.0288,-1.9755,-1.8767,-1.6859,-1.5577,0.0,0.0,-1.2149,-1.1963,-1.115,0.0,-1.3909,0.0,-1.6155,0.0,0.0,0.0,0.0,0.0,0.0,0.0,0.0,0.0,0.0,0.0,0.0,0.0,-2.3106,-2.3106,-2.3106,-2.3106,-2.3106,-2.3106,-2.3106,-2.3106,-2.3106,-2.3106,-2.3106,-2.3106,-2.3106,-2.3673,-2.427,-2.504,-2.5538,0.0,0.0,-2.7391,-2.8298,-2.9639,-2.9884,-3.0723,-3.1845,-3.2076,-3.219,-3.2248,0.0,0.0,0.0,0.0,0.0,0.0,0.0,0.0863,0.0852,0.0726,0.0569,0.0357,0.0031,-0.0119,0.0,0.0,0.0,0.0,0.0,0.0,0.0,0.0,0.0,0.0,0.0,0.0,0.0,0.0,0.0,0.0,0.0,0.0,0.0,0.0,0.0,0.0,0.0,0.0,0.0,0.0,0.0,0.0,0.0,0.0,0.0,0.0,0.0,0.0,0.0,0.0,0.0,-1.2472,-1.3897,-1.5929,-1.7894,-1.8297,0.0,0.0,-2.0552,-2.0905,-2.0993,-2.0343,-1.9755,-1.8767,-1.6859,0.0,0.0,-1.276,-1.1802,-1.1443,-1.2204,-1.2511,-1.3338,0.0,0.0,-1.7691,0.0,0.0,0.0,0.0,0.0,0.0,0.0,0.0,0.0,0.0,0.0,0.0,-2.3106,-2.3106,-2.3106,-2.3106,-2.3106,-2.3106,-2.3106,-2.3106,-2.3106,-2.3106,-2.3106,-2.3106,-2.3106,-2.3168,-2.323,-2.3347,-2.341,0.0,0.0,-2.5684,-2.7116,-2.8664,-2.9893,-3.0966,-3.1787,-3.1845,-3.1845,-3.1903,0.0,0.0,0.0,0.0,0.0,0.0,0.0,0.0835,0.0831,0.083,0.0594,0.0385,0.021,-0.0119,-0.032,0.0,0.0,0.0,0.0,0.0,0.0,0.0,0.0,0.0,0.0,0.0,0.0,0.0,0.0,0.0,0.0,0.0,0.0,0.0,0.0,0.0,0.0,0.0,0.0,0.0,0.0,0.0,0.0,0.0,0.0,0.0,0.0,0.0,0.0,0.0,0.0,0.0,-1.2666,-1.4356,0.0,0.0,-1.8176,-1.9023,-1.9674,-2.023,-2.0516,-2.0062,-1.9462,-1.8525,-1.6815,0.0,-1.4137,-1.2789,-1.175,-1.1342,-1.2054,-1.1911,-1.2394,-1.4702,-1.4918,-1.5752,-1.8408,0.0,0.0,0.0,0.0,0.0,0.0,0.0,0.0,0.0,0.0,0.0,0.0,-2.3106,-2.3106,-2.3106,-2.3106,-2.3106,-2.3106,-2.3106,-2.3106,-2.3106,-2.3106,-2.3106,-2.3106,-2.3106,-2.3106,-2.3106,-2.3106,0.0,0.0,-2.5256,-2.6754,-2.8733,-2.9285,-3.0197,-3.1286,-3.145,-3.1498,-3.1556,0.0,0.0,0.0,0.0,0.0,0.0,0.0854,0.0834,0.0849,0.0903,0.0648,0.0442,0.0383,-0.0029,-0.0316,-0.0393,0.0,0.0,0.0,0.0,0.0,0.0,0.0,0.0,0.0,0.0,0.0,0.0,0.0,0.0,0.0,0.0,0.0,0.0,0.0,0.0,0.0,0.0,0.0,0.0,0.0,0.0,0.0,0.0,0.0,0.0,0.0,0.0,0.0,0.0,0.0,0.0,0.0,0.0,0.0,0.0,-1.7186,-1.8152,-1.8811,-1.9455,-1.9879,-1.9557,-1.8986,-1.8101,0.0,-1.5289,-1.3953,-1.2616,-1.1677,-1.1246,-1.167,-1.1531,-1.1948,-1.374,-1.3975,-1.4801,-1.7318,0.0,0.0,0.0,0.0,0.0,0.0,0.0,0.0,0.0,0.0,0.0,0.0,-2.3106,-2.3106,-2.3106,-2.3106,-2.3106,-2.3106,-2.3106,-2.3106,-2.3106,-2.3106,-2.3106,-2.3106,-2.3106,-2.3106,-2.3106,0.0,0.0,0.0,-2.5501,-2.6944,-2.892,-2.9353,-3.0089,-3.0947,-3.1112,-3.116,-3.1218,0.0,0.0,0.0,0.0,0.0,0.0,0.0,0.0889,0.0901,0.0905,0.0795,0.0648,0.0501,0.02,-0.0112,-0.0364,0.0,0.0,0.0,0.0,0.0,0.0,0.0,0.0,0.0,0.0,-0.0913,-0.0913,0.0,0.0,0.0,0.0,0.0,0.0,0.0,0.0,0.0,0.0,0.0,0.0,0.0,0.0,0.0,0.0,0.0,0.0,0.0,0.0,0.0,0.0,0.0,0.0,0.0,-1.1884,-1.2893,0.0,-1.6301,-1.7479,-1.8138,-1.8789,-1.9206,-1.8884,-1.8313,-1.7494,0.0,-1.4918,-1.3616,-1.2273,-1.1524,-1.1107,-1.1114,-1.1597,-1.2215,-1.2914,-1.4061,-1.5447,-1.706,0.0,0.0,0.0,0.0,0.0,0.0,0.0,0.0,0.0,0.0,0.0,0.0,-2.3106,-2.3106,-2.3106,-2.3106,-2.3106,-2.3106,-2.3106,-2.3106,-2.3106,-2.3106,-2.3106,-2.3106,-2.3106,-2.3106,0.0,0.0,0.0,0.0,-2.6468,-2.7727,-2.9039,-3.0333,-3.0889,-3.0889,-3.0889,-3.0889,-3.0947,0.0,0.0,0.0,0.0,0.0,0.0,0.0,0.107,0.079,0.0898,0.0755,0.0568,0.0453,0.0169,-0.0112,-0.0364,0.0,0.0,0.0,0.0,0.0,0.0,0.0,0.0,0.0,0.0,-0.1144,-0.0973,-0.1033,-0.1309,0.0,0.0,0.0,0.0,0.0,0.0,0.0,0.0,0.0,0.0,0.0,0.0,0.0,0.0,0.0,0.0,0.0,0.0,0.0,0.0,0.0,0.0,0.0,0.0,0.0,-1.3163,-1.463,-1.6031,-1.6235,-1.6806,-1.7165,-1.6623,-1.6338,-1.5848,-1.4553,-1.377,-1.295,-1.1648,-1.0865,-1.0638,-1.132,-1.1209,-1.1765,-1.393,-1.4494,0.0,0.0,0.0,0.0,0.0,0.0,0.0,0.0,0.0,0.0,0.0,0.0,0.0,0.0,-2.3106,-2.3106,-2.3106,-2.3106,-2.3106,-2.3106,-2.3106,-2.3106,-2.3106,-2.3106,-2.3106,-2.3106,-2.3106,0.0,0.0,0.0,0.0,0.0,-2.6831,-2.8283,-3.0333,-3.0704,-3.0889,-3.0889,-3.0889,-3.0889,-3.0889,0.0,0.0,0.0,0.0,0.0,0.0,0.0,0.1188,0.0807,0.0852,0.0776,0.0628,0.0411,0.025,0.0,-0.0364,0.0,0.0,0.0,0.0,0.0,0.0,0.0,0.0,0.0,-0.1275,-0.1398,-0.142,-0.1493,-0.1834,-0.2456,-0.2456,-0.2621,0.0,0.0,0.0,0.0,0.0,0.0,0.0,0.0,0.0,-0.5927,0.0,0.0,0.0,0.0,0.0,0.0,0.0,0.0,0.0,0.0,0.0,0.0,0.0,-1.3009,-1.4221,-1.475,-1.5255,-1.5597,-1.516,-1.4977,-1.464,-1.3711,-1.3148,-1.2489,-1.1349,-1.0682,-1.047,-1.1114,-1.1092,-1.167,-1.382,-1.4457,0.0,0.0,0.0,0.0,0.0,0.0,0.0,0.0,0.0,0.0,0.0,0.0,0.0,0.0,0.0,-2.3106,-2.3106,-2.3106,-2.3106,-2.3106,-2.3106,-2.3106,-2.3106,-2.3106,-2.3106,-2.3106,-2.3106,0.0,0.0,0.0,0.0,0.0,-2.7547,-2.8948,-3.0889,-3.0889,-3.0889,-3.0889,-3.0889,-3.0889,-3.0889,0.0,0.0,0.0,0.0,0.0,0.0,0.0,0.0,0.0,0.0,0.088,0.0768,0.0426,0.0412,0.0196,0.0,0.0,0.0,0.0,0.0,0.0,0.0,0.0,0.0,-0.1286,-0.1393,-0.1647,-0.2102,-0.2172,-0.2542,-0.3103,-0.3145,-0.3555,-0.4339,0.0,0.0,0.0,0.0,0.0,0.0,0.0,-0.5696,0.0,0.0,0.0,0.0,0.0,0.0,0.0,0.0,0.0,0.0,0.0,0.0,0.0,0.0,0.0,0.0,0.0,-1.4086,-1.4357,-1.4313,-1.4048,-1.3748,-1.3404,-1.287,0.0,-1.1261,-1.0806,-1.0587,-1.0704,-1.1232,-1.1987,-1.3067,0.0,0.0,0.0,0.0,0.0,0.0,0.0,0.0,0.0,0.0,0.0,0.0,0.0,0.0,0.0,0.0,-2.3106,-2.3106,-2.3106,-2.3106,-2.3106,-2.3106,-2.3106,-2.3106,-2.3106,-2.3106,-2.3106,-2.3106,0.0,0.0,0.0,0.0,0.0,-2.8256,-2.9599,-3.0889,-3.0889,-3.0889,-3.0889,-3.0889,-3.0889,-3.0889,0.0,0.0,0.0,0.0,0.0,0.0,0.0,0.0,0.0,0.0,0.0,0.0727,0.0423,0.0412,0.0,0.0,0.0,0.0,0.0,0.0,0.0,0.0,0.0,0.0,-0.1295,-0.167,-0.1948,-0.2165,-0.2355,-0.3064,-0.4304,-0.4387,-0.4611,-0.4906,-0.4571,-0.4131,0.0,0.0,0.0,0.0,-0.5555,-0.5817,0.0,0.0,0.0,0.0,-0.7281,-0.7923,0.0,0.0,0.0,0.0,0.0,0.0,0.0,0.0,-1.0806,-1.1048,-1.1635,0.0,-1.2862,-1.2398,-1.2372,-1.2343,0.0,-1.1745,-1.1613,-1.088,-1.0441,-1.0594,-1.1838,-1.1959,-1.2723,-1.5182,0.0,0.0,0.0,0.0,0.0,0.0,0.0,0.0,0.0,0.0,0.0,0.0,0.0,0.0,0.0,-2.3106,-2.3106,-2.3106,-2.3106,-2.3106,-2.3106,-2.3106,-2.3106,-2.3106,-2.3106,-2.3106,-2.3106,-2.3106,0.0,0.0,0.0,0.0,-2.7004,-2.7306,-2.8829,-3.0889,-3.0889,-3.0889,-3.0889,-3.0889,-3.0889,-3.0889,0.0,0.0,0.0,0.0,0.0,0.0,0.0,0.0,0.0,0.0,0.0,0.0,0.0,0.0,0.0,0.0,0.0,0.0,0.0,0.0,0.0,0.0,0.0,-0.1359,-0.1493,-0.194,-0.2348,-0.2656,-0.3091,-0.3944,-0.512,-0.5368,-0.5582,-0.5663,-0.5106,-0.4565,0.0,0.0,0.0,0.0,-0.5697,0.0,0.0,0.0,0.0,0.0,-0.7202,-0.7975,0.0,-0.9986,-1.0769,-1.1153,0.0,0.0,0.0,0.0,-1.0368,-1.0433,-1.0792,-1.167,-1.2475,-1.2277,-1.2358,-1.2353,-1.2043,-1.1782,-1.1452,-1.0946,-1.0821,-1.1128,-1.2306,-1.2511,0.0,0.0,0.0,0.0,0.0,0.0,0.0,0.0,0.0,0.0,0.0,0.0,0.0,0.0,0.0,0.0,0.0,-2.3106,-2.3106,-2.3106,-2.3106,-2.3106,-2.3106,-2.3106,-2.3106,-2.3106,-2.3106,-2.3106,-2.3106,-2.3106,-2.3106,0.0,0.0,0.0,-2.6225,-2.7366,-2.8692,-3.003,-3.0645,-3.0889,-3.0889,-3.0889,-3.0889,-3.0889,0.0,0.0,0.0,0.0,0.0,0.0,0.0,0.0,0.0,0.0,0.0,0.0,0.0,0.0,0.0,0.0,0.0,0.0,0.0,0.0,0.0,0.0,0.0,-0.1446,-0.1733,-0.2271,-0.282,-0.3347,-0.4127,-0.495,-0.578,-0.6185,-0.636,-0.6368,-0.5445,-0.4943,0.0,0.0,0.0,0.0,0.0,0.0,0.0,0.0,0.0,0.0,0.0,0.0,0.0,-1.008,-1.0748,-1.1078,-1.0931,0.0,0.0,0.0,0.0,0.0,-1.0667,-1.1689,-1.2626,-1.2791,-1.3009,-1.3133,-1.3031,0.0,0.0,0.0,0.0,-1.1963,-1.2742,-1.315,0.0,0.0,0.0,0.0,0.0,0.0,0.0,0.0,0.0,0.0,0.0,0.0,0.0,0.0,0.0,0.0,0.0,-2.3106,-2.3106,-2.3106,-2.3106,-2.3106,-2.3106,-2.3106,-2.3106,-2.3106,-2.3106,-2.3106,-2.3106,-2.3106,-2.3106,0.0,0.0,0.0,-2.5256,-2.7418,-2.8564,-2.8979,-3.0147,-3.0704,-3.0889,-3.0889,-3.0889,-3.0889,0.0,0.0,0.0,0.0,0.0,0.0,0.0,0.0,0.0,0.0,0.0,0.0,0.0,0.0,0.0,0.0,0.0,0.0,0.0,0.0,0.0,-0.121,-0.128,-0.1505,-0.194,-0.2757,-0.3446,-0.4035,-0.495,-0.5822,-0.6628,-0.6912,-0.6835,-0.6472,-0.5849,-0.5407,-0.5136,0.0,0.0,0.0,0.0,0.0,0.0,0.0,0.0,0.0,0.0,0.0,0.0,-0.9548,-1.0346,-1.096,-1.0104,0.0,0.0,0.0,0.0,0.0,-1.1398,-1.2385,-1.2856,-1.2305,-1.3016,-1.3689,-1.3133,-1.2892,-1.2855,0.0,0.0,0.0,0.0,-1.463,0.0,0.0,0.0,0.0,0.0,0.0,0.0,0.0,0.0,0.0,0.0,0.0,0.0,0.0,0.0,0.0,0.0,0.0,-2.3106,-2.3106,-2.3106,-2.3106,-2.3106,-2.3106,-2.3106,-2.3106,-2.3106,-2.3106,-2.3106,-2.3106,-2.3106,0.0,0.0,-2.4031,-2.5133,-2.5493,-2.6935,-2.892,-2.9107,-2.9903,-3.0889,-3.0889,-3.0889,-3.0889,0.0,0.0,0.0,0.0,0.0,0.0,0.0,0.0,0.0,0.0,0.0,0.0,0.0,0.0,0.0,0.0,0.0,0.0,0.0,0.0,0.0,-0.1401,-0.1536,-0.1821,-0.2263,-0.3252,-0.4005,-0.4489,-0.5616,-0.6445,-0.6953,-0.7046,-0.684,-0.6321,-0.5784,-0.546,-0.5325,-0.5487,-0.5666,-0.5802,0.0,0.0,0.0,0.0,0.0,0.0,0.0,0.0,0.0,0.0,-1.0294,-1.0733,-1.0075,0.0,0.0,0.0,0.0,0.0,-1.0953,-1.1989,-1.2761,-1.2632,-1.3615,-1.4522,-1.419,-1.3743,-1.3424,0.0,0.0,0.0,0.0,0.0,0.0,0.0,0.0,0.0,0.0,0.0,0.0,0.0,0.0,0.0,0.0,0.0,0.0,0.0,0.0,0.0,0.0,0.0,-2.2918,-2.3106,-2.3106,-2.3106,-2.3106,-2.3106,-2.3106,-2.3106,-2.3106,-2.3106,-2.3106,-2.3106,-2.3106,-2.3106,0.0,-2.3479,-2.4092,-2.4826,-2.579,-2.6996,-2.8376,-2.9285,-2.9903,-3.0645,-3.0889,-3.0889,0.0,0.0,0.0,0.0,0.0,0.0,0.0,0.0,0.0,0.0,0.0,0.0,0.0,0.0,0.0,0.0,0.0,0.0,0.0,0.0,-0.1047,-0.1539,-0.193,-0.2342,-0.2793,-0.3871,-0.4655,-0.5138,-0.6346,-0.704,-0.7193,-0.7126,-0.6801,-0.6172,-0.5755,-0.5559,-0.5525,-0.5673,-0.5812,-0.5892,0.0,0.0,0.0,0.0,0.0,0.0,0.0,0.0,0.0,0.0,0.0,0.0,0.0,0.0,0.0,-0.9987,-0.979,-0.9894,-1.077,-1.1701,-1.2551,-1.316,-1.4144,-1.5056,-1.5255,-1.4636,-1.4136,-1.4497,0.0,0.0,0.0,0.0,0.0,0.0,0.0,0.0,0.0,0.0,0.0,0.0,0.0,0.0,0.0,0.0,0.0,0.0,0.0,0.0,0.0,0.0,-2.2606,-2.2863,-2.2918,-2.2988,-2.2988,-2.305,-2.3106,-2.3106,-2.3106,-2.3106,-2.3106,-2.3106,-2.3106,-2.3106,-2.3106,-2.3106,-2.3168,-2.4216,-2.4826,-2.5309,-2.7237,-2.8197,-2.8564,-2.9618,-2.9981,-2.9981,0.0,0.0,0.0,0.0,0.0,0.0,0.0,0.0,0.0,0.0,0.0,0.0,0.0,0.0,0.0,0.0,0.0,0.0,0.0,0.0,-0.1145,-0.1741,-0.2463,-0.3118,-0.3691,-0.4651,-0.5568,-0.6468,-0.7297,-0.7627,-0.7482,-0.748,-0.6997,-0.6196,-0.6167,-0.6038,-0.5858,-0.5888,-0.5896,-0.5908,-0.5896,0.0,0.0,0.0,0.0,0.0,0.0,0.0,0.0,0.0,0.0,0.0,0.0,0.0,-1.058,-1.0528,-1.0302,-1.0376,-1.1801,-1.2142,-1.2424,-1.3646,-1.4305,-1.4858,-1.5722,-1.5434,-1.5415,-1.6815,0.0,0.0,0.0,0.0,0.0,0.0,0.0,0.0,0.0,0.0,0.0,0.0,0.0,0.0,0.0,0.0,0.0,0.0,0.0,0.0,0.0,0.0,0.0,-2.2174,-2.248,-2.2613,-2.2613,-2.2918,-2.3106,-2.3106,-2.3106,-2.3106,-2.3106,-2.3106,-2.3106,-2.3106,-2.3106,-2.3106,-2.3113,-2.323,-2.3969,-2.5133,-2.5317,-2.6103,-2.7134,-2.7263,-2.7254,-2.7254,0.0,0.0,0.0,0.0,0.0,0.0,0.0,0.0,0.0,0.0,0.0,0.0,0.0,0.0,0.0,0.0,0.0,0.0,0.0,-0.0824,-0.119,-0.1843,-0.2373,-0.3183,-0.4342,-0.5331,-0.6119,-0.6742,-0.7332,-0.7592,-0.7476,-0.7147,-0.6753,-0.631,-0.6229,-0.617,-0.6073,-0.5963,-0.5888,-0.5876,-0.5762,-0.5682,0.0,0.0,0.0,0.0,0.0,0.0,0.0,0.0,-0.9882,-1.0089,-1.0009,-1.0119,-1.0287,-1.0287,-1.0053,-1.0013,-1.1076,-1.1724,-1.2361,-1.3384,-1.4049,-1.4739,-1.5681,-1.6008,-1.6374,-1.7323,-1.7337,0.0,0.0,0.0,0.0,0.0,0.0,0.0,0.0,0.0,0.0,0.0,0.0,0.0,0.0,0.0,0.0,0.0,0.0,0.0,0.0,0.0,0.0,-2.2111,-2.2237,-2.2292,-2.2292,-2.2606,-2.2793,-2.2793,-2.2981,-2.3106,-2.3106,-2.3106,-2.3106,-2.3106,-2.3106,-2.3106,-2.3106,-2.3106,-2.3417,-2.3969,-2.4764,-2.5859,-2.7013,-2.7013,-2.7013,-2.7013,0.0,0.0,0.0,0.0,0.0,0.0,0.0,0.0,0.0,0.0,0.0,0.0,0.0,0.0,0.0,0.0,0.0,0.0,-0.0757,-0.0851,-0.121,-0.1907,-0.2441,-0.3363,-0.4711,-0.5698,-0.6432,-0.6876,-0.724,-0.7346,-0.7224,-0.6863,-0.6595,-0.6412,-0.6261,-0.6208,-0.6249,-0.6016,-0.5888,-0.5902,-0.5889,-0.5873,0.0,0.0,0.0,0.0,0.0,0.0,0.0,0.0,-0.9795,-0.9943,-0.9929,-1.0002,-1.0119,-1.0221,-1.0181,-1.0249,-1.0863,-1.1647,-1.2472,-1.3185,-1.3994,-1.4889,-1.5886,-1.642,-1.6954,-1.7822,-1.7856,-1.7749,-1.7849,0.0,0.0,0.0,0.0,0.0,0.0,0.0,0.0,0.0,0.0,0.0,0.0,0.0,0.0,0.0,0.0,0.0,0.0,0.0,0.0,0.0,-2.1859,-2.1922,-2.1922,-2.2299,-2.2418,-2.2425,-2.2801,-2.2981,-2.3106,-2.3106,-2.3106,-2.3106,-2.3106,-2.3106,-2.3106,-2.3106,-2.3106,-2.3168,-2.4092,-2.5002,-2.5798,-2.5798,-2.5798,-2.5798,0.0,0.0,0.0,0.0,0.0,0.0,0.0,0.0,0.0,0.0,0.0,0.0,0.0,0.0,0.0,0.0,0.0,0.0,-0.0898,-0.0897,-0.1242,-0.197,-0.2772,-0.3717,-0.4778,-0.5722,-0.6447,-0.6988,-0.7131,-0.7037,-0.6692,-0.6692,-0.6595,-0.6408,-0.6261,-0.6282,-0.6388,-0.6038,-0.5918,-0.5928,-0.6325,-0.6738,-0.716,0.0,0.0,0.0,0.0,0.0,0.0,0.0,-0.9778,-0.9724,-1.0375,-1.0368,-1.017,-1.0492,-1.0884,-1.1234,-1.1455,-1.2117,-1.2861,-1.3144,-1.4228,-1.546,-1.6446,-1.6714,-1.7141,-1.8624,-1.8444,-1.8123,-1.8437,0.0,0.0,0.0,0.0,0.0,0.0,0.0,0.0,0.0,0.0,0.0,0.0,0.0,0.0,0.0,0.0,0.0,0.0,0.0,0.0,0.0,-2.1418,-2.1607,-2.1607,-2.1922,-2.2111,-2.2111,-2.2425,-2.2793,-2.3106,-2.3106,-2.3106,-2.3106,-2.3106,-2.3106,-2.3106,-2.3106,-2.3106,-2.3106,-2.3106,-2.3106,-2.3106,-2.3106,-2.3106,-2.3106,0.0,0.0,0.0,0.0,0.0,0.0,0.0,0.0,0.0,0.0,0.0,0.0,0.0,0.0,0.0,0.0,0.0,0.0,-0.0898,-0.126,-0.1657,-0.2122,-0.318,-0.4009,-0.4584,-0.5379,-0.612,-0.6773,-0.6696,-0.6569,-0.6501,-0.6501,-0.6404,-0.6269,-0.6465,-0.6562,-0.6577,-0.6111,-0.6049,-0.6301,-0.5979,-0.6117,-0.6549,0.0,0.0,0.0,0.0,0.0,0.0,0.0,0.0,0.0,-0.9841,-1.0309,-1.0711,-1.0241,-1.0755,-1.1418,-1.11,-1.2013,0.0,-1.2706,0.0,0.0,0.0,-1.6891,0.0,0.0,-1.8925,-1.8684,-1.8778,0.0,0.0,0.0,0.0,0.0,0.0,0.0,0.0,0.0,0.0,0.0,0.0,0.0,0.0,0.0,0.0,0.0,0.0,0.0,0.0,0.0,-2.1172,-2.1235,-2.1235,-2.1607,-2.1734,-2.1734,-2.2111,-2.2418,-2.2738,-2.2981,-2.3106,-2.3106,-2.3106,-2.3106,-2.3106,-2.3106,-2.3106,-2.3106,-2.3106,-2.3106,-2.3106,-2.3106,-2.3106,-2.3106,0.0,0.0,0.0,0.0,0.0,0.0,0.0,0.0,0.0,0.0,0.0673,0.0505,0.0,0.0,0.0,0.0,0.0,0.0,0.0,-0.1428,-0.1906,-0.2304,-0.3344,-0.4208,-0.4833,-0.5426,-0.59,-0.6266,-0.6225,-0.6241,-0.631,-0.6384,-0.6436,-0.6539,-0.6645,-0.6697,-0.6655,-0.6131,-0.6207,-0.6643,-0.6444,-0.6642,-0.7142,0.0,0.0,0.0,0.0,0.0,0.0,0.0,0.0,0.0,-0.9536,-0.9942,-1.0414,-1.0272,-1.0877,-1.1619,-1.1785,-1.2736,0.0,-1.3177,-1.488,-1.6744,-1.7022,0.0,0.0,0.0,0.0,-1.8958,0.0,0.0,0.0,0.0,0.0,0.0,0.0,0.0,0.0,0.0,0.0,0.0,0.0,0.0,0.0,0.0,0.0,0.0,0.0,0.0,0.0,0.0,-2.0822,-2.0762,-2.0762,-2.0948,-2.1072,-2.1066,-2.1376,-2.1623,-2.1878,-2.2436,-2.2801,-2.2926,-2.3043,-2.3106,-2.3106,-2.3106,-2.3106,-2.3106,-2.3106,-2.3106,-2.3106,-2.3106,-2.3106,-2.3106,0.0,0.0,0.1203,0.0959,0.0,0.0,0.0,0.0,0.0,0.0701,0.0505,0.028,0.0,0.0,0.0,-0.0673,0.0,0.0,0.0,0.0,-0.2153,-0.2595,-0.3473,-0.4414,-0.5409,-0.5731,-0.5778,-0.5612,-0.5778,-0.5984,-0.6191,-0.631,-0.6566,-0.6906,-0.6755,-0.6665,-0.6667,-0.6164,-0.6297,-0.688,-0.731,-0.7779,-0.8293,-0.9018,0.0,0.0,0.0,0.0,0.0,0.0,0.0,0.0,-0.9439,-0.947,-0.9673,-1.0377,-1.1099,-1.1907,-1.2977,-1.3781,-1.4281,-1.4033,-1.5251,0.0,-1.8302,-1.8674,-1.886,-1.919,0.0,0.0,0.0,0.0,0.0,0.0,0.0,0.0,0.0,0.0,0.0,0.0,0.0,0.0,0.0,0.0,0.0,0.0,0.0,0.0,0.0,0.0,0.0,0.0,-2.0374,-2.0173,-2.0173,-2.0173,-2.0173,0.0,-2.053,-2.0651,-2.0671,-2.1582,-2.2208,-2.2457,-2.2769,-2.2963,-2.2963,-2.2956,-2.2956,-2.2963,-2.3025,-2.3025,-2.3025,-2.3054,-2.3062,-2.3069,0.0,0.0,0.1168,0.0998,0.0,0.0,0.0,0.0,0.0701,0.0701,0.0336,0.0056,0.0,-0.0224,0.0,-0.0673,-0.1148,0.0,0.0,0.0,-0.3309,-0.3509,-0.4502,-0.5296,-0.5797,-0.5696,-0.5653,-0.5612,-0.5653,-0.5766,-0.598,-0.6155,-0.6278,-0.6387,-0.6428,-0.6497,-0.6522,-0.6424,-0.6355,-0.6406,-0.7089,-0.7088,-0.681,-0.8001,-0.8385,0.0,0.0,0.0,0.0,0.0,0.0,0.0,-0.9413,-0.9928,-1.0443,-0.9847,-1.0919,-1.229,-1.2229,-1.2774,0.0,0.0,-1.4057,-1.5545,-1.6164,-1.7078,-1.7796,0.0,0.0,0.0,0.0,0.0,0.0,0.0,0.0,0.0,0.0,0.0,0.0,0.0,0.0,0.0,0.0,0.0,0.0,0.0,0.0,0.0,0.0,0.0,0.0,-2.0327,-2.0267,-2.0173,-2.0173,-2.0173,-2.0173,0.0,-2.0295,-2.0295,-2.0355,-2.1084,-2.1451,-2.1512,-2.1572,-2.1633,-2.1633,-2.1875,-2.1989,-2.2057,-2.2313,-2.2381,-2.241,-2.2637,-2.2725,-2.2762,0.0,0.0,0.0,0.0,0.0,0.0,0.0,0.0,0.0505,0.0393,0.0084,-0.0112,-0.0196,-0.0393,0.0,0.0,-0.1483,-0.1846,0.0,0.0,-0.3793,-0.4215,-0.4922,-0.5354,-0.5414,-0.5543,-0.5527,-0.5356,-0.5418,-0.5669,-0.6049,-0.631,-0.6526,-0.666,-0.6578,-0.6501,-0.6441,-0.6191,-0.6204,-0.642,-0.6841,-0.7097,-0.7334,-0.8024,-0.8358,-0.8468,-0.8718,0.0,0.0,0.0,0.0,0.0,0.0,0.0,-0.996,-0.985,-1.0657,-1.1635,-1.1786,0.0,0.0,-1.3051,0.0,-1.5053,-1.596,-1.6304,0.0,0.0,0.0,0.0,0.0,0.0,0.0,0.0,0.0,0.0,0.0,0.0,0.0,0.0,0.0,0.0,0.0,0.0,0.0,0.0,0.0,0.0,0.0,-2.0027,-2.0027,-2.0027,-1.9887,-1.982,-1.982,-1.982,-1.982,-1.982,-1.982,-1.982,-1.9826,-2.0581,-2.0953,-2.0953,-2.1134,-2.1194,-2.1187,-2.1368,-2.1435,-2.1488,-2.1622,-2.1809,-2.2004,-2.2096,-2.2282,-2.2454,0.0,0.0,0.0,0.0,0.0,0.0,0.0,0.0,0.0,0.0028,-0.0196,-0.0421,-0.0588,-0.0812,-0.1176,0.0,0.0,0.0,-0.282,0.0,0.0,-0.4727,-0.5051,-0.518,-0.503,-0.5418,-0.5442,-0.5147,-0.5296,-0.5676,-0.629,-0.6489,-0.6794,-0.7163,-0.6798,-0.6534,-0.6339,-0.5917,-0.5988,-0.6407,-0.6662,-0.7196,-0.7895,-0.809,-0.8239,-0.8368,-0.856,-0.8718,-0.8817,-0.8831,0.0,0.0,0.0,0.0,-0.9139,-0.9901,-1.0299,-1.0692,-1.1446,0.0,-1.2711,-1.3443,-1.4256,0.0,-1.5922,0.0,0.0,0.0,0.0,0.0,0.0,0.0,0.0,0.0,0.0,0.0,0.0,0.0,0.0,0.0,0.0,0.0,0.0,0.0,0.0,0.0,0.0,0.0,-1.9726,-1.9726,-1.9726,-1.9726,-1.9492,-1.9424,-1.9424,-1.9424,-1.9424,-1.9424,-1.9424,-1.9424,-1.9444,-2.0157,-2.0501,-2.0501,-2.0794,-2.0913,-2.0913,-2.0913,-2.0973,-2.0973,-2.1033,-2.1212,-2.1458,-2.1508,-2.1723,-2.2087,0.0,0.0,0.0,0.0,0.0,0.0,0.0,0.0,0.0,0.0,-0.0561,-0.1093,-0.1399,-0.1762,-0.2155,-0.2514,-0.2929,-0.3262,0.0,0.0,0.0,-0.4937,-0.5229,-0.5436,-0.5593,-0.5607,-0.5534,-0.5351,-0.5482,-0.5921,-0.6632,-0.6313,-0.6489,-0.7008,-0.6611,-0.6318,-0.6152,-0.6307,-0.6036,-0.5578,-0.6611,-0.6502,-0.5821,-0.6883,-0.6966,-0.6664,-0.7658,-0.8037,-0.8143,-0.8765,-0.9008,0.0,0.0,0.0,0.0,-0.9273,-0.9746,-1.031,0.0,0.0,-1.2711,0.0,-1.4191,-1.5335,0.0,0.0,0.0,0.0,0.0,0.0,0.0,0.0,0.0,0.0,0.0,0.0,0.0,0.0,0.0,0.0,0.0,0.0,0.0,0.0,0.0,0.0,0.0,0.0,-1.9426,-1.9426,-1.9426,-1.9426,-1.945,-1.9424,-1.9424,-1.9424,-1.9424,-1.9424,-1.9424,-1.9424,-1.943,-1.9504,-1.9596,-1.9596,-1.9596,-1.9654,-1.9654,-1.988,-1.999,-2.0048,-2.028,-2.0454,-2.054,-2.0815,-2.109,-2.1405,0.0,0.0,0.0,0.0,0.0,0.0,0.0,0.0,0.0,0.0,0.0,-0.1399,-0.1874,-0.2265,-0.2655,-0.3067,-0.3347,0.0,0.0,0.0,0.0,0.0,-0.5012,-0.5173,-0.5258,-0.531,-0.5246,-0.5124,-0.5246,-0.5785,-0.6694,-0.6467,-0.6828,-0.7656,-0.709,-0.6665,-0.6352,-0.6104,-0.5736,-0.5352,-0.5868,-0.6127,-0.6229,-0.65,-0.6781,-0.7081,-0.7345,-0.7456,-0.7563,-0.8176,-0.8388,-0.8441,-0.8771,0.0,0.0,0.0,-0.9271,-0.9817,-1.0842,-1.1897,-1.2758,0.0,-1.4167,-1.5376,0.0,0.0,0.0,0.0,0.0,0.0,0.0,0.0,0.0,0.0,0.0,0.0,0.0,0.0,0.0,0.0,0.0,0.0,0.0,0.0,0.0,0.0,0.0,-1.9424,-1.9424,-1.9424,-1.9424,-1.9424,-1.9424,-1.9424,-1.9424,-1.9424,-1.9424,-1.9424,-1.9424,-1.9424,-1.9424,-1.9424,-1.9424,-1.9424,-1.9424,-1.9424,-1.9424,-1.954,-1.9591,-1.9591,-1.9764,-1.9873,-2.006,-2.0199,-2.0531,-2.0988,0.0,0.0,0.0,0.0,0.0,0.0,0.0,0.0,0.0,0.0,0.0,-0.1928,-0.2488,0.0,0.0,0.0,-0.3746,0.0,0.0,0.0,0.0,0.0,0.0,-0.4926,-0.4903,-0.5058,-0.5062,-0.4903,-0.5062,-0.5677,-0.6689,-0.6693,-0.725,-0.8274,-0.7672,-0.7068,-0.6481,-0.603,-0.5664,-0.5422,-0.5422,-0.5906,-0.6592,-0.6415,-0.6781,-0.742,-0.7151,-0.7043,-0.712,-0.7562,-0.7791,-0.7978,0.0,0.0,0.0,0.0,0.0,0.0,0.0,0.0,-1.2433,-1.2802,-1.4132,-1.5348,0.0,0.0,0.0,0.0,0.0,0.0,0.0,0.0,0.0,0.0,0.0,0.0,0.0,0.0,0.0,0.0,0.0,0.0,0.0,0.0,0.0,0.0,0.0,-1.9285,-1.9424,-1.9424,-1.9424,-1.9424,-1.9424,-1.9424,-1.9424,-1.9424,-1.9424,-1.9424,-1.9424,-1.9424,-1.9424,-1.9424,-1.9424,-1.9424,-1.9424,-1.9424,-1.9424,-1.9424,-1.9424,-1.9424,-1.9424,-1.954,-1.97,-1.97,-2.004,-2.0536,0.0,0.0,0.0,0.0,0.0,0.0,0.0,0.0,0.0,0.0,0.0,-0.2989,-0.3489,-0.3882,-0.4139,-0.4164,-0.4331,0.0,0.0,0.0,0.0,0.0,0.0,0.0,-0.4913,-0.5152,-0.5152,-0.4913,-0.5152,-0.5743,-0.6615,-0.6797,-0.7509,-0.8571,-0.8076,-0.7278,-0.6326,-0.641,-0.619,-0.5771,-0.5771,-0.5822,-0.5918,-0.6471,-0.6718,-0.6772,-0.6878,-0.6895,-0.6944,0.0,-0.7477,-0.7898,-0.7925,-0.8335,-0.8804,0.0,0.0,0.0,0.0,-1.0266,0.0,-1.2355,0.0,0.0,0.0,0.0,0.0,0.0,0.0,0.0,0.0,0.0,0.0,0.0,0.0,0.0,0.0,0.0,0.0,0.0,0.0,0.0,0.0,0.0,0.0,0.0,0.0,-1.9072,-1.9352,-1.9424,-1.9424,-1.9424,-1.9424,-1.9424,-1.9424,-1.9424,-1.9424,-1.9424,-1.9424,-1.9424,-1.9424,-1.9424,-1.9424,-1.9424,-1.9424,-1.9424,-1.9424,-1.9424,-1.9424,-1.9424,-1.9424,-1.9424,-1.9424,-1.9424,-1.9591,-1.9914,0.0,0.0,0.0,0.0,0.0,0.0,0.0,0.0,0.0,0.0,0.0,0.0,0.0,-0.3325,-0.339,-0.3787,-0.4237,0.0,0.0,0.0,0.0,0.0,0.0,0.0,-0.4897,-0.4908,-0.4908,-0.4897,-0.4908,-0.5367,-0.6226,-0.6335,-0.6622,-0.706,-0.7297,-0.7282,-0.702,-0.6232,-0.5936,-0.5943,-0.5943,-0.6151,-0.6531,-0.6633,-0.6896,-0.7125,-0.6866,-0.6627,0.0,0.0,0.0,-0.7065,-0.785,-0.8157,-0.8309,-0.8699,-0.8804,0.0,0.0,0.0,0.0,-1.2125,0.0,0.0,0.0,0.0,0.0,0.0,0.0,0.0,0.0,0.0,0.0,0.0,0.0,0.0,0.0,0.0,0.0,0.0,0.0,0.0,0.0,0.0,0.0,0.0,0.0,0.0,-1.8798,-1.8804,-1.8804,-1.8804,-1.8804,-1.8804,-1.8804,-1.8804,-1.8898,-1.9085,-1.9085,-1.9185,-1.9424,-1.9424,-1.9424,-1.9424,-1.9424,-1.9424,-1.9424,-1.9424,-1.9424,-1.9424,-1.9424,-1.9424,-1.9424,-1.9424,-1.9591,-1.9829,0.0,0.0,0.0,0.0,0.0,-0.0138,-0.0532,-0.0757,-0.126,-0.2235,0.0,0.0,0.0,0.0,-0.2931,-0.3544,-0.4088,-0.4436,-0.4487,-0.4546,0.0,0.0,0.0,0.0,-0.4818,-0.4794,-0.4794,-0.4846,-0.4794,-0.513,-0.5814,-0.5859,-0.6011,-0.6292,-0.6447,-0.6752,-0.7058,-0.6394,-0.6132,-0.6182,-0.6256,-0.6531,-0.6919,-0.7151,-0.7367,-0.7559,-0.7165,0.0,0.0,0.0,0.0,0.0,-0.7521,-0.7711,-0.7717,-0.8103,-0.8348,-0.8668,-0.9483,0.0,0.0,0.0,0.0,0.0,0.0,0.0,0.0,0.0,0.0,0.0,0.0,0.0,0.0,0.0,0.0,0.0,0.0,0.0,0.0,0.0,0.0,0.0,0.0,0.0,0.0,0.0,0.0,0.0,-1.8484,-1.849,-1.849,-1.849,-1.849,-1.849,-1.849,-1.849,-1.8591,-1.8778,-1.8778,-1.8885,-1.9078,-1.9172,-1.9219,-1.9225,-1.9325,-1.9424,-1.9424,-1.9424,-1.9424,-1.9424,-1.9424,-1.9424,-1.9424,-1.9424,-1.9533,-1.9649,0.0056,0.0,0.0,0.0,0.0,0.0,-0.0028,-0.0533,-0.1009,-0.1286,0.0,0.0,0.0,0.0,0.0,-0.3514,-0.3955,-0.4287,-0.4481,-0.4632,0.0,0.0,0.0,0.0,-0.4688,-0.4822,-0.4818,-0.4691,-0.4818,-0.506,-0.5375,-0.5378,-0.5739,-0.6342,-0.5686,-0.5723,-0.6293,-0.6808,-0.6824,-0.6545,-0.6787,-0.6879,-0.7004,-0.7919,-0.8167,-0.7997,-0.77,-0.7531,0.0,-0.6896,0.0,0.0,-0.6947,-0.7,-0.709,-0.7112,-0.7482,-0.7883,0.0,0.0,0.0,0.0,0.0,0.0,0.0,0.0,0.0,0.0,0.0,0.0,0.0,0.0,0.0,0.0,0.0,0.0,0.0,0.0,0.0,0.0,0.0,0.0,0.0,0.0,0.0,0.0,0.0,-1.8102,-1.845,-1.8464,-1.8464,-1.8464,-1.8464,-1.8464,-1.8464,-1.8464,-1.847,-1.8477,-1.8477,-1.8484,-1.8504,-1.8784,-1.8918,-1.8938,-1.9232,-1.9417,-1.9424,-1.9424,-1.9424,-1.9424,-1.9424,-1.9424,-1.9424,-1.9424,-1.9424,-1.9424,0.0027,0.0,0.0,0.0,0.0,-0.0139,-0.0588,-0.087,-0.1261,0.0,0.0,0.0,-0.2018,-0.243,-0.2764,-0.2931,-0.3844,-0.4447,-0.4487,-0.4546,-0.4546,-0.4546,-0.4601,-0.4601,-0.4546,-0.4601,-0.4629,-0.4691,-0.4629,-0.4696,-0.4887,-0.5056,-0.5173,-0.5327,-0.5479,-0.5585,-0.5638,-0.5535,-0.5957,-0.6617,-0.6376,-0.6755,-0.7584,-0.7729,0.0,0.0,0.0,-0.7972,-0.7828,0.0,-0.7303,-0.6928,0.0,-0.6981,-0.7239,-0.7133,-0.728,-0.745,-0.7339,0.0,0.0,0.0,0.0,0.0,0.0,0.0,0.0,0.0,0.0,0.0,0.0,0.0,0.0,0.0,0.0,0.0,0.0,0.0,0.0,0.0,0.0,0.0,0.0,0.0,0.0,0.0,-1.7709,-1.7749,-1.7829,-1.7836,-1.7836,-1.7836,-1.7836,-1.7836,-1.7836,-1.7836,-1.7949,-1.8115,-1.8115,-1.8283,-1.8497,-1.8577,-1.8724,-1.8925,-1.9011,-1.9165,-1.9424,-1.9424,-1.9424,-1.9424,-1.9424,-1.9424,-1.9424,-1.9424,-1.9424,-1.9424,0.0027,0.0,0.0,0.0,0.0,-0.0113,-0.0466,-0.0636,-0.0891,0.0,0.0,0.0,-0.1196,-0.1828,-0.2349,-0.26,-0.3543,-0.4239,-0.4491,-0.4491,-0.4491,-0.4491,-0.4491,-0.4491,-0.4491,-0.4491,-0.4546,-0.4605,-0.4546,-0.4546,-0.4605,-0.4748,-0.4783,-0.4738,-0.5026,-0.5144,-0.5098,-0.483,-0.5382,-0.643,-0.6542,-0.7044,0.0,-0.7906,-0.818,0.0,0.0,0.0,-0.8187,-0.8101,-0.7576,0.0,0.0,-0.6785,-0.6954,-0.6673,-0.6939,-0.7275,-0.7094,-0.756,-0.8169,0.0,0.0,0.0,0.0,0.0,0.0,0.0,0.0,0.0,0.0,0.0,0.0,0.0,0.0,0.0,0.0,0.0,0.0,0.0,0.0,0.0,0.0,0.0,0.0,-1.7569,-1.7582,-1.7364,-1.6935,-1.6882,-1.6664,-1.618,-1.6127,-1.6127,-1.6127,-1.6127,-1.6207,-1.6373,-1.6373,-1.6459,-1.6673,-1.6784,-1.6975,-1.7129,-1.724,-1.745,-1.771,-1.8243,-1.8841,-1.9424,-1.9424,-1.9424,-1.9424,-1.9424,-1.9424,-1.9424,0.0,0.0,0.0,0.0,0.0,0.0,0.0,-0.0121,-0.021,0.0,-0.0305,-0.0396,-0.041,-0.1123,-0.1807,-0.2377,-0.308,-0.3764,-0.4371,-0.4397,-0.4436,-0.4491,-0.4491,-0.4491,-0.4491,-0.4491,-0.4491,-0.4491,-0.4491,-0.4491,-0.4491,-0.4491,-0.4491,-0.4491,-0.4491,-0.4566,-0.466,-0.4621,-0.5055,-0.5886,-0.6721,-0.7207,0.0,0.0,-0.8102,-0.8173,-0.8397,-0.8418,-0.8348,-0.833,-0.7798,0.0,0.0,-0.6596,-0.6552,-0.6113,-0.6602,-0.7239,-0.7053,-0.7467,-0.8177,-0.9108,0.0,0.0,-1.0143,-0.9884,0.0,0.0,0.0,0.0,0.0,0.0,0.0,0.0,0.0,0.0,0.0,0.0,0.0,0.0,0.0,0.0,0.0,-1.7152,-1.7259,-1.7468,-1.7377,-1.6898,-1.5883,-1.5748,-1.5175,-1.4099,-1.4067,-1.4078,-1.4078,-1.4078,-1.4078,-1.4078,-1.4078,-1.4078,-1.4083,-1.4407,-1.4576,-1.4614,-1.4876,-1.5053,-1.5338,-1.6534,-1.7866,-1.9185,-1.9366,-1.9424,-1.9424,-1.9424,-1.9424,-1.9424,0.0,0.0,0.0,0.0,0.0,0.0,0.0,-0.0125,-0.0187,-0.0198,-0.0303,-0.0415,-0.0472,-0.1142,-0.1674,-0.1826,-0.2472,-0.3143,-0.3825,-0.3792,-0.3987,-0.4491,-0.4491,-0.4491,-0.4491,-0.4491,-0.4491,-0.4491,-0.4491,-0.4491,-0.4491,-0.4491,-0.4491,-0.4491,-0.4491,-0.4505,-0.4563,-0.5023,-0.4965,-0.4554,-0.4747,-0.5526,-0.6476,-0.5612,-0.5584,-0.6127,-0.694,-0.7291,-0.7471,-0.8086,-0.8056,-0.7629,0.0,0.0,-0.6865,-0.656,-0.6781,-0.713,-0.702,-0.761,-0.8165,-0.7822,0.0,0.0,0.0,-0.8186,0.0,0.0,0.0,0.0,0.0,0.0,0.0,0.0,0.0,0.0,0.0,0.0,0.0,0.0,0.0,0.0,0.0,-1.6794,-1.6814,-1.6874,-1.6113,-1.5546,-1.5342,-1.4654,-1.4184,-1.3973,-1.404,-1.4078,-1.4078,-1.4078,-1.4078,-1.4078,-1.4078,-1.4078,-1.4083,-1.418,-1.4364,-1.4603,-1.4652,-1.4803,-1.5093,-1.553,-1.6512,-1.7987,-1.901,-1.9424,-1.9424,-1.9424,-1.9424,-1.9424,0.0,0.0,0.0,0.0,0.0,0.0,0.0,-0.0099,-0.0166,-0.0108,-0.0152,-0.0195,-0.0266,-0.074,-0.1184,-0.1514,-0.2024,-0.2566,-0.3156,-0.3176,-0.3293,-0.3599,-0.3904,-0.4042,-0.4042,-0.4349,-0.4491,-0.4491,-0.4491,-0.4491,-0.4491,-0.4491,-0.4352,-0.41,-0.4392,-0.4397,-0.4235,-0.4804,-0.499,-0.4888,-0.4881,0.0,-0.5393,-0.4982,-0.5022,-0.5466,-0.5973,-0.6508,-0.7016,-0.7293,-0.7662,0.0,0.0,-0.7278,-0.7382,0.0,-0.7055,-0.7283,-0.7222,-0.7518,-0.7816,-0.7683,0.0,0.0,0.0,0.0,0.0,0.0,0.0,0.0,0.0,0.0,0.0,0.0,0.0,0.0,0.0,0.0,0.0,0.0,0.0,0.0,0.0,-1.6486,-1.6348,-1.5991,-1.5493,-1.4728,-1.3596,-1.3143,-1.2633,-1.2068,-1.2157,-1.2266,-1.2266,-1.2365,-1.2417,-1.2417,-1.2417,-1.2417,-1.2417,-1.2417,-1.2474,-1.2628,-1.2628,-1.2802,-1.3064,-1.3788,-1.4662,-1.5637,-1.7646,-1.8467,-1.8525,-1.9185,-1.9424,-1.9424,0.0,0.0,0.0,0.0,0.0,0.0,0.0,-0.0103,-0.0106,0.0,0.0,0.0,0.0,-0.0281,-0.0668,-0.1133,-0.1454,-0.1876,-0.2474,-0.2491,-0.2571,-0.2705,-0.3187,-0.3423,-0.3439,-0.3903,-0.4156,-0.4156,-0.4267,-0.4322,-0.4322,-0.4436,-0.4291,-0.3906,-0.4197,-0.4312,-0.4233,-0.4509,-0.4891,-0.5257,0.0,-0.4965,-0.4681,-0.4667,-0.4784,-0.4905,-0.501,-0.5702,-0.6586,-0.6571,-0.7097,-0.7723,-0.7547,-0.7692,0.0,0.0,0.0,0.0,0.0,0.0,0.0,0.0,0.0,-0.75,0.0,0.0,0.0,-0.7741,0.0,0.0,0.0,0.0,0.0,0.0,0.0,0.0,0.0,0.0,0.0,0.0,0.0,0.0,0.0,-1.5972,-1.5761,-1.5357,-1.4991,-1.3962,-1.213,-1.1872,-1.1283,-1.0159,-1.0286,-1.0383,-1.0383,-1.0554,-1.0643,-1.0643,-1.0676,-1.0692,-1.0692,-1.0692,-1.0692,-1.0692,-1.0692,-1.0777,-1.1027,-1.2111,-1.2711,-1.321,-1.6262,-1.7465,-1.763,-1.8946,-1.9424,-1.9424,0.0,0.0,0.0,0.0,0.0,0.0,0.0,0.0,0.0,0.0,0.0,0.0,0.0,-0.0181,-0.0358,-0.0414,-0.058,-0.0997,-0.1752,-0.1744,-0.2037,-0.2756,-0.2809,-0.2842,-0.2887,-0.2906,-0.2903,-0.2903,-0.343,-0.371,-0.371,-0.4239,-0.4533,-0.4572,-0.4036,-0.4395,-0.5359,0.0,-0.4291,0.0,-0.3999,-0.4404,0.0,-0.3643,-0.3175,-0.3258,-0.3633,-0.4576,-0.5704,0.0,-0.6757,-0.6941,0.0,-0.7851,-0.7968,0.0,0.0,0.0,0.0,0.0,0.0,0.0,-0.8099,0.0,0.0,0.0,-0.7389,-0.7382,0.0,0.0,0.0,0.0,0.0,0.0,0.0,0.0,0.0,0.0,0.0,0.0,0.0,0.0,0.0,0.0,-1.5012,-1.5675,-1.4178,-1.3066,-1.2629,-1.187,-1.0969,-0.9967,-1.0095,-1.0245,-1.0245,-1.0371,-1.0411,-1.0465,-1.0619,-1.0692,-1.0692,-1.0692,-1.0692,-1.0692,-1.0692,-1.0704,-1.0737,-1.1067,-1.1214,-1.1681,-1.5652,-1.7371,-1.763,-1.8946,-1.9424,-1.9424,0.0,0.0,0.0,0.0,0.0,0.0,0.0,0.0,0.0,0.0,0.0,0.0,0.0,-0.0188,-0.0278,-0.0323,-0.0439,-0.0703,0.0,-0.1097,-0.1286,-0.1624,-0.2038,-0.226,-0.2277,-0.2561,-0.2705,-0.2708,-0.2959,-0.307,-0.3098,-0.3683,-0.396,-0.3876,-0.3577,0.0,-0.4477,0.0,-0.4084,0.0,0.0,0.0,0.0,-0.2734,-0.226,-0.2286,-0.2502,-0.3358,-0.4393,0.0,-0.5519,0.0,0.0,0.0,0.0,0.0,0.0,0.0,0.0,0.0,0.0,0.0,0.0,0.0,-0.7407,0.0,-0.7254,0.0,0.0,0.0,0.0,0.0,0.0,0.0,0.0,0.0,0.0,0.0,0.0,0.0,0.0,0.0,0.0,0.0,0.0,0.0,0.0,-1.151,-1.0818,-1.0516,-1.0179,-0.9734,-0.9908,-1.0053,-1.0053,-1.0184,-1.0331,-1.0383,-1.0509,-1.0595,-1.0692,-1.0692,-1.0692,-1.0692,-1.0692,-1.0692,-1.07,-1.0773,-1.0871,-1.1262,-1.3713,-1.5229,-1.6149,-1.7586,-1.8525,-1.9132,0.0,0.0,0.0,0.0,0.0,0.0,0.0,0.0,0.0,0.0,0.0,0.0,0.0,-0.0148,-0.0196,-0.024,-0.0332,-0.0454,0.0,-0.0556,-0.065,-0.073,-0.1223,-0.1502,-0.1506,-0.1877,-0.2107,-0.2153,-0.2329,-0.2413,-0.2463,-0.3084,-0.3301,-0.3212,-0.3029,-0.3276,-0.3776,0.0,-0.3583,-0.3428,-0.406,-0.3662,-0.2642,-0.2072,-0.1753,-0.157,-0.157,-0.2185,-0.2953,-0.3031,-0.4281,0.0,-0.5877,0.0,0.0,0.0,0.0,0.0,-0.7401,0.0,0.0,0.0,0.0,0.0,0.0,0.0,0.0,0.0,0.0,0.0,0.0,0.0,0.0,0.0,0.0,0.0,0.0,0.0,0.0,0.0,0.0,0.0,0.0,0.0,0.0,0.0,0.0,0.0,-0.9836,-0.9915,-0.987,-0.9624,-0.975,-0.9815,-0.9815,-0.9994,-1.0152,-1.0128,-1.0223,-1.0335,-1.0401,-1.0507,-1.0582,-1.0582,-1.0692,-1.0692,-1.0692,-1.0692,-1.0769,-1.1003,-1.1933,-1.3068,-1.4417,-1.6028,-1.7124,-1.7913,0.0,0.0,0.0,0.0,0.0,0.0,0.0,0.0,0.0,0.0,0.0,0.0,0.0,0.0,0.0,0.0,0.0,-0.0104,-0.0293,0.0,-0.0339,-0.0605,-0.0519,-0.0489,0.0,-0.0497,-0.0577,-0.0764,-0.1336,-0.1707,-0.1847,-0.2439,-0.284,-0.2985,-0.2387,-0.2828,-0.3912,-0.2954,-0.2661,-0.2796,-0.2457,-0.1753,-0.1051,0.0,-0.1554,-0.0953,-0.0953,0.0,0.0,-0.258,-0.3165,0.0,0.0,0.0,0.0,0.0,0.0,0.0,0.0,0.0,0.0,-0.7347,0.0,0.0,0.0,0.0,-0.762,0.0,0.0,0.0,0.0,0.0,-0.8508,-0.7688,0.0,0.0,0.0,0.0,0.0,0.0,0.0,0.0,0.0,0.0,0.0,0.0,0.0,0.0,-1.0844,-1.0882,-1.0452,-0.9624,-0.9583,-0.9587,-0.9587,-0.9807,-0.9794,-0.9552,-0.9832,-0.9888,-0.9631,-1.0124,-1.0312,-1.0312,-1.0582,-1.0692,-1.0692,-1.0692,-1.0696,-1.07,-1.0755,-1.1459,-1.2702,-1.4457,-1.5074,-1.5338,0.0,0.0,0.0,0.0,0.0,0.0,0.0,0.0,0.0,0.0,0.0,0.0,0.0,0.0,0.0,0.0,0.0,-0.0055,-0.0102,-0.0196,0.0,-0.0409,-0.0504,-0.0521,0.0,-0.048,-0.0482,-0.0516,-0.0845,-0.1043,-0.1093,-0.1791,-0.2266,-0.2522,0.0,-0.2212,0.0,0.0,0.0,0.0,0.0,-0.0786,-0.0616,0.0,0.0,-0.0897,-0.0897,-0.0953,0.0,-0.1448,-0.215,-0.289,-0.3415,-0.4026,-0.4597,-0.4856,-0.4845,0.0,0.0,0.0,-0.5511,-0.6315,0.0,0.0,0.0,0.0,0.0,0.0,0.0,0.0,0.0,0.0,-0.7757,-0.7256,-0.7591,0.0,0.0,0.0,0.0,0.0,0.0,0.0,0.0,0.0,0.0,0.0,0.0,0.0,0.0,-0.9811,-0.9824,-0.962,-0.9579,-0.9579,-0.9579,-0.9685,-0.972,-0.9786,-0.9701,-0.9721,-0.9885,-1.0054,-1.0144,-1.0312,-1.0582,-1.0692,-1.0692,-1.0692,-1.0692,-1.0692,-1.0692,-1.0962,-1.1476,-1.3003,-1.411,-1.4832,0.0,0.0,0.0,0.0,0.0,0.0,0.0,0.0,0.0,0.0,0.0,0.0,0.0,0.0,0.0,0.0,0.0,0.0,0.0,-0.0104,0.0,-0.0193,-0.0323,0.0,0.0,0.0,-0.0342,-0.0342,-0.047,-0.0584,-0.074,-0.1194,-0.1567,-0.1828,0.0,-0.162,-0.1749,-0.1767,-0.131,0.0,0.0,-0.0215,0.0,0.0,-0.0561,-0.0561,0.0,-0.0617,-0.0729,-0.0729,-0.128,-0.1984,-0.215,-0.27,-0.3317,-0.3559,-0.3662,-0.3756,-0.4131,-0.4225,0.0,-0.5222,-0.5261,0.0,-0.6153,0.0,0.0,0.0,0.0,0.0,0.0,0.0,0.0,-0.7089,-0.7005,0.0,0.0,0.0,0.0,0.0,0.0,0.0,0.0,0.0,-0.91,-0.9372,0.0,0.0,0.0,0.0,-0.9344,-0.9527,-0.9596,-0.9579,-0.9579,-0.9579,-0.9635,-0.9644,-0.9454,-0.9427,-0.9587,-0.9804,-0.9981,-1.0147,-1.0527,-1.0692,-1.0692,-1.0692,-1.0692,-1.0692,-1.0692,-1.0692,-1.0814,-1.1751,-1.2885,-1.4053,0.0,0.0,0.0,0.0,0.0,0.0,0.0,0.0,0.0,0.0,0.0,0.0,0.0,0.0,0.0,0.0,0.0,0.0,0.0,0.0,0.0,0.0,0.0,0.0,0.0,0.0,0.0,0.0,-0.0211,-0.0404,-0.0775,-0.072,0.0,0.0,-0.1121,0.0,-0.0863,-0.1073,-0.0852,-0.0365,-0.0108,0.0,0.0,0.0,0.0,0.0,0.0,-0.0168,-0.0393,-0.0393,-0.0617,-0.0841,-0.0897,-0.1053,-0.1253,-0.1286,-0.1475,-0.1862,-0.2837,-0.3123,-0.3296,-0.4137,0.0,0.0,0.0,0.0,-0.6092,0.0,0.0,0.0,0.0,0.0,0.0,-0.7161,-0.6718,-0.6569,0.0,0.0,0.0,0.0,0.0,0.0,0.0,0.0,-0.8145,-0.8276,-0.7794,0.0,0.0,0.0,-0.9157,-0.9396,-0.9535,-0.9579,-0.9579,-0.9579,-0.943,-0.9187,-0.9094,-0.9002,-0.8909,-0.9374,-0.9645,-0.9805,-1.0414,-1.0692,-1.0692,-1.0692,-1.0692,-1.0692,-1.0692,-1.0692,-1.0692,-1.0692,-1.1563,-1.2799,0.0,0.0,0.0,0.0,0.0,0.0,0.0,0.0,0.0,0.0,0.0,0.0,0.0,0.0,0.0,0.0,0.0,0.0,0.0,0.0,0.0,0.0,0.0,0.0,0.0,0.0,0.0,-0.004,0.0,0.0,-0.0428,0.0,0.0,0.0,0.0,0.0,-0.0462,-0.0546,-0.0394,-0.0106,-0.0055,0.0,0.0,0.0,0.0,0.0,0.0,-0.0056,-0.0112,-0.0112,-0.0168,-0.028,-0.0449,-0.0555,-0.0709,-0.1178,-0.1316,-0.1448,-0.1877,-0.2019,-0.2266,-0.3235,-0.3353,-0.3454,0.0,0.0,0.0,0.0,0.0,0.0,0.0,0.0,0.0,0.0,0.0,0.0,0.0,0.0,0.0,0.0,0.0,0.0,0.0,-0.8189,-0.7984,-0.8079,-0.757,0.0,0.0,0.0,0.0,-0.9388,-0.9535,-0.9579,-0.9579,-0.9381,-0.9282,-0.9187,-0.8777,-0.8628,-0.8742,-0.8996,-0.9204,-0.937,-1.0089,-1.0417,-1.0421,-1.0637,-1.0692,-1.0692,-1.0692,-1.0692,-1.0692,-1.0692,-1.094,-1.1296,0.0,0.0,0.0,0.0,0.0,0.0,0.0,0.0,0.0,0.0,0.0,0.0,0.0,0.0,0.0,0.0,0.0,0.0,0.0,0.0,0.0,0.0,0.0,0.0,0.0,0.0,0.0,0.0,0.0,0.0,-0.0297,0.0,0.0,0.0,0.0,-0.0495,0.0,-0.023,-0.015,0.0,0.0,0.0,0.0,0.0,0.0,0.0,0.0,0.0,0.0,0.0,0.0,0.0,-0.0168,-0.0279,-0.0441,-0.0805,-0.1059,-0.1254,-0.1374,-0.1516,-0.1768,-0.2371,-0.2384,-0.253,-0.3486,-0.371,-0.3779,0.0,0.0,0.0,0.0,0.0,0.0,0.0,0.0,0.0,0.0,0.0,0.0,0.0,0.0,0.0,0.0,-0.7322,-0.716,-0.7218,-0.6992,0.0,0.0,0.0,0.0,-0.8968,-0.9324,-0.9449,-0.9274,-0.9232,-0.9133,-0.9031,-0.8581,-0.8517,-0.8681,-0.8827,-0.8987,-0.9255,-0.9796,-1.0091,-1.0091,-1.0253,-1.0308,-1.0308,-1.0476,-1.0582,-1.0692,-1.0692,-1.0692,-1.0733,0.0,0.0,0.0,0.0,0.0,0.0,0.0,0.0,0.0,0.0,0.0,0.0,0.0,0.0,0.0,0.0,0.0,0.0,0.0,0.0,0.0,0.0,0.0,0.0,0.0,0.0,0.0,0.0,0.0,-0.0075,-0.0258,0.0,0.0,0.0,0.0,0.0,0.0,-0.0095,0.0,0.0,0.0,0.0,0.0,0.0,0.0,0.0,0.0,0.0,0.0,0.0,0.0,0.0,0.0,-0.0168,-0.0334,-0.0377,-0.0747,-0.1165,-0.1173,-0.1314,-0.1516,-0.1516,-0.1566,-0.1753,-0.2467,-0.264,-0.2927,-0.3832,-0.392,-0.4022,0.0,0.0,0.0,0.0,0.0,0.0,0.0,0.0,0.0,0.0,0.0,0.0,0.0,-0.6396,-0.6304,-0.6233,0.0,0.0,0.0,0.0,0.0,-0.8408,-0.8981,0.0,-0.8821,0.0,-0.8981,-0.8726,-0.8482,-0.8457,-0.8598,-0.8747,-0.8902,-0.9119,-0.9548,-0.9743,-0.9761,-0.9761,-0.9816,-0.9816,-1.0147,-1.0366,-1.0582,-1.0637,-1.0637,-1.0665,0.0,0.0,0.0,0.0,0.0,0.0,0.0,0.0,0.0,0.0,0.0,0.0,0.0,0.0,0.0,0.0,0.0,0.0,0.0,0.0,0.0,0.0,0.0,0.0,0.0,0.0,0.0,0.0,0.0,0.0,-0.0065,-0.0031,0.0,0.0,0.0,0.0,-0.0044,0.0,0.0,0.0,0.0,0.0,0.0,0.0,0.0,0.0,0.0,0.0,0.0,0.0,0.0,0.0,0.0,-0.0056,-0.0111,-0.0323,-0.048,-0.0582,-0.0816,-0.0909,-0.101,-0.1212,-0.1263,-0.1361,-0.1703,-0.18,-0.185,-0.2049,-0.2094,-0.2272,-0.2994,0.0,0.0,0.0,0.0,0.0,0.0,0.0,0.0,0.0,0.0,0.0,0.0,0.0,0.0,0.0,0.0,0.0,0.0,0.0,0.0,0.0,-0.8608,0.0,0.0,0.0,-0.8531,-0.8482,-0.8187,-0.8101,-0.8135,-0.834,-0.8491,-0.8635,-0.9112,-0.9367,-0.9489,-0.9706,-0.9816,-0.9816,-0.9871,-0.9926,-0.9981,-1.0257,-1.0366,-1.0445,0.0,0.0,0.0,0.0,0.0,0.0,0.0,0.0627,0.0,0.0124,0.0,0.0,0.0,0.0,0.0,0.0,0.0,0.0,0.0,0.0,0.0,0.0,0.0,0.0,0.0,0.0,0.0,0.0,0.0,0.0,0.0,0.0,0.0,0.0,0.0,0.0,0.0,0.0,0.0,0.0,0.0,0.0,0.0,0.0,0.0,0.0,0.0,0.0,0.0,0.0,0.0,0.0,0.0,0.0,0.0,-0.0163,-0.0269,-0.0424,-0.0568,-0.0712,-0.0808,-0.096,-0.101,-0.1061,-0.1314,-0.1415,-0.1415,-0.1566,-0.1617,-0.1847,-0.2638,-0.3497,0.0,0.0,0.0,0.0,0.0,0.0,0.0,0.0,0.0,0.0,0.0,0.0,0.0,0.0,0.0,0.0,0.0,0.0,0.0,0.0,0.0,0.0,0.0,0.0,0.0,-0.8187,-0.8038,-0.7988,-0.7995,-0.8201,-0.8347,-0.8492,-0.8805,-0.9015,-0.9158,-0.9268,-0.943,-0.9596,-0.9596,-0.9651,-0.9816,-0.9981,-1.0036,-1.0103,0.0,0.0227,0.0,0.0,0.0731,0.0,0.0886,0.1835,0.2051,0.0633,0.0692,0.0943,0.0943,0.0899,0.091,0.0907,0.0897,0.0889,0.0884,0.0624,0.0433,0.0432,0.0122,0.0,0.0,0.0,0.0,0.0,0.0,0.0,0.0,0.0,0.0,0.0,0.0,0.0,0.0,0.0,0.0,0.0,0.0,0.0,0.0,0.0,0.0,0.0,0.0,0.0,0.0,0.0,0.0,0.0,0.0,0.0,0.0,0.0,-0.0162,-0.0319,-0.0313,-0.0461,-0.0657,-0.0707,-0.0707,-0.0808,-0.1061,-0.1111,-0.1162,-0.1364,-0.1465,-0.1797,-0.2638,-0.313,0.0,0.0,0.0,0.0,0.0,0.0,0.0,0.0,0.0,0.0,0.0,0.0,0.0,0.0,0.0,0.0,0.0,0.0,0.0,0.0,0.0,-0.7977,-0.7989,0.0,-0.8187,0.0,-0.7988,-0.7988,-0.7992,-0.8167,-0.8316,-0.8489,-0.8611,-0.8767,-0.8885,-0.8885,-0.9047,-0.9268,-0.9268,-0.9434,-0.9596,-0.9706,-0.9706,-0.9816,0.0,0.0,0.0,0.0,0.0,0.0,0.3918,0.4018,0.355,0.2069,0.3065,0.3928,0.3928,0.3871,0.3923,0.3873,0.3928,0.3819,0.3721,0.2579,0.1875,0.1789,0.0678,0.0,0.0,0.0,0.0,0.0,0.0,0.0,0.0,0.0,0.0,0.0,0.0,0.0,0.0,0.0,0.0,0.0,0.0,0.0,0.0,0.0,0.0,0.0,0.0,0.0,0.0,0.0,0.0,0.0,0.0,0.0,0.0,0.0,0.0,-0.0053,-0.0052,-0.0051,-0.0152,-0.0354,-0.0455,-0.0505,-0.0758,-0.0859,-0.0859,-0.0859,-0.1061,-0.1548,-0.2591,-0.225,-0.2295,0.0,0.0,0.0,0.0,0.0,0.0,0.0,0.0,0.0,0.0,0.0,0.0,0.0,0.0,0.0,0.0,0.0,0.0,-0.7464,0.0,-0.7593,-0.7914,-0.8,0.0,-0.7988,-0.7988,-0.7988,-0.7988,-0.8005,-0.8214,-0.8482,-0.8499,-0.8669,-0.8885,-0.8885,-0.894,-0.8937,-0.8937,-0.894,-0.9047,-0.9323,-0.9434,-0.9489,0.0,0.0,0.0,0.0,0.0,0.0,0.0,0.4997,0.5369,0.4766,0.4428,0.4293,0.4293,0.4293,0.4283,0.4325,0.4289,0.4249,0.4201,0.3623,0.3265,0.3247,0.266,0.2323,0.2347,0.2354,0.1976,0.0,0.0,0.0,0.0,0.0,0.0,0.0,0.0,0.0,0.0,0.0,0.0,0.0,0.0,0.0,0.0,0.0,0.0,0.0,0.0,0.0,0.0,0.0,0.0,0.0,0.0,0.0,0.0,0.0,0.0,0.0,0.0,0.0,-0.0051,-0.0152,-0.0152,-0.0253,-0.0505,-0.0556,-0.0606,-0.0758,-0.0909,-0.1156,-0.1733,-0.1961,-0.2189,0.0,0.0,0.0,0.0,0.0,0.0,0.0,0.0,0.0,0.0,0.0,0.0,0.0,0.0,-0.5383,-0.5741,0.0,0.0,-0.6873,0.0,-0.7491,-0.7735,-0.7892,-0.769,-0.7036,-0.7036,-0.6684,-0.6079,-0.6079,-0.661,-0.7592,-0.8404,-0.8825,-0.8885,-0.8885,-0.8885,-0.8885,-0.8885,-0.8885,-0.894,-0.9047,-0.9103,-0.9103,0.4657,0.0,0.5076,0.0,0.533,0.5573,0.5541,0.6439,0.7045,0.7045,0.617,0.5566,0.5566,0.5566,0.5566,0.5566,0.5581,0.554,0.5519,0.5028,0.4763,0.472,0.4235,0.0,0.3875,0.3873,0.348,0.2566,0.2577,0.0,0.0,0.0182,0.0,0.0,0.0,0.0,0.0,0.0,0.0,0.0,0.0,0.0,0.0,0.0,0.0,0.0,0.0,0.0,0.0,0.0,0.0,0.0,0.0,0.0,0.0,0.0,0.0,0.0,0.0,0.0,0.0,0.0,0.0,-0.0051,-0.0253,-0.0303,-0.0354,-0.0606,-0.0707,-0.0758,-0.101,-0.1531,-0.1901,-0.1832,0.0,0.0,0.0,0.0,0.0,0.0,0.0,-0.2994,0.0,0.0,0.0,0.0,0.0,-0.4893,-0.5268,0.0,0.0,0.0,0.0,0.0,0.0,-0.6951,-0.6684,-0.5932,-0.5932,-0.5529,-0.4826,-0.4879,-0.544,-0.6431,-0.7428,-0.7873,-0.7875,-0.8211,-0.838,-0.838,-0.8771,-0.8885,-0.8885,-0.8885,-0.8885,-0.8885,0.543,0.6231,0.6985,0.6954,0.7843,0.8515,0.852,0.8587,0.8587,0.8587,0.8587,0.852,0.852,0.852,0.852,0.852,0.8518,0.8472,0.8358,0.7096,0.6287,0.0,0.0,0.4061,0.3875,0.3876,0.3874,0.3871,0.0,0.0,0.1963,0.0609,0.0,0.0,0.0,0.0,0.0,0.0,0.0,0.0,0.0,0.0,0.0,0.0,0.0,0.0,0.0,0.0,0.0,0.0,0.0,0.0,0.0,0.0,0.0,0.0,0.0,0.0,0.0,0.0,0.0,0.0,0.0,0.0,0.0,0.0,-0.0101,-0.0354,-0.0404,-0.0505,-0.0758,-0.0808,-0.1147,-0.2206,0.0,0.0,0.0,0.0,0.0,0.0,-0.3501,-0.4059,-0.3551,0.0,0.0,0.0,0.0,0.0,0.0,0.0,0.0,-0.4442,-0.4375,0.0,-0.4742,-0.4784,-0.4824,-0.4824,-0.4824,-0.4824,-0.483,-0.5012,-0.5096,-0.5161,-0.5338,-0.5417,-0.5528,-0.6647,-0.7096,-0.7263,-0.8436,-0.8885,-0.8885,-0.8885,-0.8885,-0.8885,0.832,0.8593,0.8875,0.8848,0.9123,0.9256,0.8984,0.8917,0.8851,0.8653,0.8587,0.8587,0.8587,0.8587,0.8587,0.0,0.8587,0.8571,0.0,0.8062,0.7724,0.7654,0.7122,0.6779,0.6745,0.6644,0.6178,0.5249,0.0,0.0,0.0,0.1981,0.1384,0.1337,0.0397,0.0,0.0,0.0,0.0,0.0,0.0,0.0,0.0,0.0,0.0,0.0,0.0,0.0,0.0,0.0,0.0,0.0,0.0,0.0,0.0,0.0,0.0,0.0,0.0,0.0,0.0,0.0,0.0,0.0,0.0,0.0,0.0,-0.0101,-0.0152,-0.0202,-0.0455,-0.0505,-0.0704,-0.1242,-0.1085,0.0,0.0,0.0,0.0,0.0,0.0,-0.2182,0.0,-0.246,0.0,0.0,0.0,0.0,0.0,0.0,0.0,0.0,-0.4296,0.0,-0.4509,-0.4685,-0.4425,-0.3725,-0.3725,-0.3323,-0.2625,-0.3558,-0.3989,-0.4048,-0.5011,-0.5417,-0.5417,-0.5808,-0.5919,-0.5975,-0.6364,-0.6531,-0.6589,-0.7374,-0.7654,-0.7765,1.006,0.9994,0.9861,0.9861,0.9794,0.9594,0.9389,0.9319,0.9256,0.9056,0.8989,0.8989,0.8989,0.8853,0.0,0.8587,0.8587,0.8587,0.8587,0.8522,0.8462,0.8418,0.8272,0.8168,0.8125,0.0,0.0,0.6729,0.6167,0.5453,0.4603,0.335,0.272,0.2664,0.1347,0.0765,0.0706,0.0233,0.0,0.0,0.0,0.0,0.0,0.0,0.0,0.0,0.0,0.0,0.0,0.0,0.0,0.0,0.0,0.0,0.0,0.0,0.0,0.0,0.0,0.0,0.0,0.0,0.0,0.0,0.0,0.0,0.0,0.0,0.0,-0.0051,-0.0202,-0.0253,-0.0354,-0.0606,-0.0642,-0.0723,-0.0945,0.0,0.0,0.0,0.0,0.0,0.0,-0.1986,0.0,0.0,0.0,0.0,0.0,0.0,0.0,-0.2904,-0.326,0.0,-0.3354,-0.3533,-0.3274,-0.2622,-0.2622,-0.2279,-0.1686,-0.247,-0.2832,-0.2908,-0.3704,-0.4026,-0.4081,-0.4528,-0.4749,-0.4749,-0.525,-0.5417,-0.5472,-0.62,-0.676,-0.721,1.0721,1.0455,0.0,0.0,0.9994,0.0,0.9728,0.9728,0.9728,0.9728,0.9728,0.9728,0.9728,0.9389,0.8987,0.872,0.0,0.0,0.0,0.8587,0.8541,0.8435,0.8421,0.8364,0.8186,0.813,0.8125,0.8117,0.6722,0.6022,0.602,0.4683,0.4062,0.4004,0.2713,0.2125,0.2065,0.0708,0.0118,0.0118,0.0059,0.0059,0.0118,0.0116,0.0173,0.0287,0.0283,0.0281,0.0281,0.0281,0.0225,0.0112,0.0112,0.0056,0.0,0.0,0.0,0.0,0.0,0.0,0.0,0.0,0.0,0.0,0.0,0.0,0.0,0.0,0.0,0.0,0.0,0.0,-0.0101,-0.0353,-0.0391,-0.0473,-0.0742,0.0,0.0,0.0,0.0,0.0,0.0,-0.2189,-0.2076,0.0,0.0,0.0,0.0,0.0,-0.2755,-0.1525,-0.1559,-0.1588,-0.1616,-0.1617,-0.1617,-0.1617,-0.1617,-0.1633,-0.1715,-0.1691,-0.1721,-0.1806,-0.1782,-0.1795,-0.1907,-0.3024,-0.3469,-0.358,-0.4693,-0.5139,-0.5139,-0.525,-0.5919,-0.6874,0.0,0.0,1.0588,1.0588,1.0522,1.0389,1.0127,1.006,0.9994,0.9728,0.9728,0.9728,0.9728,0.9594,0.9528,0.9458,0.8923,0.8587,0.8587,0.8587,0.8576,0.8549,0.8465,0.8405,0.8375,0.8255,0.8147,0.8117,0.7654,0.74,0.74,0.6033,0.5416,0.5354,0.4017,0.347,0.3346,0.2047,0.1498,0.1437,0.0414,0.0589,0.1529,0.1523,0.2104,0.2976,0.2965,0.296,0.2955,0.2921,0.2282,0.1481,0.1405,0.0728,0.0,0.0,0.0,0.0,0.0,0.0,0.0,0.0,0.0,0.0,0.0,0.0,0.0,0.0,0.0,0.0,0.0,0.0,0.0,-0.0099,-0.0097,-0.0189,-0.0464,-0.0453,0.0,0.0,-0.0993,-0.1037,-0.1026,-0.11,-0.1278,0.0,0.0,0.0,0.0,-0.2098,-0.2105,-0.1608,-0.159,-0.1609,-0.1617,-0.1617,-0.1617,-0.1617,-0.1617,-0.1633,-0.1715,-0.1691,-0.1721,-0.1806,-0.1782,-0.1795,-0.1795,-0.213,-0.2242,-0.2242,-0.2521,-0.2633,-0.2744,-0.3692,-0.4193,-0.4583,1.0721,1.0721,1.0721,1.0721,1.0721,1.0654,1.0455,1.0455,1.0389,1.019,1.0193,1.0193,1.0193,0.9994,0.9927,0.9927,0.9392,0.9056,0.8851,0.8851,0.8787,0.8587,0.8527,0.8494,0.8494,0.8378,0.8231,0.8117,0.8051,0.7988,0.7869,0.7133,0.6827,0.6766,0.5412,0.4798,0.4734,0.3416,0.2859,0.2795,0.205,0.2222,0.2879,0.2859,0.3324,0.3911,0.3883,0.3873,0.3868,0.3837,0.342,0.2833,0.2731,0.2264,0.1753,0.1684,0.084,0.0,0.0,0.0,0.0,0.0,0.0,0.0,0.0,0.0,0.0,0.0,0.0,0.0,0.0,0.0,0.0,0.0,0.0,-0.0047,-0.0183,-0.0182,0.0,-0.0365,-0.0468,-0.0569,-0.0563,-0.0674,-0.0863,-0.1229,0.0,0.0,-0.131,-0.1395,-0.1371,-0.1228,-0.125,-0.1212,-0.1212,-0.1212,-0.1212,-0.1212,-0.1364,-0.1435,-0.1526,-0.1644,-0.1728,-0.1826,-0.1788,-0.1795,-0.1795,-0.1795,-0.1795,-0.1795,-0.1795,-0.1795,-0.1907,-0.2521,-0.3135,-0.3692,1.0721,1.0721,1.0721,1.0721,1.0721,1.0721,1.0721,1.0721,1.0721,1.0721,1.0721,1.0721,1.0721,1.0455,1.0256,1.0256,0.9994,0.9658,0.9253,0.9183,0.9053,0.8787,0.8787,0.8787,0.8787,0.8607,0.8509,0.8297,0.8196,0.8124,0.8019,0.7941,0.7872,0.7869,0.6705,0.6213,0.609,0.4797,0.4183,0.4183,0.3999,0.3997,0.4176,0.4183,0.4341,0.4514,0.4512,0.4491,0.449,0.448,0.4358,0.4171,0.4107,0.3965,0.3775,0.3665,0.2187,0.056,0.056,0.0392,0.0223,0.0055,0.0,0.0,0.0,0.0,0.0,0.0,0.0,0.0,0.0,0.0,0.0,0.0,0.0,0.0,0.0,0.0,0.0,0.0,-0.0191,-0.0343,-0.0337,-0.0545,-0.0648,-0.0579,-0.0645,-0.0702,0.0,-0.0701,-0.0702,-0.0691,-0.0751,-0.0808,-0.0808,-0.0808,-0.0808,-0.0808,-0.101,-0.1185,-0.1227,-0.1492,-0.1683,-0.1739,-0.1795,-0.1795,-0.1795,-0.1795,-0.1795,-0.1795,-0.1795,-0.1795,-0.1795,-0.1795,-0.2465,-0.3302,1.0721,1.0721,1.0721,1.0721,1.0721,1.0721,1.0721,1.0721,1.0721,1.0721,1.0721,1.0721,1.0721,1.0654,1.0588,1.0588,1.0588,1.0256,0.9661,0.9594,0.9594,0.9528,0.9528,0.9528,0.9528,0.9395,0.9308,0.9266,0.8784,0.8539,0.8457,0.8103,0.7872,0.7872,0.7686,0.7564,0.7503,0.6151,0.56,0.5475,0.4367,0.4553,0.5598,0.5584,0.6311,0.7289,0.7271,0.7264,0.7251,0.7162,0.641,0.5554,0.5467,0.4637,0.3783,0.3775,0.3451,0.3022,0.3022,0.2295,0.1283,0.0275,0.0,0.0,0.0,0.0,0.0,0.0,0.0,0.0,0.0,0.0,0.0,0.0,0.0,0.0,0.0,0.0,0.0,0.0,-0.005,-0.005,-0.005,-0.0101,-0.0101,-0.01,-0.0101,-0.0101,-0.0101,-0.0101,-0.0101,-0.0101,-0.0555,-0.0808,-0.0808,-0.0808,-0.0808,-0.0808,-0.0859,-0.0876,-0.096,-0.1225,-0.1357,-0.1402,-0.1683,-0.1795,-0.1795,-0.1795,-0.1795,-0.1795,-0.1795,-0.1795,-0.1795,-0.1795,-0.1907,-0.2074,1.0721,1.0721,1.0721,1.0721,1.0721,1.0721,1.0721,1.0721,1.0721,1.0721,1.0721,1.0721,1.0721,1.0721,1.0721,1.0721,1.0721,1.0588,1.0259,1.006,0.9861,0.9731,0.9728,0.9728,0.9728,0.9666,0.9595,0.9521,0.9202,0.9039,0.8965,0.8712,0.8467,0.8273,0.8208,0.8058,0.7869,0.7258,0.695,0.695,0.6333,0.6394,0.695,0.695,0.7378,0.7872,0.7872,0.7872,0.7861,0.7809,0.7425,0.6979,0.6815,0.6393,0.5875,0.5824,0.4736,0.358,0.358,0.3189,0.2458,0.1276,0.0991,0.0816,0.0161,0.0,0.0,0.0,0.0,0.0,0.0,0.0,0.0,0.0,0.0,0.0,0.0,0.0,0.0,0.0,0.0,0.0,0.0,0.0,0.0,0.0,0.0,0.0,0.0,0.0,0.0,0.0,-0.0253,-0.0354,-0.0354,-0.0354,-0.0354,-0.0354,-0.051,-0.0624,-0.064,-0.0969,-0.1095,-0.1065,-0.1234,-0.1402,-0.1514,-0.1514,-0.1627,-0.1795,-0.1795,-0.1795,-0.1795,-0.1795,-0.1795,-0.1795,1.0721,1.0721,1.0721,1.0721,1.0721,1.0721,1.0721,1.0721,1.0721,1.0721,1.0721,1.0721,1.0721,1.0721,1.0721,1.0721,1.0721,1.0721,1.0721,1.0455,1.0193,0.9927,0.9927,0.9927,0.9927,0.9927,0.9874,0.9767,0.9667,0.9596,0.9486,0.9229,0.9024,0.8735,0.8579,0.8395,0.8116,0.8055,0.7994,0.7994,0.7933,0.7872,0.7872,0.7872,0.7872,0.7933,0.7994,0.7994,0.7994,0.7994,0.7994,0.798,0.7829,0.7722,0.7684,0.7589,0.606,0.4384,0.4088,0.4027,0.3748,0.2519,0.2217,0.1974,0.1039,0.0643,0.0419,0.0416,0.0205,0.0,0.0,0.0,0.0,0.0,0.0,0.0,0.0,0.0,0.0,0.0,0.0,0.0,0.0,0.0,0.0,0.0,0.0,0.0,0.0,0.0,0.0,0.0,0.0,0.0,0.0,0.0,0.0,0.0,-0.0206,-0.0315,-0.032,-0.0651,-0.0773,-0.0785,-0.0841,-0.1009,-0.1234,-0.129,-0.1458,-0.1683,-0.1795,-0.1795,-0.1795,-0.1795,-0.1795,-0.1795,1.0721,1.0721,1.0721,1.0721,1.0721,1.0721,1.0721,1.0721,1.0721,1.0721,1.0721,1.0721,1.0721,1.0721,1.0721,1.0721,1.0721,1.0721,1.0721,1.0654,1.0654,1.0654,1.0654,1.0654,1.0654,1.0654,1.0648,1.0638,1.0169,0.9967,0.9954,0.9493,0.9235,0.9059,0.905,0.8974,0.8793,0.8488,0.8369,0.8308,0.7994,0.7872,0.7872,0.7872,0.7872,0.7933,0.8244,0.8369,0.8369,0.8369,0.8369,0.8305,0.7986,0.7785,0.7701,0.769,0.7397,0.6786,0.5562,0.526,0.4979,0.3748,0.3465,0.3448,0.3339,0.245,0.1671,0.167,0.0778,0.0,0.0,0.0,0.0,0.0,0.0,0.0,0.0,0.0,0.0,0.0,0.0,0.0,0.0,0.0,0.0,0.0,0.0,0.0,0.0,0.0,0.0,0.0,0.0,0.0,0.0,0.0,0.0,0.0,0.0,-0.0052,-0.0053,-0.0326,-0.0442,-0.0449,-0.0785,-0.0897,-0.0953,-0.1177,-0.129,-0.1346,-0.1683,-0.1795,-0.1795,-0.1795,-0.1795,-0.1795,1.0721,1.0721,1.0721,1.0721,1.0721,1.0721,1.0721,1.0721,1.0721,1.0721,1.0721,1.0721,1.0721,1.0721,1.0721,1.0721,1.0721,1.0721,1.0721,1.0721,1.0721,1.0721,1.0721,1.0721,1.0721,1.0721,1.0721,1.0721,1.0531,1.0435,1.0435,1.0156,0.9928,0.9685,0.9596,0.9356,0.9045,0.8859,0.8811,0.8674,0.8549,0.8546,0.8485,0.8302,0.8183,0.8244,0.8369,0.8369,0.843,0.8613,0.8735,0.8671,0.8546,0.8334,0.8101,0.7785,0.7635,0.7402,0.6749,0.6537,0.6207,0.5033,0.4698,0.4522,0.3773,0.3242,0.2934,0.2896,0.2546,0.2199,0.2107,0.1589,0.1071,0.1001,0.0,0.0,0.0,0.0,0.0,0.0,0.0,0.0,0.0,0.0,0.0,0.0,0.0,0.0,0.0,0.0,0.0,0.0,0.0,0.0,0.0,0.0,0.0,0.0,0.0,0.0,0.0,-0.011,-0.0167,-0.0168,-0.028,-0.0449,-0.0617,-0.0673,-0.0841,-0.1065,-0.1177,-0.1234,-0.1234,-0.1234,-0.1234,-0.1234,1.0721,1.0721,1.0721,1.0721,1.0721,1.0721,1.0721,1.0721,1.0721,1.0721,1.0721,1.0721,1.0721,1.0721,1.0721,1.0721,1.0721,1.0721,1.0721,1.0721,1.0721,1.0721,1.0721,1.0721,1.0721,1.0721,1.0721,1.0721,1.0721,1.0721,1.0717,1.0612,1.0407,1.0162,1.006,0.9815,0.95,0.9371,0.9228,0.9103,0.8977,0.8952,0.8854,0.8674,0.8552,0.8552,0.8671,0.8671,0.8732,0.8976,0.9037,0.9037,0.8915,0.8732,0.8474,0.8145,0.8028,0.796,0.7669,0.7502,0.7145,0.6216,0.5984,0.5759,0.492,0.4434,0.4171,0.4148,0.3889,0.3568,0.3504,0.2804,0.2269,0.219,0.1518,0.1009,0.1009,0.0707,0.0505,0.0505,0.0202,0.0,0.0,0.0,0.0,0.0,0.0,0.0,0.0,0.0,0.0,0.0,0.0,0.0,0.0,0.0,0.0,0.0,0.0,0.0,0.0,0.0,0.0,0.0,0.0,-0.0112,-0.028,-0.0393,-0.0561,-0.0729,-0.0841,-0.0897,-0.0897,-0.0897,-0.0897,-0.0897,1.0721,1.0721,1.0721,1.0721,1.0721,1.0721,1.0721,1.0721,1.0721,1.0721,1.0721,1.0721,1.0721,1.0721,1.0721,1.0721,1.0721,1.0721,1.0721,1.0721,1.0721,1.0721,1.0721,1.0721,1.0721,1.0721,1.0721,1.0721,1.0721,1.0721,1.0721,1.0721,1.0639,1.0493,1.0493,1.0415,1.0283,0.9955,0.9747,0.9558,0.9237,0.9032,0.8918,0.8918,0.8918,0.8915,0.9217,0.9275,0.9275,0.9275,0.9275,0.9278,0.8976,0.8915,0.8915,0.8915,0.882,0.865,0.8295,0.7988,0.77,0.7296,0.7213,0.721,0.721,0.6262,0.54,0.5419,0.4472,0.3634,0.3624,0.3507,0.3413,0.3411,0.3311,0.3225,0.3224,0.2267,0.1613,0.1613,0.0656,0.0,0.0,0.0,0.0,0.0,0.0,0.0,0.0,0.0,0.0,0.0,0.0,0.0,0.0,0.0,0.0,0.0,0.0,0.0,0.0,0.0,0.0,0.0,0.0,0.0,0.0,-0.028,-0.0393,-0.0449,-0.0785,-0.0897,-0.0897,-0.0897,-0.0897,-0.0897,1.0721,1.0721,1.0721,1.0721,1.0721,1.0721,1.0721,1.0721,1.0721,1.0721,1.0721,1.0721,1.0721,1.0721,1.0721,1.0721,1.0721,1.0721,1.0721,1.0721,1.0721,1.0721,1.0721,1.0721,1.0721,1.0721,1.0721,1.0721,1.0721,1.0721,1.0721,1.0721,1.0697,1.0653,1.0653,1.0568,1.0429,1.0361,1.0216,1.0086,0.9956,0.9933,0.982,0.9532,0.937,0.9357,0.9313,0.9275,0.9335,0.9579,0.964,0.9579,0.9278,0.9156,0.9156,0.8976,0.8888,0.8772,0.8617,0.847,0.8239,0.7445,0.7217,0.721,0.721,0.6932,0.6644,0.6667,0.638,0.6072,0.6025,0.5334,0.4739,0.4568,0.3859,0.3319,0.3229,0.2922,0.272,0.272,0.2418,0.1966,0.1211,0.111,0.0807,0.0051,0.0,0.0,0.0,0.0,0.0,0.0,0.0,0.0,0.0,0.0,0.0,0.0,0.0,0.0,0.0,0.0,0.0,0.0,0.0,0.0,0.0,-0.0112,-0.0112,-0.0112,-0.0224,-0.028,-0.028,-0.028,-0.028,-0.028,1.0721,1.0721,1.0721,1.0721,1.0721,1.0721,1.0721,1.0721,1.0721,1.0721,1.0721,1.0721,1.0721,1.0721,1.0721,1.0721,1.0721,1.0721,1.0721,1.0721,1.0721,1.0721,1.0721,1.0721,1.0721,1.0721,1.0721,1.0721,1.0721,1.0721,1.0721,1.0721,1.0721,1.0721,1.0721,1.067,1.0582,1.0582,1.0497,1.0365,1.0365,1.0331,1.027,0.9989,0.9893,0.988,0.9728,0.9695,0.9686,0.9808,0.9873,0.9761,0.9579,0.9518,0.9457,0.9278,0.9278,0.9198,0.8992,0.8929,0.8725,0.8038,0.7635,0.7379,0.7221,0.721,0.721,0.721,0.721,0.7188,0.7119,0.652,0.5959,0.5831,0.5195,0.4738,0.4637,0.4193,0.3918,0.3918,0.349,0.2922,0.2318,0.2217,0.1966,0.1311,0.1261,0.1059,0.0656,0.0656,0.0454,0.0,0.0,0.0,0.0,0.0,0.0,0.0,0.0,0.0,0.0,0.0,0.0,0.0,0.0,0.0,0.0,0.0,0.0,0.0,0.0,0.0,0.0,0.0,0.0,0.0,1.0721,1.0721,1.0721,1.0721,1.0721,1.0721,1.0721,1.0721,1.0721,1.0721,1.0721,1.0721,1.0721,1.0721,1.0721,1.0721,1.0721,1.0721,1.0721,1.0721,1.0721,1.0721,1.0721,1.0721,1.0721,1.0721,1.0721,1.0721,1.0721,1.0721,1.0721,1.0721,1.0721,1.0721,1.0721,1.0721,1.0721,1.0721,1.0639,1.0514,1.0514,1.0436,1.0317,1.0304,1.03,1.0297,1.0287,1.028,1.0259,1.0117,0.9906,0.9842,0.9842,0.9832,0.9822,0.9822,0.9822,0.9761,0.9457,0.9302,0.9198,0.8828,0.8344,0.784,0.7368,0.7282,0.7224,0.7213,0.721,0.721,0.721,0.7125,0.6997,0.6986,0.6891,0.6815,0.6804,0.5865,0.5182,0.5182,0.4184,0.3484,0.3383,0.3277,0.3224,0.3224,0.3224,0.2771,0.1815,0.1767,0.1314,0.0354,0.0309,0.0258,0.0152,0.0157,0.0106,0.0,0.0,0.0,0.0,0.0,0.0,0.0,0.0,0.0,0.0,0.0,0.0,0.0,0.0,0.0,0.0,0.0,0.0,0.0,1.0721,1.0721,1.0721,1.0721,1.0721,1.0721,1.0721,1.0721,1.0721,1.0721,1.0721,1.0721,1.0721,1.0721,1.0721,1.0721,1.0721,1.0721,1.0721,1.0721,1.0721,1.0721,1.0721,1.0721,1.0721,1.0721,1.0721,1.0721,1.0721,1.0721,1.0721,1.0721,1.0721,1.0721,1.0721,1.0721,1.0721,1.0721,1.07,1.067,1.067,1.0653,1.0612,1.049,1.0446,1.0432,1.0321,1.028,1.0276,1.0243,1.0127,0.9936,0.9936,0.9856,0.9822,0.9822,0.9822,0.9761,0.97,0.9677,0.9563,0.9211,0.9018,0.8731,0.8205,0.7864,0.7663,0.7513,0.7324,0.721,0.721,0.7191,0.7144,0.6999,0.6961,0.6912,0.6817,0.6566,0.6393,0.6393,0.6083,0.5551,0.4676,0.3756,0.3224,0.3224,0.3224,0.3073,0.2871,0.296,0.288,0.2673,0.2774,0.2374,0.1419,0.143,0.0949,0.0,0.0,0.0,0.0,0.0,0.0,0.0,0.0,0.0,0.0,0.0,0.0,0.0,0.0,0.0,0.0,0.0,0.0,0.0,1.0721,1.0721,1.0721,1.0721,1.0721,1.0721,1.0721,1.0721,1.0721,1.0721,1.0721,1.0721,1.0721,1.0721,1.0721,1.0721,1.0721,1.0721,1.0721,1.0721,1.0721,1.0721,1.0721,1.0721,1.0721,1.0721,1.0721,1.0721,1.0721,1.0721,1.0721,1.0721,1.0721,1.0721,1.0721,1.0721,1.0721,1.0721,1.0721,1.0721,1.0721,1.0721,1.0711,1.0629,1.0602,1.0592,1.0517,1.0443,1.0382,1.0382,1.0283,1.0148,1.0011,0.9933,0.9856,0.9842,0.9822,0.9822,0.9822,0.9822,0.9741,0.9543,0.9463,0.9268,0.8579,0.8238,0.8001,0.7936,0.7756,0.7546,0.7435,0.7379,0.7304,0.713,0.7119,0.7098,0.698,0.6923,0.6891,0.6891,0.6782,0.6495,0.5917,0.5298,0.491,0.491,0.491,0.4702,0.4185,0.4221,0.4033,0.3508,0.3571,0.3322,0.2657,0.2647,0.2323,0.1701,0.0542,0.0,0.0,0.0,0.0,0.0,0.0,0.0,0.0,0.0,0.0,0.0,0.0,0.0,0.0,0.0,0.0,0.0,1.0721,1.0721,1.0721,1.0721,1.0721,1.0721,1.0721,1.0721,1.0721,1.0721,1.0721,1.0721,1.0721,1.0721,1.0721,1.0721,1.0721,1.0721,1.0721,1.0721,1.0721,1.0721,1.0721,1.0721,1.0721,1.0721,1.0721,1.0721,1.0721,1.0721,1.0721,1.0721,1.0721,1.0721,1.0721,1.0721,1.0721,1.0721,1.0721,1.0721,1.0721,1.0721,1.0721,1.0721,1.0721,1.0721,1.0721,1.0639,1.0531,1.0531,1.0436,1.0293,1.0164,1.0027,0.9963,0.9897,0.9842,0.9822,0.9822,0.9822,0.9822,0.9822,0.9822,0.9633,0.8915,0.8588,0.8422,0.8375,0.8217,0.7961,0.7721,0.766,0.7604,0.7376,0.7321,0.7321,0.7321,0.7237,0.7176,0.7125,0.6961,0.6825,0.6804,0.6801,0.6801,0.6801,0.6801,0.6429,0.5523,0.5486,0.5122,0.4214,0.4178,0.4132,0.3912,0.3915,0.3778,0.356,0.1591,0.0609,0.0616,0.0392,0.028,0.028,0.0112,0.0,0.0,0.0,0.0,0.0,0.0,0.0,0.0,0.0,0.0,0.0,1.0721,1.0721,1.0721,1.0721,1.0721,1.0721,1.0721,1.0721,1.0721,1.0721,1.0721,1.0721,1.0721,1.0721,1.0721,1.0721,1.0721,1.0721,1.0721,1.0721,1.0721,1.0721,1.0721,1.0721,1.0721,1.0721,1.0721,1.0721,1.0721,1.0721,1.0721,1.0721,1.0721,1.0721,1.0721,1.0721,1.0721,1.0721,1.0721,1.0721,1.0721,1.0721,1.0721,1.0721,1.0721,1.0721,1.0721,1.0707,1.0687,1.0687,1.0588,1.046,1.0439,1.0256,0.9984,0.9963,0.9862,0.9822,0.9822,0.9822,0.9822,0.9822,0.9822,0.9748,0.965,0.9347,0.8997,0.8695,0.8464,0.8188,0.8011,0.7934,0.7934,0.7878,0.7878,0.7878,0.7878,0.7864,0.7799,0.7526,0.7196,0.6918,0.6812,0.6801,0.6801,0.6801,0.6801,0.6748,0.6587,0.6687,0.6686,0.6524,0.6628,0.6232,0.5167,0.5137,0.4637,0.3624,0.329,0.3126,0.3078,0.2015,0.1567,0.1512,0.0448,0.0,0.0,0.0,0.0,0.0,0.0,0.0,0.0,0.0,0.0,0.0,1.2882,1.2425,1.2095,1.2882,1.2425,1.2161,1.2947,1.2359,1.1901,1.1901,1.1901,1.1571,1.0787,1.0721,1.0721,1.0721,1.0721,1.0721,1.0721,1.0721,1.0721,1.0721,1.0721,1.0721,1.0721,1.0721,1.0721,1.0721,1.0721,1.0721,1.0721,1.0721,1.0721,1.0721,1.0721,1.0721,1.0721,1.0721,1.0721,1.0721,1.0721,1.0721,1.0721,1.0721,1.0721,1.0721,1.0721,1.0721,1.0721,1.0721,1.0673,1.0605,1.0517,1.0402,1.0263,1.0034,0.994,0.9869,0.9842,0.9822,0.9822,0.9822,0.9822,0.9822,0.9822,0.965,0.9483,0.9277,0.9051,0.8781,0.8464,0.8382,0.8301,0.8057,0.7989,0.7989,0.7989,0.7989,0.7934,0.7826,0.7665,0.7552,0.7494,0.7488,0.7488,0.7488,0.7328,0.7222,0.7222,0.716,0.7136,0.7136,0.7182,0.6932,0.6429,0.6429,0.6149,0.5588,0.5588,0.492,0.358,0.3022,0.2797,0.2798,0.2239,0.2015,0.2015,0.2015,0.1948,0.1821,0.1214,0.0604,0.0,0.0,0.0,0.0]}]]